[[{"header":{"parameterUnit":"m.s-1","parameterCategory":1,"la1":30.6,"la2":28.766,"lo1":-90.7593,"lo2":-88.6598,"dy":0.0162,"dx":0.0183,"nx":116,"ny":114,"refTime":"2023-09-02T12:00:00:Z","depth":0,"parameterNumber":2,"parameterNumberName":"U-component_of_WINDS"},"data":[0.0,0.0,0.0,0.0,0.0,0.0,0.0,0.0,0.0,0.0,0.0,0.0,0.0,0.0,0.0,0.0,0.0,0.0,0.0,0.0,0.0,0.0,0.0,0.0,0.0,0.0,0.0,0.0,0.0,0.0,0.0,0.0,0.0,0.0,0.0,0.0,0.0,0.0,0.0,0.0,0.0,0.0,0.0,0.0,0.0,0.0,0.0,0.0,0.0,0.0,0.0,0.0,0.0,0.0,0.0,0.0,0.0,0.0,0.0,0.0,0.0,0.0,0.0,0.0,0.0,0.0,0.0,0.0,0.0,0.0,0.0,0.0,0.0,0.0,0.0,0.0,0.0,0.0,0.0,0.0,0.0,0.0,0.0,0.0,0.0,0.0,0.0,0.0,0.0,0.0,0.0,0.0,0.0,0.0,0.0,0.0,0.0,0.0,0.0,0.0,0.0,0.0,0.0,0.0,0.0,0.0,0.0,0.0,0.0,0.0,0.0,0.0,0.0,0.0,0.0,0.0,0.0,0.0,0.0,0.0,0.0,0.0,0.0,0.0,0.0,0.0,0.0,0.0,0.0,0.0,0.0,0.0,0.0,0.0,0.0,0.0,0.0,0.0,0.0,0.0,0.0,0.0,0.0,0.0,0.0,0.0,0.0,0.0,0.0,0.0,0.0,0.0,0.0,0.0,0.0,0.0,0.0,0.0,0.0,0.0,0.0,0.0,0.0,0.0,0.0,0.0,0.0,0.0,0.0,0.0,0.0,0.0,0.0,0.0,0.0,0.0,0.0,0.0,0.0,0.0,0.0,0.0,0.0,0.0,0.0,0.0,0.0,0.0,0.0,0.0,0.0,0.0,0.0,0.0,0.0,0.0,0.0,0.0,0.0,0.0,0.0,0.0,0.0,0.0,0.0,0.0,0.0,0.0,0.0,0.0,0.0,0.0,0.0,0.0,0.0,0.0,0.0,0.0,0.0,0.0,0.0,0.0,0.0,0.0,0.0,0.0,0.0,0.0,0.0,0.0,0.0,0.0,0.0,0.0,0.0,0.0,0.0,0.0,0.0,0.0,0.0,0.0,0.0,0.0,0.0,0.0,0.0,0.0,0.0,0.0,0.0,0.0,0.0,0.0,0.0,0.0,0.0,0.0,0.0,0.0,0.0,0.0,0.0,0.0,0.0,0.0,0.0,0.0,0.0,0.0,0.0,0.0,0.0,0.0,0.0,0.0,0.0,0.0,0.0,0.0,0.0,0.0,0.0,0.0,0.0,0.0,0.0,0.0,0.0,0.0,0.0,0.0,0.0,0.0,0.0,0.0,0.0,0.0,0.0,0.0,0.0,0.0,0.0,0.0,0.0,0.0,0.0,0.0,0.0,0.0,0.0,0.0,0.0,0.0,0.0,0.0,0.0,0.0,0.0,0.0,0.0,0.0,0.0,0.0,0.0,0.0,0.0,0.0,0.0,0.0,0.0,0.0,0.0,0.0,0.0,0.0,0.0,0.0,0.0,0.0,0.0,0.0,0.0,0.0,0.0,0.0,0.0,0.0,0.0,0.0,0.0,0.0,0.0,0.0,0.0,0.0,0.0,0.0,0.0,0.0,0.0,0.0,0.0,0.0,0.0,0.0,0.0,0.0,0.0,0.0,0.0,0.0,0.0,0.0,0.0,0.0,0.0,0.0,0.0,0.0,0.0,0.0,0.0,0.0,0.0,0.0,0.0,0.0,0.0,0.0,0.0,0.0,0.0,0.0,0.0,0.0,0.0,0.0,0.0,0.0,0.0,0.0,0.0,0.0,0.0,0.0,0.0,0.0,0.0,0.0,0.0,0.0,0.0,0.0,0.0,0.0,0.0,0.0,0.0,0.0,0.0,0.0,0.0,0.0,0.0,0.0,0.0,0.0,0.0,0.0,0.0,0.0,0.0,0.0,0.0,0.0,0.0,0.0,0.0,0.0,0.0,0.0,0.0,0.0,0.0,0.0,0.0,0.0,0.0,0.0,0.0,0.0,0.0,0.0,0.0,0.0,0.0,0.0,0.0,0.0,0.0,0.0,0.0,0.0,0.0,0.0,0.0,0.0,0.0,0.0,0.0,0.0,0.0,0.0,0.0,0.0,0.0,0.0,0.0,0.0,0.0,0.0,0.0,0.0,0.0,0.0,0.0,0.0,0.0,0.0,0.0,0.0,0.0,0.0,0.0,0.0,0.0,0.0,0.0,0.0,0.0,0.0,0.0,0.0,0.0,0.0,0.0,0.0,0.0,0.0,0.0,0.0,0.0,0.0,0.0,0.0,0.0,0.0,0.0,0.0,0.0,0.0,0.0,0.0,0.0,0.0,0.0,0.0,0.0,0.0,0.0,0.0,0.0,0.0,0.0,0.0,0.0,0.0,0.0,0.0,0.0,0.0,0.0,0.0,0.0,0.0,0.0,0.0,0.0,0.0,0.0,0.0,0.0,0.0,0.0,0.0,0.0,0.0,0.0,0.0,0.0,0.0,0.0,0.0,0.0,0.0,0.0,0.0,0.0,0.0,0.0,0.0,0.0,0.0,0.0,0.0,0.0,0.0,0.0,0.0,0.0,0.0,0.0,0.0,0.0,0.0,0.0,0.0,0.0,0.0,0.0,0.0,0.0,0.0,0.0,0.0,0.0,0.0,0.0,0.0,0.0,0.0,0.0,0.0,0.0,0.0,0.0,0.0,0.0,0.0,0.0,0.0,0.0,0.0,0.0,0.0,0.0,0.0,0.0,0.0,0.0,0.0,0.0,0.0,0.0,0.0,0.0,0.0,0.0,0.0,0.0,0.0,0.0,0.0,0.0,0.0,0.0,0.0,0.0,0.0,0.0,0.0,0.0,0.0,0.0,0.0,0.0,0.0,0.0,0.0,0.0,0.0,0.0,0.0,0.0,0.0,0.0,0.0,0.0,0.0,0.0,0.0,0.0,0.0,0.0,0.0,0.0,0.0,0.0,0.0,0.0,0.0,0.0,0.0,0.0,0.0,0.0,0.0,0.0,0.0,0.0,0.0,0.0,0.0,0.0,0.0,0.0,0.0,0.0,0.0,0.0,0.0,0.0,0.0,0.0,0.0,0.0,0.0,0.0,0.0,0.0,0.0,0.0,0.0,0.0,0.0,0.0,0.0,0.0,0.0,0.0,0.0,0.0,0.0,0.0,0.0,0.0,0.0,0.0,0.0,0.0,0.0,0.0,0.0,0.0,0.0,0.0,0.0,0.0,0.0,0.0,0.0,0.0,0.0,0.0,0.0,0.0,0.0,0.0,0.0,0.0,0.0,0.0,0.0,0.0,0.0,0.0,0.0,0.0,0.0,0.0,0.0,0.0,0.0,0.0,0.0,0.0,0.0,0.0,0.0,0.0,0.0,0.0,0.0,0.0,0.0,0.0,0.0,0.0,0.0,0.0,0.0,0.0,0.0,0.0,0.0,0.0,0.0,0.0,0.0,0.0,0.0,0.0,0.0,0.0,0.0,0.0,0.0,0.0,0.0,0.0,0.0,0.0,0.0,0.0,0.0,0.0,0.0,0.0,0.0,0.0,0.0,0.0,0.0,0.0,0.0,0.0,0.0,0.0,0.0,0.0,0.0,0.0,0.0,0.0,0.0,0.0,0.0,0.0,0.0,0.0,0.0,0.0,0.0,0.0,0.0,0.0,0.0,0.0,0.0,0.0,0.0,0.0,0.0,0.0,0.0,0.0,0.0,0.0,0.0,0.0,0.0,0.0,0.0,0.0,0.0,0.0,0.0,0.0,0.0,0.0,0.0,0.0,0.0,0.0,0.0,0.0,0.0,0.0,0.0,0.0,0.0,0.0,0.0,0.0,0.0,0.0,0.0,0.0,0.0,0.0,0.0,0.0,0.0,0.0,0.0,0.0,0.0,0.0,0.0,0.0,0.0,0.0,0.0,0.0,0.0,0.0,0.0,0.0,0.0,0.0,0.0,0.0,0.0,0.0,0.0,0.0,0.0,0.0,0.0,0.0,0.0,0.0,0.0,0.0,0.0,0.0,0.0,0.0,0.0,0.0,0.0,0.0,0.0,0.0,0.0,0.0,0.0,0.0,0.0,0.0,0.0,0.0,0.0,0.0,0.0,0.0,0.0,0.0,0.0,0.0,0.0,0.0,0.0,0.0,0.0,0.0,0.0,0.0,0.0,0.0,0.0,0.0,0.0,0.0,0.0,0.0,0.0,0.0,0.0,0.0,0.0,0.0,0.0,0.0,0.0,0.0,0.0,0.0,0.0,0.0,0.0,0.0,0.0,0.0,0.0,0.0,0.0,0.0,0.0,0.0,0.0,0.0,0.0,0.0,0.0,0.0,0.0,0.0,0.0,0.0,0.0,0.0,0.0,0.0,0.0,0.0,0.0,0.0,0.0,0.0,0.0,0.0,0.0,0.0,0.0,0.0,0.0,0.0,0.0,0.0,0.0,0.0,0.0,0.0,0.0,0.0,0.0,0.0,0.0,0.0,0.0,0.0,0.0,0.0,0.0,0.0,0.0,0.0,0.0,0.0,0.0,0.0,0.0,0.0,0.0,0.0,0.0,0.0,0.0,0.0,0.0,0.0,0.0,0.0,0.0,0.0,0.0,0.0,0.0,0.0,0.0,0.0,0.0,0.0,0.0,0.0,0.0,0.0,0.0,0.0,0.0,0.0,0.0,0.0,0.0,0.0,0.0,0.0,0.0,0.0,0.0,0.0,0.0,0.0,0.0,0.0,0.0,0.0,0.0,0.0,0.0,0.0,0.0,0.0,0.0,0.0,0.0,0.0,0.0,0.0,0.0,0.0,0.0,0.0,0.0,0.0,0.0,0.0,0.0,0.0,0.0,0.0,0.0,0.0,0.0,0.0,0.0,0.0,0.0,0.0,0.0,0.0,0.0,0.0,0.0,0.0,0.0,0.0,0.0,0.0,0.0,0.0,0.0,0.0,0.0,0.0,0.0,0.0,0.0,0.0,0.0,0.0,0.0,0.0,0.0,0.0,0.0,0.0,0.0,0.0,0.0,0.0,0.0,0.0,0.0,0.0,0.0,0.0,0.0,0.0,0.0,0.0,0.0,0.0,0.0,0.0,0.0,0.0,0.0,0.0,0.0,0.0,0.0,0.0,0.0,0.0,0.0,0.0,0.0,0.0,0.0,0.0,0.0,0.0,0.0,0.0,0.0,0.0,0.0,0.0,0.0,0.0,0.0,0.0,0.0,0.0,0.0,0.0,0.0,0.0,0.0,0.0,0.0,0.0,0.0,0.0,0.0,0.0,0.0,0.0,0.0,0.0,0.0,0.0,0.0,0.0,0.0,0.0,0.0,0.0,0.0,0.0,0.0,0.0,0.0,0.0,0.0,0.0,0.0,0.0,0.0,0.0,0.0,0.0,0.0,0.0,0.0,0.0,0.0,0.0,0.0,0.0,0.0,0.0,0.0,0.0,0.0,0.0,0.0,0.0,0.0,0.0,0.0,0.0,0.0,0.0,0.0,0.0,0.0,0.0,0.0,0.0,0.0,0.0,0.0,0.0,0.0,0.0,0.0,0.0,0.0,0.0,0.0,0.0,0.0,0.0,0.0,0.0,0.0,0.0,0.0,0.0,0.0,0.0,0.0,0.0,0.0,0.0,0.0,0.0,0.0,0.0,0.0,0.0,0.0,0.0,0.0,0.0,0.0,0.0,0.0,0.0,0.0,0.0,0.0,0.0,0.0,0.0,0.0,0.0,0.0,0.0,0.0,0.0,0.0,0.0,0.0,0.0,0.0,0.0,0.0,0.0,0.0,0.0,0.0,0.0,0.0,0.0,0.0,0.0,0.0,0.0,0.0,0.0,0.0,0.0,0.0,0.0,0.0,0.0,0.0,0.0,0.0,0.0,0.0,0.0,0.0,0.0,0.0,0.0,0.0,0.0,0.0,0.0,0.0,0.0,0.0,0.0,0.0,0.0,0.0,0.0,0.0,0.0,0.0,0.0,0.0,0.0,0.0,0.0,0.0,0.0,0.0,0.0,0.0,0.0,0.0,0.0,0.0,0.0,0.0,0.0,0.0,0.0,0.0,0.0,0.0,0.0,0.0,0.0,0.0,0.0,0.0,0.0,0.0,0.0,0.0,0.0,0.0,-1.8008,-1.5446,0.0,0.0,0.0,0.0,0.0,0.0,0.0,0.0,0.0,0.0,0.0,0.0,0.0,0.0,0.0,0.0,0.0,0.0,0.0,0.0,0.0,0.0,0.0,0.0,0.0,0.0,0.0,0.0,0.0,0.0,0.0,0.0,0.0,0.0,0.0,0.0,0.0,0.0,-0.6315,-0.6701,-0.6957,-0.6627,-0.5709,-0.4343,0.0,0.0,0.0,0.0,0.0,0.0,0.0,0.0,0.0,0.0,0.0,0.0,0.0,0.0,0.0,0.0,0.0,0.0,0.0,0.0,0.0,0.0,0.0,0.0,0.0,0.0,0.0,0.0,0.0,0.0,0.0,0.0,0.0,0.0,0.0,0.0,0.0,0.0,0.0,0.0,0.0,0.0,0.0,0.0,0.0,0.0,0.0,0.0,0.0,0.0,0.0,0.0,0.0,0.0,0.0,0.0,0.0,0.0,0.0,0.0,0.0,0.0,0.0,0.0,0.0,0.0,0.0,0.0,0.0,0.0,-2.2863,-2.001,0.0,0.0,0.0,0.0,0.0,0.0,0.0,0.0,0.0,0.0,0.0,0.0,0.0,0.0,0.0,0.0,0.0,0.0,0.0,0.0,0.0,0.0,0.0,0.0,-1.0133,-0.9566,-0.9306,0.0,0.0,0.0,0.0,0.0,0.0,0.0,0.0,-0.6357,-0.647,-0.7117,-0.7842,-0.8712,-0.9636,-0.9983,-0.9029,-0.6998,-0.6143,0.0,0.0,0.0,0.0,0.0,0.0,0.0,0.0,0.0,0.0,0.0,0.0,0.0,0.0,0.0,0.0,0.0,0.0,0.0,0.0,0.0,0.0,0.0,0.0,0.0,0.0,0.0,0.0,0.0,0.0,0.0,0.0,0.0,0.0,0.0,0.0,0.0,0.0,0.0,0.0,0.0,0.0,0.0,0.0,0.0,0.0,0.0,0.0,0.0,0.0,0.0,0.0,0.0,0.0,0.0,0.0,0.0,0.0,0.0,0.0,0.0,0.0,0.0,-2.918,-2.987,-3.0653,-3.1358,-3.2054,-3.2488,-2.8549,-2.5846,-2.421,-2.3495,0.0,0.0,0.0,0.0,0.0,0.0,0.0,0.0,0.0,0.0,0.0,0.0,0.0,0.0,0.0,0.0,0.0,0.0,0.0,0.0,0.0,-1.1996,-1.169,-1.1607,-1.0534,-0.9644,0.0,0.0,0.0,0.0,0.0,0.0,-0.8803,-0.8019,-0.7871,-0.8355,-0.9106,-1.0128,-1.1388,-1.1774,-1.2097,-1.2219,-1.0163,-0.8959,-0.8389,0.0,0.0,0.0,0.0,0.0,0.0,0.0,0.0,0.0,0.0,0.0,0.0,0.0,0.0,0.0,0.0,0.0,0.0,0.0,0.0,0.0,0.0,0.0,0.0,0.0,0.0,0.0,0.0,0.0,0.0,0.0,0.0,0.0,0.0,0.0,0.0,0.0,0.0,0.0,0.0,0.0,-1.7071,-1.6977,0.0,0.0,0.0,0.0,0.0,0.0,0.0,0.0,0.0,0.0,0.0,0.0,0.0,-2.8521,-3.0376,-3.1934,-3.2614,-3.2398,-3.4335,-3.5111,-3.4707,-3.4828,-3.6116,-3.8185,-3.7034,0.0,-2.8825,-2.765,0.0,0.0,0.0,0.0,0.0,0.0,0.0,0.0,0.0,0.0,0.0,0.0,0.0,0.0,0.0,0.0,0.0,0.0,0.0,0.0,0.0,-1.314,-1.2905,-1.2333,-1.2078,-1.1366,-0.9938,0.0,0.0,0.0,0.0,-0.9321,-0.9644,-0.9131,-0.9358,-1.0402,-1.0913,-1.1821,-1.3049,-1.3403,-1.3873,-1.4399,-1.3806,-1.2611,-1.098,-1.0497,0.0,0.0,0.0,0.0,0.0,0.0,0.0,0.0,0.0,0.0,0.0,0.0,0.0,0.0,0.0,0.0,0.0,0.0,0.0,0.0,0.0,0.0,0.0,0.0,0.0,0.0,0.0,0.0,0.0,0.0,0.0,0.0,0.0,0.0,0.0,0.0,0.0,0.0,0.0,-1.867,-1.9949,-1.9006,-1.983,-2.0011,0.0,0.0,0.0,0.0,0.0,0.0,0.0,0.0,0.0,-3.117,-3.1722,-3.2689,-3.4218,-3.5529,-3.6094,-3.5855,-3.7209,-3.7801,-3.7877,-3.7877,-3.8762,-4.0287,-3.9942,-3.8689,-3.666,-3.3999,-3.1308,-2.8734,0.0,0.0,0.0,0.0,-2.8596,-2.8988,0.0,0.0,0.0,0.0,0.0,0.0,0.0,0.0,0.0,0.0,0.0,0.0,-1.4224,-1.4227,-1.3967,-1.3375,-1.3487,-1.2751,-1.0817,-1.1075,0.0,0.0,-0.988,-1.0028,-1.0328,-1.0222,-1.074,-1.1922,-1.2571,-1.3551,-1.4845,-1.5299,-1.5779,-1.6355,-1.6999,-1.5886,-1.3459,-1.3243,-1.2269,-1.0791,0.0,0.0,0.0,0.0,0.0,0.0,0.0,0.0,0.0,0.0,0.0,0.0,0.0,0.0,0.0,0.0,0.0,0.0,0.0,0.0,0.0,0.0,0.0,0.0,0.0,0.0,0.0,0.0,0.0,0.0,0.0,0.0,0.0,0.0,0.0,0.0,0.0,-2.1281,-2.2464,-2.1081,-2.2976,-2.359,0.0,0.0,0.0,0.0,0.0,0.0,-3.0215,-3.1513,-3.3165,-3.5278,-3.5953,-3.6821,-3.7876,-3.8517,-3.9007,-3.9283,-3.9433,-3.9722,-4.0099,-4.0029,-4.0459,-4.1312,-4.1388,-4.197,-4.2553,-3.8968,-3.5652,-3.2732,-3.1832,-3.0877,-3.0183,-3.17,-3.217,-3.2279,0.0,0.0,0.0,0.0,0.0,0.0,0.0,0.0,0.0,0.0,0.0,-1.4574,-1.5834,-1.5257,-1.4999,-1.5578,-1.4503,-1.3283,-1.2079,-1.1798,-1.1361,-1.0667,-1.0641,-1.082,-1.1217,-1.1539,-1.1886,-1.2268,-1.3745,-1.53,-1.6886,-1.7578,-1.8348,-1.9107,-1.9525,-1.8265,-1.58,-1.5148,-1.4221,-1.3103,-1.1665,0.0,0.0,0.0,0.0,0.0,0.0,0.0,0.0,0.0,0.0,0.0,0.0,0.0,0.0,0.0,0.0,0.0,0.0,0.0,0.0,0.0,0.0,0.0,0.0,0.0,0.0,0.0,0.0,0.0,0.0,0.0,0.0,0.0,0.0,0.0,0.0,0.0,0.0,-2.3013,-2.5659,0.0,0.0,0.0,0.0,-2.8104,-3.0318,-3.3001,-3.6088,-3.6747,-3.8155,-4.0532,-4.0661,-4.1081,-4.1898,-4.1404,-4.1693,-4.2723,-4.1693,-4.1175,-4.1216,-4.0875,-4.113,-4.1808,-4.2559,-4.3277,-4.3689,-4.0601,-3.9264,-3.8921,-3.6664,-3.5739,-3.5541,-3.4393,-3.4014,-3.3956,0.0,0.0,0.0,0.0,0.0,0.0,0.0,0.0,0.0,-1.472,-1.5325,-1.6054,-1.68,-1.6786,-1.6882,-1.7247,-1.6655,-1.5782,-1.4679,-1.4152,-1.3442,-1.2487,-1.2408,-1.2695,-1.3411,-1.3808,-1.4462,-1.5403,-1.6171,-1.7207,-1.8571,-1.9258,-1.9791,-2.0168,-2.0736,-2.0258,-1.891,-1.8116,-1.6762,-1.5055,-1.3992,-1.2461,0.0,0.0,0.0,0.0,0.0,0.0,0.0,0.0,0.0,0.0,0.0,0.0,0.0,0.0,0.0,0.0,0.0,0.0,0.0,0.0,0.0,0.0,0.0,0.0,0.0,0.0,0.0,0.0,0.0,0.0,0.0,0.0,0.0,0.0,0.0,0.0,0.0,-2.8139,-3.086,0.0,-3.0283,-3.1896,-3.3264,-3.3902,-3.647,-3.8644,-4.009,-4.1194,-4.2026,-4.2514,-4.3087,-4.3271,-4.299,-4.3669,-4.4224,-4.4683,-4.348,-4.2892,-4.2892,-4.1553,-4.1208,-4.1587,-4.2127,-4.3012,-4.4047,-4.3286,-4.226,-4.1059,-3.9536,-3.842,-3.7633,-3.7093,-3.663,-3.6257,0.0,0.0,0.0,0.0,0.0,0.0,0.0,0.0,-1.5331,-1.4878,-1.5679,-1.6548,-1.7267,-1.7517,-1.7908,-1.8572,-1.7935,-1.7014,-1.5896,-1.5086,-1.4241,-1.3342,-1.3651,-1.3999,-1.4384,-1.5337,-1.6322,-1.7276,-1.7916,-1.8881,-2.0131,-2.0585,-2.0995,-2.1451,-2.1724,-2.1711,-2.1344,-2.0663,-1.9249,-1.744,-1.6699,-1.5463,-1.3991,0.0,0.0,0.0,0.0,0.0,0.0,0.0,0.0,0.0,0.0,0.0,0.0,0.0,0.0,0.0,0.0,0.0,0.0,0.0,0.0,0.0,0.0,0.0,0.0,0.0,0.0,0.0,0.0,0.0,0.0,0.0,0.0,0.0,0.0,-2.883,-3.1399,-3.2327,-3.4881,-3.6057,-3.4777,-3.6449,-3.7779,-3.8224,-4.0831,-4.2725,-4.3463,-4.4581,-4.5016,-4.4573,-4.514,-4.5076,-4.4421,-4.5156,-4.5715,-4.6128,-4.4943,-4.4132,-4.3719,-4.2646,-4.1862,-4.1438,-4.2181,-4.3153,-4.4255,-4.4918,-4.456,-4.3478,-4.2159,-4.0925,-3.9802,-3.927,-3.8522,-3.7769,0.0,0.0,0.0,0.0,0.0,0.0,0.0,-1.4752,-1.5291,-1.4763,-1.5131,-1.5949,-1.7255,-1.7365,-1.7961,-1.9557,-1.8228,-1.6807,-1.5629,-1.4429,-1.3576,-1.3198,-1.4347,-1.4729,-1.4174,-1.6155,-1.7348,-1.7675,-1.8848,-2.018,-2.16,-2.1571,-2.2085,-2.3051,-2.2637,-2.2687,-2.2979,-2.266,-2.1723,-2.0426,-1.9648,-1.8998,-1.8255,0.0,0.0,0.0,0.0,0.0,0.0,0.0,0.0,0.0,0.0,0.0,0.0,0.0,0.0,0.0,0.0,0.0,0.0,0.0,0.0,0.0,0.0,0.0,0.0,0.0,0.0,0.0,0.0,0.0,0.0,0.0,0.0,0.0,-2.9164,-3.1629,-3.3974,-3.5319,-3.7538,-3.8316,-3.6695,-3.909,-4.0756,-4.0845,-4.3124,-4.5001,-4.6272,-4.6897,-4.7086,-4.6818,-4.6846,-4.6686,-4.6449,-4.5862,-4.6155,-4.7247,-4.6102,-4.4942,-4.3797,-4.4013,-4.315,-4.1512,-4.2897,-4.3757,-4.4283,-4.5351,-4.6121,-4.6418,-4.4618,-4.3315,-4.2324,-4.0855,-3.9533,-3.8283,0.0,0.0,0.0,0.0,0.0,0.0,0.0,-1.4475,-1.4836,-1.4598,-1.5889,-1.6919,-1.7083,-1.7782,-1.8553,-1.9337,-1.8137,-1.7154,-1.6834,-1.5567,-1.5019,-1.5335,-1.6164,-1.7049,-1.7892,-1.8864,-1.9495,-1.9764,-2.012,-2.0634,-2.1331,-2.2253,-2.2567,-2.2441,-2.363,-2.387,-2.3504,-2.4654,-2.4887,-2.4222,-2.1703,-2.0215,-1.951,0.0,0.0,0.0,0.0,0.0,0.0,0.0,0.0,0.0,0.0,0.0,0.0,0.0,0.0,0.0,0.0,0.0,0.0,0.0,0.0,0.0,0.0,0.0,0.0,0.0,0.0,0.0,0.0,0.0,0.0,0.0,-3.1336,-3.32,-3.2842,-3.5008,-3.7459,-3.9606,-4.0878,-4.1697,-4.2105,-4.3216,-4.387,-4.387,-4.5354,-4.6429,-4.6784,-4.749,-4.7531,-4.6832,-4.7428,-4.7408,-4.6711,-4.7122,-4.7751,-4.8512,-4.7294,-4.6311,-4.5536,-4.4725,-4.3566,-4.2328,-4.3139,-4.3757,-4.4283,-4.5351,-4.6121,-4.6462,-4.5036,-4.4291,-4.3743,-4.1211,-3.9237,-3.7665,0.0,0.0,0.0,0.0,0.0,0.0,0.0,-1.3729,-1.4152,-1.3373,-1.5128,-1.6315,-1.6033,-1.6846,-1.7763,-1.8646,-1.7556,-1.6911,-1.708,-1.666,-1.642,-1.6495,-1.8036,-1.921,-1.9844,-2.0698,-2.1222,-2.1367,-2.1511,-2.1851,-2.2381,-2.3111,-2.35,-2.3666,-2.4675,-2.5074,-2.5032,-2.6074,-2.6705,-2.6845,-2.5021,-2.3624,-2.2487,-2.1667,-2.1011,-2.0575,-2.0863,-2.1157,-2.129,-2.0657,0.0,0.0,0.0,0.0,0.0,0.0,0.0,0.0,0.0,0.0,0.0,0.0,0.0,0.0,0.0,0.0,0.0,0.0,0.0,0.0,0.0,0.0,0.0,0.0,-3.5648,-3.7739,-3.8221,-3.8925,-4.0138,-4.2135,-4.2739,-4.3245,-4.3947,-4.4489,-4.4815,-4.4815,-4.5993,-4.6716,-4.6716,-4.7595,-4.7852,-4.7377,-4.7852,-4.7852,-4.7377,-4.7852,-4.8252,-4.8588,-4.7937,-4.7136,-4.6265,-4.5535,-4.4523,-4.3385,-4.3989,-4.4379,-4.4669,-4.5755,-4.6369,-4.6506,0.0,0.0,0.0,0.0,-3.9752,-3.8559,0.0,0.0,0.0,0.0,0.0,0.0,0.0,-1.289,-1.3372,-1.1883,-1.3567,-1.4762,-1.4357,-1.5071,-1.6096,-1.7376,-1.6532,-1.6205,-1.6753,-1.76,-1.7923,-1.7541,-2.0036,-2.1274,-2.0902,-2.1976,-2.2515,-2.2402,-2.2768,-2.3229,-2.3841,-2.3935,-2.4556,-2.5601,-2.5773,-2.6242,-2.6962,-2.722,-2.7804,-2.8604,-2.8852,-2.7879,-2.6125,-2.4511,-2.3963,-2.3916,-2.3197,-2.3269,-2.3548,-2.2415,0.0,0.0,0.0,0.0,0.0,0.0,0.0,0.0,0.0,0.0,0.0,0.0,0.0,0.0,0.0,0.0,0.0,0.0,0.0,0.0,0.0,0.0,0.0,0.0,-4.0124,-4.2425,-4.426,-4.3109,-4.2482,-4.3536,-4.3631,-4.3557,-4.3596,-4.4102,-4.4411,-4.4411,-4.5507,-4.6258,-4.6377,-4.7389,0.0,0.0,0.0,-4.812,-4.812,-4.812,-4.812,-4.812,-4.812,-4.7516,-4.6392,-4.6392,-4.5675,-4.4453,-4.5141,-4.527,-4.5158,-4.6336,-4.6735,-4.649,-4.5615,-4.5025,-4.4314,-4.1965,-4.0788,-4.0287,0.0,0.0,0.0,0.0,0.0,0.0,0.0,-1.3193,-1.304,-1.2336,-1.3213,-1.3555,-1.2673,-1.3551,-1.4388,-1.4864,-1.4622,-1.5093,-1.67,-1.8302,-1.9853,-2.1354,-2.2804,-2.3474,-2.3236,-2.3478,-2.3202,-2.2402,-2.2488,-2.2568,-2.273,-2.3969,-2.4683,-2.4971,-2.6576,-2.7339,-2.7458,-2.885,-2.9555,-2.9871,-3.0817,-2.949,-2.7009,-2.703,-2.6051,-2.469,-2.4517,-2.5269,-2.6045,-2.4463,-2.4789,-2.5564,-2.4027,-2.2053,0.0,0.0,0.0,0.0,0.0,0.0,0.0,0.0,0.0,0.0,0.0,0.0,0.0,0.0,0.0,0.0,0.0,0.0,0.0,-4.1569,-4.4328,-4.6453,-4.7485,-4.6858,-4.5916,-4.4895,-4.4359,-4.4138,-4.4232,-4.434,-4.4411,-4.4411,-4.5099,-4.591,-4.6837,-4.7214,-4.78,-4.8745,-4.8322,-4.812,-4.812,-4.812,-4.812,-4.812,-4.812,0.0,-4.7038,-4.7038,-4.6069,-4.4467,-4.5619,-4.5675,-4.5036,-4.6299,-4.6651,-4.6299,-4.5577,-4.4727,-4.3749,-4.2708,-4.1686,-4.0703,0.0,0.0,0.0,0.0,0.0,0.0,0.0,-1.2514,-1.2549,-1.1972,-1.2748,-1.3244,-1.293,-1.3338,-1.397,-1.4728,-1.5139,-1.6079,-1.78,-1.9524,-2.1256,-2.2976,-2.4026,-2.4462,-2.4263,-2.4319,-2.3995,-2.3298,-2.3298,-2.3298,-2.3309,-2.4098,-2.4708,-2.5249,-2.6447,-2.7714,-2.8945,-2.9681,-3.0649,-3.1704,-3.1816,-3.1,-2.9706,-2.926,-2.7794,-2.5985,-2.6291,-2.6694,-2.6924,-2.596,-2.6244,-2.6759,-2.5619,-2.4437,-2.328,0.0,0.0,0.0,0.0,0.0,0.0,0.0,0.0,0.0,0.0,0.0,0.0,0.0,0.0,-3.3051,-3.5675,0.0,-4.2069,-4.5146,-4.7107,-4.8357,-4.8798,-4.8569,-4.7637,-4.5742,-4.4985,-4.4576,-4.4302,-4.4368,-4.4411,-4.4411,-4.4987,-4.5783,-4.6952,-4.7381,-4.8105,-4.9262,-4.8795,-4.8509,-4.8509,-4.8221,-4.812,-4.812,-4.812,-4.7965,-4.7656,-4.7347,-4.6701,-4.583,-4.6153,-4.6135,-4.5925,-4.671,-4.677,-4.6204,-4.5559,-4.4777,-4.3901,-4.3248,-4.2496,-4.1767,0.0,0.0,0.0,0.0,0.0,0.0,0.0,0.0,-1.2124,-1.16,-1.2282,-1.2969,-1.3349,-1.3368,-1.3877,-1.5212,-1.6257,-1.7578,-1.9258,-2.0945,-2.2603,-2.4198,-2.4832,-2.5124,-2.5012,-2.4824,-2.4612,-2.4309,-2.4236,-2.42,-2.42,-2.4401,-2.4886,-2.572,-2.6403,-2.7973,-3.0116,-3.0318,-3.1561,-3.3363,-3.2659,-3.2456,-3.242,-3.1116,-2.9274,-2.7394,-2.7624,-2.7278,-2.6637,-2.6439,-2.6612,-2.6819,-2.646,-2.6232,-2.5758,-2.3836,-2.3506,0.0,0.0,0.0,0.0,0.0,0.0,0.0,0.0,-3.0002,-3.1309,-3.1902,-3.4038,-3.6808,-4.0166,-4.2498,-4.4942,-4.7999,-4.9062,-4.9546,-4.9575,-4.9454,-4.869,-4.6751,-4.5874,-4.5214,-4.462,-4.4564,-4.4551,-4.4551,-4.5049,-4.5974,-4.7223,-4.7736,-4.8562,-4.9815,-4.9242,-4.8895,-4.8895,-4.8373,-4.8064,-4.7951,-4.8064,-4.8064,-4.7937,-4.7558,-4.7319,-4.7164,-4.6532,-4.6472,-4.6826,-4.7081,-4.6834,-4.6204,-4.5559,-4.4885,-4.4242,-4.3544,-4.309,-4.2809,0.0,0.0,0.0,0.0,0.0,0.0,0.0,0.0,0.0,-1.2017,-1.1867,-1.189,-1.2238,-1.2586,-1.3391,-1.4906,-1.6504,-1.8353,-2.0533,-2.2317,-2.4272,-2.651,-2.6297,-2.625,-2.6447,-2.5186,-2.4611,-2.4718,-2.4381,-2.42,-2.4212,-2.5042,-2.5495,-2.5685,-2.7415,-2.8611,-2.9515,-3.1193,-3.2609,-3.3838,-3.3984,-3.3796,-3.333,-3.2245,-3.0521,-2.8536,-2.7473,-2.6258,-2.5132,-2.4903,-2.4979,-2.5507,-2.7881,-2.715,-2.5528,-2.599,-2.4898,-2.3723,-2.4571,-2.7055,-2.9816,-3.1549,-3.1351,-3.1911,0.0,-3.5976,-3.5037,-3.6724,-3.8898,-4.0953,-4.2556,-4.495,-4.7371,-4.9526,-5.0472,-5.0973,-5.0962,-5.0448,-4.9772,-4.885,-4.7502,-4.6403,-4.5931,-4.5358,-4.5032,-4.5032,-4.5456,-4.6507,-4.8223,-4.8013,-4.8639,-5.0361,-4.9453,-4.8895,-4.8895,-4.8373,-4.7853,-4.7319,-4.7867,-4.7839,-4.7333,-4.7811,-4.7726,-4.715,-4.6452,-4.6401,-4.678,-4.6726,-4.6517,-4.6204,-4.5559,-4.4885,-4.4242,-4.3544,-4.325,-4.321,0.0,0.0,0.0,0.0,0.0,0.0,0.0,0.0,0.0,0.0,-1.2191,-1.2442,-1.2974,-1.3916,-1.4919,-1.5912,-1.6632,-1.8026,-2.035,-2.1175,-2.2409,-2.4236,-2.4769,-2.4892,-2.4628,-2.4661,-2.459,-2.4454,-2.4538,-2.4418,-2.42,-2.4844,-2.5284,-2.5579,-2.6351,-2.7841,-2.9816,-3.0586,-3.185,-3.3316,-3.3216,-3.3103,-3.2847,-3.1812,-3.0178,-2.8279,-2.7176,-2.5844,0.0,-2.438,-2.4325,-2.4723,-2.6908,-2.6914,-2.6128,-2.6261,-2.6515,-2.727,-2.9553,-3.1203,-3.2746,-3.5001,-3.6662,-3.8168,-3.9646,-4.0424,-4.0909,-4.1188,-4.2462,-4.4065,-4.5782,-4.6988,-4.8387,-5.0413,-5.0989,-5.1296,-5.152,-5.0736,-4.9963,-4.9442,-4.8067,-4.6909,-4.6405,-4.6182,-4.5928,-4.552,-4.5702,-4.6455,-4.7892,-4.8106,-4.8715,-4.9755,-4.9835,-4.9655,-4.9262,-4.8808,-4.8432,-4.8162,-4.7778,-4.7459,-4.7207,-4.7108,-4.6715,-4.6083,-4.6371,-4.6253,-4.5849,-4.6256,-4.5981,-4.527,-4.4866,-4.4332,-4.3663,-4.3394,-4.329,-4.329,0.0,0.0,0.0,0.0,0.0,0.0,0.0,0.0,0.0,0.0,-1.2333,-1.2703,-1.3483,-1.4675,-1.574,-1.6468,-1.6697,-1.7593,-1.9443,-1.9803,-2.054,-2.1861,-2.2901,-2.3374,-2.3292,-2.3983,-2.4354,-2.4381,-2.4646,-2.4528,-2.3994,-2.4636,-2.5003,-2.5107,-2.5755,-2.7369,-2.9647,-3.0161,-3.1185,-3.2475,-3.2053,-3.1841,-3.1679,-3.0407,-2.8968,-2.7476,-2.6447,-2.4939,-2.3425,-2.3304,-2.3172,-2.343,-2.5467,-2.6022,-2.6003,-2.6483,-2.8216,-3.0447,-3.2632,-3.4355,-3.6079,-3.8372,-4.1243,-4.3363,-4.2761,-4.4155,-4.5469,-4.5065,-4.54,-4.6281,-4.7896,-4.8104,-4.8615,-5.0448,-5.0821,-5.1106,-5.1692,-5.0705,-4.9785,-4.9386,-4.8188,-4.7123,-4.641,-4.656,-4.6606,-4.6285,-4.6225,-4.6667,-4.7748,-4.8207,-4.8758,-4.9523,-5.0001,-4.9985,-4.9483,-4.9044,-4.8663,-4.8319,-4.751,-4.7052,-4.6883,-4.6469,-4.5942,-4.5324,-4.6081,-4.5987,-4.5341,-4.5901,-4.5719,-4.4992,-4.4678,-4.4058,-4.3354,-4.321,-4.3106,-4.306,0.0,0.0,0.0,0.0,0.0,0.0,0.0,0.0,0.0,0.0,0.0,0.0,0.0,-1.4001,-1.4958,-1.6026,-1.6703,-1.7345,-1.793,-1.8827,-1.9723,-2.0605,-2.1369,-2.2401,-2.3751,-2.3427,-2.3755,-2.479,-2.479,-2.4317,-2.3442,-2.4696,-2.4837,-2.413,-2.6427,-2.7828,-2.8549,-3.0316,-3.1241,-3.1484,-3.0818,-3.0358,-2.9874,-2.7958,-2.6908,-2.6289,-2.5171,-2.3149,-2.1026,-2.1067,-2.0927,-2.1195,-2.3977,-2.4443,-2.4523,-2.7178,-2.9921,-3.2118,-3.2055,-3.5758,-4.005,-4.1803,-4.3879,-4.5796,-4.6943,-4.7245,-4.7501,-4.8139,-4.7697,-4.7409,-4.8021,-4.7826,-4.8049,-4.9325,-4.9896,-5.0505,-5.1541,-5.0429,-4.9319,-4.8718,-4.7911,-4.701,-4.5992,-4.6269,-4.6786,-4.7387,-4.7336,-4.755,-4.8252,-4.8312,-4.8895,-5.0121,-4.9732,-4.9513,-4.9483,-4.8978,-4.8097,-4.6879,-4.6971,-4.6705,-4.6134,-4.6254,-4.5942,-4.5276,-4.5324,-4.5523,-4.5779,-4.5828,-4.5969,-4.6081,-4.5449,-4.4528,-4.3506,-4.2915,-4.257,-4.2425,0.0,0.0,0.0,0.0,0.0,0.0,0.0,0.0,0.0,0.0,0.0,0.0,0.0,0.0,0.0,0.0,-1.5386,-1.5959,-1.7027,-1.7066,-1.7247,-1.7739,-1.8609,-1.941,-2.0012,-2.09,-2.1696,-2.2424,-2.2643,-2.2463,-2.196,-2.2615,-2.2864,-2.2854,-2.4006,-2.5228,-2.656,-2.7934,-2.9185,-3.0147,-2.9009,-2.876,-2.879,-2.6312,-2.4997,-2.4341,0.0,-2.2424,-2.1613,-2.0715,-2.0676,-2.1193,-2.2282,-2.2965,-2.4022,-2.7401,-2.9844,-3.2293,-3.6336,-3.9863,-4.317,-4.6368,-4.8271,-4.9592,-5.0441,-5.0867,-5.0643,-4.9112,-4.8068,-4.7251,-4.6619,-4.6274,-4.6763,-4.884,-4.9694,-5.0653,-5.2248,-5.146,-5.0081,-4.8448,-4.823,-4.7561,-4.6005,-4.645,-4.7169,-4.7901,-4.7516,-4.7543,-4.8253,-4.8693,-4.8719,-4.8297,-4.9358,-4.9554,-4.8715,-4.8629,-4.8351,-4.7926,-4.6886,-4.6081,-4.542,-4.5181,-4.4931,-4.472,-4.5034,-4.5217,-4.5343,-4.5541,-4.5672,-4.5657,-4.4828,-4.4133,-4.3545,-4.2915,-4.218,-4.1601,0.0,0.0,0.0,0.0,0.0,0.0,0.0,0.0,0.0,0.0,0.0,0.0,0.0,0.0,0.0,0.0,0.0,-1.4823,-1.5815,-1.5797,-1.5802,-1.5881,-1.6937,-1.7687,-1.81,-1.9246,-2.0125,-2.0672,-2.0843,-2.0626,-2.0109,-2.0618,-2.0788,-2.0732,-2.1592,-2.2778,-2.4188,-2.488,-2.591,-2.7019,-2.6116,-2.5845,-2.583,-2.4213,-2.3281,0.0,-2.1903,-2.1778,-2.1808,-2.0636,-2.0738,-2.1412,-2.1786,-2.3438,-2.5757,-2.8379,-3.1056,-3.4359,-3.9812,-4.3055,-4.5783,-4.9458,-5.1015,-5.1746,-5.2053,-5.2014,-5.1262,-4.9057,-4.74,-4.5932,-4.458,-4.3674,-4.3967,-4.6645,-4.7455,-4.8763,-5.1697,-5.106,-4.9959,-4.9159,-4.8646,-4.7981,-4.6888,-4.6904,-4.7384,-4.8443,-4.8128,-4.8127,-4.8615,-4.8989,-4.8917,-4.8341,-4.9319,-4.9476,-4.8647,-4.8507,-4.8326,-4.8134,-4.709,-4.6214,-4.5446,-4.4894,-4.4551,-4.4411,-4.4894,-4.5216,-4.5374,-4.5473,-4.5585,-4.5627,-4.4467,-4.3741,-4.3254,-4.2511,-4.1773,-4.1276,0.0,0.0,0.0,0.0,0.0,0.0,0.0,0.0,0.0,0.0,0.0,0.0,0.0,0.0,0.0,0.0,0.0,0.0,-1.4296,-1.4952,-1.5241,-1.5073,-1.6207,-1.7171,-1.7939,-1.8483,-1.9,-1.951,-1.9415,-1.8873,-1.8004,-1.8782,-1.874,-1.8001,-1.9382,-2.0592,-2.1574,-2.1515,-2.1935,-2.2609,-2.2402,-2.1964,-2.1432,-2.1788,-2.1778,-2.1511,-2.1087,-2.1198,-2.1497,-2.0857,-2.1186,-2.2021,-2.2697,-2.5809,-2.9358,-3.0158,-3.3629,-3.8177,-4.2372,-4.5345,-4.7967,-5.1084,-5.2119,-5.2229,-5.1764,-5.0772,-4.9543,-4.7953,-4.5652,-4.3491,-4.1946,-4.0311,-4.0194,-4.3157,-4.3714,-4.5429,-5.0192,-4.9588,-4.9187,-5.0642,-4.9243,-4.8282,-4.8571,-4.767,-4.7648,-4.9114,-4.9221,-4.9222,-4.9253,-4.9284,-4.9597,-5.0123,-4.9554,-4.9215,-4.9145,-4.8602,-4.8053,-4.7603,-4.7561,-4.703,-4.6107,-4.5446,-4.4894,-4.4411,-4.4847,-4.5338,-4.5735,-4.5516,-4.5722,-4.5965,-4.4216,-4.3294,-4.2735,-4.1814,-4.1439,-4.1493,0.0,0.0,0.0,0.0,0.0,0.0,0.0,0.0,0.0,0.0,0.0,0.0,0.0,0.0,0.0,0.0,0.0,0.0,-1.3294,-1.3205,-1.3553,-1.4535,-1.4608,-1.5005,-1.5842,-1.6405,-1.6783,-1.7032,-1.7226,-1.71,-1.6614,-1.709,-1.7299,-1.7367,-1.827,-1.9145,-1.9983,-2.0786,-2.1918,-2.3083,-2.1845,-2.1867,-2.2508,-2.1335,-2.1052,-2.1293,-2.123,-2.1372,-2.1691,-2.2251,-2.4084,-2.6242,-2.686,-2.8818,-3.1278,-3.3308,-3.6477,-4.038,-4.5076,-4.8256,-5.0582,-5.2139,-5.2807,-5.2393,-4.9892,-4.887,-4.7564,-4.4384,-4.22,-4.0285,-3.8426,-3.8908,-4.0605,-4.381,-4.6178,-4.8803,-5.2286,-5.2454,-5.1832,-5.0926,-5.0592,-4.9985,-4.872,-4.902,-4.9653,-5.0569,-4.9726,-4.9354,-4.9915,-5.0454,-5.0364,-4.9478,-4.9761,-4.9493,-4.8531,-4.8377,-4.8481,-4.8749,-4.8388,-4.7658,-4.6594,-4.6078,-4.531,-4.4411,-4.4551,-4.4847,-4.5238,-4.4689,-4.4741,-4.5039,-4.3603,-4.2801,-4.243,-4.2193,-4.2096,-4.2267,0.0,0.0,0.0,0.0,0.0,0.0,0.0,0.0,0.0,0.0,0.0,0.0,0.0,0.0,0.0,0.0,0.0,0.0,0.0,-1.1931,-1.2244,-1.3496,-1.3346,-1.3663,-1.4594,-1.4918,-1.4925,-1.4606,-1.4946,-1.4811,-1.4276,-1.4775,-1.5038,-1.5118,-1.5846,-1.6627,-1.7443,-1.7984,-1.9141,0.0,0.0,-1.9922,-2.1042,-2.0326,-2.0542,-2.1214,-2.1277,-2.2344,-2.3918,-2.5237,-2.7309,-2.9587,-3.1189,-3.3161,-3.5406,-3.7824,-3.9936,-4.2554,-4.7372,-4.9732,-5.1072,-5.1901,-5.1888,-5.0723,-4.7133,-4.5487,-4.3625,-3.969,-3.7788,-3.6266,-3.4482,-3.5625,-3.7826,-4.0954,-4.3804,-4.6972,-5.0963,-5.1628,-5.1782,-5.1983,-5.1705,-5.1166,-5.029,-5.0134,-5.0536,-5.1556,-5.0639,-5.0314,-5.1041,-5.1186,-5.0902,-5.0081,-5.0159,-4.971,-4.8713,-4.9,-4.9309,-4.963,-4.9358,-4.88,-4.7939,-4.6885,-4.5944,-4.5127,-4.4847,-4.4862,-4.5024,-4.4298,-4.4192,-4.4273,-4.2816,-4.2114,-4.1953,-4.2252,-4.2238,-4.228,0.0,0.0,0.0,0.0,0.0,0.0,0.0,0.0,0.0,0.0,0.0,0.0,0.0,0.0,0.0,0.0,0.0,0.0,0.0,0.0,-1.118,-1.2268,-1.2341,-1.2825,-1.3791,-1.3888,-1.3561,-1.2743,-1.3125,-1.2891,-1.2118,-1.2816,-1.2989,-1.2732,-1.3398,-1.4178,-1.4989,-1.484,-1.5627,-1.7006,-1.6876,-1.7479,-1.8534,0.0,0.0,-2.1069,-2.1292,-2.3341,-2.6319,-2.8538,-3.0596,-3.2673,-3.5349,-3.7932,-4.0404,-4.2651,-4.3537,-4.4771,-4.9331,-5.0485,-5.0555,-5.1121,-5.0401,-4.8375,-4.4059,-4.1549,-3.8933,-3.4717,-3.311,-3.2043,-3.0634,-3.188,-3.4097,-3.7205,-3.975,-4.3166,-4.8409,-4.9347,-5.0441,-5.2977,-5.2397,-5.1908,-5.22,-5.1026,-5.0795,-5.209,-5.1653,-5.162,-5.23,-5.1685,-5.128,-5.1183,-5.0563,-4.9947,-4.9454,-4.9947,-5.0237,-5.0315,-5.0315,-5.0049,-4.9447,-4.777,-4.6666,-4.602,-4.5372,-4.5035,-4.491,-4.4179,-4.3849,-4.369,-4.2224,-4.1638,-4.1724,-4.2381,-4.2393,-4.2317,0.0,0.0,0.0,0.0,0.0,0.0,0.0,0.0,0.0,0.0,-0.9934,-0.9402,0.0,0.0,0.0,0.0,0.0,0.0,0.0,0.0,0.0,-1.1297,-1.1551,-1.2033,-1.284,-1.338,-1.3433,-1.2953,-1.3551,-1.3613,-1.3155,-1.3598,-1.3802,-1.3745,-1.3994,-1.439,-1.4957,-1.5467,-1.6015,-1.6654,-1.7232,-1.7539,-1.7824,-1.9025,0.0,0.0,-2.1357,-2.26,-2.4486,-2.9303,-3.3377,-3.6786,-3.8788,-4.1222,-4.3694,-4.5343,-4.6084,-4.716,-5.0929,-5.154,-5.1184,-5.155,-5.0323,-4.7589,-4.217,-3.9013,-3.5931,-3.1324,-2.9742,-2.8993,-2.8293,-3.0845,-3.4337,-3.8138,-4.0637,-4.3927,-4.9154,-4.9715,-5.0225,-5.19,-5.1872,-5.1765,-5.1786,-5.1299,-5.1329,-5.2139,-5.209,-5.2349,-5.3078,-5.2414,-5.1766,-5.1199,-5.0563,-5.0409,-5.0848,-5.0409,-5.0486,-5.1016,-5.1016,-5.0509,-4.9487,-4.8579,-4.7356,-4.5825,-4.532,-4.4793,-4.4248,-4.3763,-4.3556,-4.3531,-4.3136,-4.2982,-4.3054,-4.3638,-4.4075,-4.4397,0.0,0.0,0.0,0.0,0.0,0.0,0.0,-0.996,-0.9871,-1.0588,-0.9705,-0.9168,-0.9646,-0.9057,-0.8621,0.0,0.0,0.0,0.0,0.0,0.0,0.0,0.0,0.0,-1.1682,-1.1724,-1.1714,-1.1705,0.0,-1.2413,-1.2113,-1.2962,-1.3382,-1.3443,-1.3893,-1.4137,-1.4261,-1.4858,-1.5447,-1.601,-1.62,-1.6683,0.0,0.0,0.0,0.0,-2.1203,-2.2554,-2.4409,-2.793,-3.2119,-3.6488,-4.0186,-4.2755,-4.4634,-4.575,-4.6383,-4.7296,-5.008,-5.0957,-5.0961,-5.0671,-4.8926,-4.5735,-3.9984,-3.6238,-3.2684,-2.8137,-2.6921,-2.659,-2.6346,-2.908,-3.2269,-3.4908,-3.6996,-4.0189,-4.5821,-4.6307,-4.7233,-5.0291,-5.0925,-5.1136,-5.1188,-5.1201,-5.1637,-5.2705,-5.209,-5.1977,-5.2705,-5.2058,-5.1523,-5.1199,-5.0902,-5.0886,-5.1183,-5.0886,-5.0886,-5.1183,-5.1183,-5.0924,-5.0338,-4.9085,-4.8245,-4.7649,-4.6138,-4.5468,-4.5448,-4.4579,-4.424,-4.4169,-4.3804,-4.3647,-4.3719,-4.4353,-4.4539,-4.4581,0.0,0.0,0.0,0.0,0.0,0.0,0.0,-0.9969,-0.9718,-1.0434,-0.9908,-0.9468,-0.95,-0.8747,-0.8273,0.0,0.0,0.0,0.0,0.0,0.0,0.0,0.0,0.0,0.0,0.0,0.0,-1.0284,-1.0875,0.0,0.0,0.0,0.0,0.0,-1.3436,-1.3616,-1.3454,-1.4019,-1.4643,0.0,0.0,-1.593,0.0,0.0,0.0,0.0,0.0,-2.251,-2.4331,-2.6369,-2.9626,-3.3717,-3.8589,-4.1936,-4.4193,-4.4764,-4.5783,-4.7176,-4.9309,-5.0498,-5.0962,-5.0249,-4.7798,-4.4089,-3.8446,-3.4044,-2.9947,-2.5636,-2.4628,-2.4579,-2.4762,-2.7095,-2.963,-3.1666,-3.3106,-3.605,-4.2074,-4.2903,-4.4495,-4.882,-5.0099,-5.0694,-5.0893,-5.1104,-5.1653,-5.2786,-5.1831,-5.141,-5.1944,-5.1604,-5.1329,-5.1183,-5.1183,-5.1183,-5.1183,-5.1183,-5.1183,-5.1183,-5.1183,-5.1183,-5.1146,-4.9599,-4.9088,-4.9323,-4.71,-4.6388,-4.6676,-4.5566,-4.5082,-4.5039,-4.472,-4.4574,-4.4588,-4.4952,-4.4874,-4.4588,0.0,0.0,0.0,0.0,0.0,0.0,0.0,-1.1202,-1.1001,-1.1256,-1.1639,-1.1114,-0.9108,-0.8429,-0.8121,0.0,0.0,0.0,0.0,0.0,0.0,0.0,0.0,0.0,0.0,0.0,0.0,-0.9581,-1.037,0.0,0.0,0.0,0.0,0.0,0.0,-1.2832,-1.291,-1.3509,0.0,0.0,0.0,0.0,0.0,0.0,0.0,0.0,0.0,-2.1967,-2.2949,-2.5852,-2.7455,-2.8728,-3.1749,-3.7155,-4.2402,-4.2431,-4.4963,-4.8233,-5.0461,-5.1583,-5.2054,-5.1623,-4.8308,-4.3768,-3.8494,-3.3389,-2.8611,-2.4516,-2.3109,-2.2899,-2.3686,-2.5149,-2.7524,-3.1374,-3.2123,-3.4376,-4.0535,-4.2265,-4.4294,-4.8052,-4.9751,-5.0874,-5.1549,-5.1343,-5.1232,-5.1361,-5.1248,-5.1216,-5.128,-5.1799,-5.1815,-5.1199,-5.1183,-5.1183,-5.1183,-5.1183,-5.1183,-5.1183,-5.1183,-5.1183,-5.1183,-5.0409,-4.9771,-4.9161,-4.7878,-4.7074,-4.6551,-4.5962,-4.5705,-4.5735,-4.6197,-4.6373,-4.6329,-4.587,-4.5705,-4.5539,0.0,0.0,0.0,0.0,0.0,0.0,-1.0284,-1.0036,-0.984,-1.0051,-1.0265,-1.0165,-0.9577,-0.8349,-0.7538,-0.7499,0.0,0.0,0.0,0.0,0.0,0.0,0.0,0.0,0.0,0.0,-0.7805,-0.8836,-0.8916,0.0,0.0,0.0,0.0,0.0,0.0,-1.2282,-1.2678,-1.271,0.0,0.0,0.0,0.0,0.0,0.0,0.0,0.0,0.0,0.0,-2.2095,-2.3504,-2.4806,-2.5917,-2.6286,-3.0124,-3.5083,-3.8041,-4.0776,-4.371,-4.7762,-4.9891,-5.0833,-5.0274,-4.6799,-4.2164,-3.6878,-3.172,-2.7048,-2.3565,-2.2248,-2.2118,-2.3354,-2.4126,-2.5545,-2.8503,-2.8415,-2.9928,-3.5548,-3.6821,-3.9143,-4.447,-4.7007,-4.8887,-5.0287,-5.0888,-5.1183,-5.1183,-5.1556,-5.162,-5.1199,-5.1442,-5.129,-5.0618,-5.0978,-5.1016,-5.0602,-5.1016,-5.1183,-5.1183,-5.1183,-5.1183,-5.1183,-5.0525,-5.0288,-5.0316,-4.9072,-4.8594,-4.8702,-4.7713,-4.7321,-4.7292,-4.7121,-4.7033,-4.6902,-4.6106,-4.5792,-4.5656,0.0,0.0,0.0,0.0,0.0,-0.9963,-1.0179,-0.9676,-0.9289,-0.9395,-0.954,-0.9527,-0.9234,-0.8163,-0.7293,-0.6847,-0.6204,0.0,0.0,0.0,0.0,0.0,0.0,0.0,0.0,0.0,-0.6835,-0.7947,-0.7934,-0.8629,0.0,0.0,-1.0476,-1.1376,0.0,0.0,0.0,0.0,0.0,0.0,0.0,0.0,0.0,0.0,0.0,0.0,0.0,0.0,0.0,0.0,0.0,-2.3701,-2.2901,-2.4739,-2.8135,-3.2856,-3.6649,-4.0206,-4.4121,-4.7056,-4.8862,-4.8129,-4.4577,-4.0034,-3.5383,-3.0361,-2.5899,-2.2979,-2.1795,-2.1681,-2.2945,-2.3257,-2.4061,-2.6385,-2.6091,-2.7354,-3.2454,-3.3693,-3.6139,-4.1728,-4.4318,-4.6536,-4.8869,-5.0375,-5.1183,-5.1183,-5.1637,-5.1685,-5.1216,-5.1183,-5.0886,-5.0237,-5.064,-5.0563,-4.9908,-5.0354,-5.0695,-5.0886,-5.0886,-5.1016,-5.1183,-5.0695,-5.0771,-5.1146,-4.9986,-4.9749,-5.012,-4.8852,-4.8286,-4.8244,-4.7553,-4.7309,-4.7164,-4.6151,-4.5792,-4.5656,0.0,0.0,0.0,0.0,0.0,0.0,-1.1812,-1.0868,-1.0042,-0.9911,-1.0353,-0.9828,-0.758,-0.7784,-0.7552,-0.6233,-0.5796,0.0,0.0,0.0,0.0,0.0,0.0,0.0,0.0,0.0,-0.6624,-0.692,-0.7771,-0.8245,-0.8343,-0.9279,-0.9616,-0.9473,0.0,0.0,0.0,0.0,0.0,0.0,0.0,0.0,0.0,0.0,0.0,0.0,0.0,0.0,0.0,0.0,0.0,0.0,0.0,-2.203,-2.2874,-2.6976,-3.3335,-3.9174,-3.9961,-4.3233,-4.6234,-4.5429,-4.1744,-3.751,-3.4336,-2.9654,-2.5325,-2.2897,-2.1795,-2.152,-2.2264,-2.241,-2.3258,-2.5787,-2.6206,-2.7881,-3.2718,-3.4653,-3.6969,-4.0781,-4.2179,-4.4195,-4.7572,-4.9896,-5.1183,-5.1183,-5.1221,-5.1199,-5.1183,-5.1183,-5.0886,-5.0237,-5.0198,-4.9908,-4.9213,-4.9213,-4.9534,-5.0198,-5.0198,-5.0563,-5.1183,-5.1183,-5.1183,-5.1146,-5.0486,-5.0198,-5.012,-4.8852,-4.8286,-4.8244,-4.7553,-4.7309,-4.7164,-4.6151,-4.5792,-4.5656,0.0,0.0,0.0,0.0,0.0,0.0,0.0,-1.0597,-1.0115,-0.9807,-1.015,-1.0109,-0.9228,-0.8281,-0.7548,-0.7212,-0.596,0.0,0.0,0.0,0.0,0.0,0.0,0.0,0.0,0.0,-0.6406,-0.7175,-0.7174,-0.8031,-0.9643,-0.8848,-0.9069,-1.0125,-0.962,-1.0173,0.0,0.0,0.0,0.0,0.0,0.0,0.0,0.0,0.0,0.0,0.0,0.0,0.0,0.0,0.0,0.0,0.0,0.0,0.0,-2.3248,-2.7312,-3.2067,-3.5385,-3.7332,-3.8434,-3.8219,-3.5671,-3.2471,-2.9549,-2.6499,-2.3777,-2.2021,-2.1455,-2.152,-2.2264,-2.2394,-2.3319,-2.6096,-2.6768,-2.817,-3.1666,-3.4617,-3.7787,-4.1508,-4.5849,-4.907,-5.0448,-5.0945,-5.1183,-5.1183,-5.1183,-5.1183,-5.1183,-5.1183,-5.0886,-5.0237,-5.064,-5.0563,-4.9908,-5.0315,-5.0679,-5.0886,-5.0886,-5.0978,-5.1183,-5.1183,-5.1183,-5.1183,-5.0978,-5.0886,-5.0778,-4.9402,-4.8887,-4.8769,-4.7149,-4.6852,-4.7163,-4.6078,-4.5933,-4.6225,0.0,0.0,0.0,0.0,0.0,0.0,0.0,-1.0552,-1.0136,-0.9751,-0.9783,-0.9704,-0.9327,-0.84,-0.7654,-0.728,-0.6151,0.0,0.0,0.0,0.0,0.0,0.0,0.0,0.0,-0.599,-0.6402,-0.7031,-0.699,-0.7732,-0.9162,-0.8451,-0.8622,-0.9506,-0.9254,-0.985,0.0,0.0,0.0,0.0,0.0,0.0,-1.747,0.0,0.0,0.0,0.0,0.0,0.0,0.0,0.0,0.0,0.0,0.0,0.0,0.0,-2.3204,-2.6034,-3.0374,-3.2399,-3.3311,-3.3339,-3.1347,-2.8858,-2.6812,-2.4666,-2.275,-2.1552,-2.1293,-2.1439,-2.1908,-2.2216,-2.3108,-2.5222,-2.6248,-2.7942,-3.1287,-3.4572,-3.8276,-4.2607,-4.7291,-5.0167,-5.0272,-5.0994,-5.1371,-5.1221,-5.1183,-5.1183,-5.1183,-5.1183,-5.1016,-5.0602,-5.0733,-5.0486,-4.9829,-5.0237,-5.0563,-5.081,-5.081,-5.0795,-5.0778,-5.1054,-5.0892,-5.039,-5.0957,-5.1021,0.0,-4.9569,-4.9117,-4.8984,-4.725,-4.6867,-4.7147,-4.631,-4.6241,-4.6491,0.0,0.0,0.0,0.0,0.0,0.0,0.0,-1.0651,-1.0092,-0.9765,-0.9398,-0.888,-0.8189,-0.824,-0.784,-0.6615,0.0,0.0,0.0,0.0,0.0,0.0,0.0,0.0,0.0,-0.6302,-0.6607,-0.6687,-0.7222,-0.7487,-0.7525,-0.8259,-0.8398,-0.8086,-0.9192,-0.9886,0.0,0.0,0.0,0.0,0.0,0.0,0.0,0.0,0.0,0.0,0.0,0.0,0.0,0.0,0.0,0.0,0.0,0.0,0.0,0.0,0.0,0.0,0.0,-2.815,-3.0106,-3.0152,-2.8282,-2.6283,-2.5628,-2.3842,0.0,-2.1439,-2.1293,-2.1342,-2.1503,-2.2054,-2.2832,-2.3962,-2.5357,-2.7676,-3.1721,-3.5165,-3.9166,-4.4288,-4.7241,-4.8629,-4.8002,-5.0285,-5.1631,-5.1221,-5.1183,-5.1183,-5.1183,-5.1183,-5.1183,-5.1183,-5.0554,-4.9868,-4.9256,-4.9256,-4.9591,-5.0197,-5.0149,-5.0099,-5.0115,-5.0746,-5.0293,-4.9058,-5.0438,-5.0649,-4.9981,-4.9287,-4.9022,-4.89,-4.7611,-4.7145,-4.7148,-4.6721,-4.6594,-4.6594,0.0,0.0,0.0,0.0,0.0,0.0,0.0,0.0,0.0,0.0,-0.9792,-0.9267,-0.8284,-0.8428,-0.8075,0.0,0.0,0.0,0.0,0.0,0.0,0.0,0.0,0.0,0.0,-0.6398,-0.6742,-0.7516,-0.8063,-0.8753,-0.9592,-0.9681,-0.956,-0.9293,-0.9422,-0.9876,-1.0722,0.0,0.0,0.0,0.0,0.0,0.0,0.0,0.0,0.0,-1.6857,-1.6877,0.0,0.0,0.0,0.0,0.0,0.0,0.0,0.0,-1.9802,-1.9878,-2.1817,0.0,-2.3343,-2.3799,-2.2913,-2.2003,0.0,-2.194,-2.1503,-2.1342,-2.1293,-2.1795,-2.3446,-2.348,-2.4389,-2.7883,-2.9335,-3.121,-3.4595,-4.1248,-4.6533,-4.856,-5.1438,-5.2303,-4.9799,-5.0886,-5.1598,-5.1221,-5.1183,-5.1183,-5.1183,-5.1183,-5.1183,-5.1183,-5.0483,-5.0043,-4.9876,-4.9876,-4.9952,-5.0118,-4.9554,-4.9579,-5.0098,-4.971,-4.9354,-4.901,-4.9386,-4.9434,-4.9204,-4.8526,-4.8279,-4.8209,-4.688,-4.6689,-4.7128,-4.6571,-4.6703,-4.7077,0.0,0.0,0.0,0.0,0.0,0.0,0.0,0.0,0.0,0.0,0.0,0.0,0.0,0.0,0.0,0.0,0.0,0.0,0.0,0.0,0.0,0.0,0.0,0.0,-0.6959,-0.6713,-0.6992,-0.7836,-0.817,-0.8914,-1.0026,-1.0132,-1.0155,-1.0041,-0.9639,-0.9836,-1.0552,-1.1879,-1.3006,-1.3924,-1.3856,0.0,0.0,0.0,0.0,0.0,-1.6323,-1.6278,0.0,-1.6712,-1.6832,-1.6937,0.0,0.0,0.0,0.0,-1.8931,-1.9092,-1.9909,-2.0788,-2.1613,-2.235,-2.2041,-2.1634,-2.1966,-2.1662,-2.1293,-2.1293,-2.1293,-2.1811,-2.3462,-2.3971,-2.5221,-2.8587,-3.0338,-3.2883,-3.74,-4.326,-4.7929,-5.0199,-5.2211,-5.2905,-5.1613,-5.1792,-5.1765,-5.1258,-5.1183,-5.1183,-5.1183,-5.1183,-5.1183,-5.1183,-5.0471,-5.0098,-5.0098,-4.9775,-4.9613,-4.9596,-4.9172,-4.9062,-4.9143,-4.9026,-4.8673,-4.8074,-4.8738,-4.8816,-4.8492,-4.8155,-4.8006,-4.8002,-4.7277,-4.7091,-4.7123,-4.6909,-4.7051,-4.7222,0.0,0.0,0.0,0.0,0.0,0.0,0.0,0.0,0.0,0.0,0.0,0.0,0.0,0.0,0.0,0.0,0.0,0.0,0.0,0.0,0.0,0.0,0.0,-0.6555,-0.7395,-0.7323,-0.7513,-0.7975,-0.8447,-0.9133,-1.0016,-1.0475,-1.0613,-1.0443,-0.9687,-0.961,-1.0078,-1.0529,-1.1918,-1.3757,-1.2882,0.0,0.0,0.0,0.0,0.0,0.0,0.0,0.0,-1.5799,-1.5799,-1.5904,-1.6502,0.0,0.0,0.0,0.0,0.0,-1.8963,-2.0529,-2.2166,-2.2803,-2.281,-2.2696,-2.2732,-2.2084,-2.1488,-2.1553,-2.1682,-2.2149,-2.3335,-2.4638,-2.6246,-2.8408,-3.095,-3.4755,-4.0735,-4.4321,-4.7472,-5.0592,-5.1778,-5.2367,-5.2455,-5.2291,-5.1836,-5.1096,-5.1021,-5.107,-5.1183,-5.1183,-5.1097,-5.0892,-5.0272,-4.9851,-4.9648,-4.9103,-4.8832,-4.8832,-4.8719,-4.8463,-4.8026,-4.8479,-4.8042,-4.6957,-4.8171,-4.8382,-4.7831,-4.7831,-4.7831,-4.7842,-4.8015,-4.7653,-4.6967,-4.7262,-4.7214,-4.7001,0.0,0.0,0.0,0.0,0.0,0.0,0.0,0.0,0.0,0.0,0.0,0.0,0.0,0.0,0.0,0.0,0.0,0.0,0.0,0.0,0.0,0.0,-0.7937,-0.7575,-0.7877,-0.8692,-0.8848,-0.8316,-1.0656,-1.1665,-1.1408,-1.2089,-1.1681,-1.0282,-0.9212,-0.8958,-0.9436,-1.0723,-1.1436,-1.1694,-1.1817,0.0,0.0,0.0,0.0,0.0,0.0,0.0,0.0,-1.5799,-1.5799,-1.5904,-1.6502,0.0,0.0,0.0,0.0,0.0,-1.8662,-2.037,-2.1546,-2.1068,-2.1338,-2.1775,-2.1985,-2.2148,-2.2344,-2.2665,-2.3417,-2.4519,-2.622,-2.7591,-2.9068,-3.0939,-3.5577,-4.0794,-4.6162,-4.9552,-5.1383,-5.1176,-5.3331,-5.3476,-4.9976,-5.0753,-5.1111,-5.035,-5.0276,-5.0536,-5.1151,-5.1183,-5.0666,-4.9531,-4.9291,-4.8631,-4.7568,-4.7938,-4.8171,-4.8155,-4.7524,-4.7491,-4.7993,-4.7459,-4.7087,-4.6892,-4.7119,-4.7151,-4.7054,-4.7054,-4.7054,-4.7149,-4.7823,-4.7338,-4.6299,-4.662,-4.6354,-4.5944,0.0,0.0,0.0,0.0,0.0,0.0,0.0,0.0,0.0,0.0,0.0,0.0,0.0,0.0,0.0,0.0,0.0,0.0,0.0,0.0,0.0,-0.9544,-0.951,-0.942,-0.9252,-0.998,-1.0309,-1.0184,-1.1694,-1.2405,-1.2357,-1.2206,-1.1361,-0.9884,-0.9217,-0.8769,-0.8565,-0.949,-1.0282,-1.0957,0.0,0.0,0.0,0.0,0.0,0.0,0.0,0.0,0.0,0.0,-1.5799,-1.5858,-1.6129,0.0,0.0,0.0,0.0,0.0,-1.7602,-1.9235,-2.0827,-2.0572,-2.2195,-2.378,-2.3389,-2.3843,-2.4406,-2.4627,-2.5341,-2.6325,-2.7715,-2.932,-3.1514,-3.4733,-3.9027,-4.275,-4.5163,-4.8136,-5.0068,-5.0091,-5.1743,-5.2206,-5.0453,-5.0492,-5.0426,-4.9877,-4.9998,-5.0066,-5.0017,-5.039,-5.0,-4.8716,-4.8546,-4.7999,-4.7087,-4.7291,-4.741,-4.7394,-4.7054,-4.707,-4.7394,-4.7038,-4.6876,-4.6876,-4.6876,-4.6876,-4.6876,-4.6876,-4.6876,-4.6989,-4.7738,-4.7241,-4.6058,-4.5679,-4.5426,-4.5318,0.0,0.0,0.0,0.0,0.0,0.0,0.0,0.0,0.0,0.0,0.0,0.0,0.0,0.0,0.0,0.0,0.0,0.0,0.0,0.0,-0.9797,-1.0286,-1.1363,-1.1498,-1.0524,-1.1164,-1.1588,-1.1778,-1.267,-1.3042,-1.2929,-1.1922,-1.0735,-0.9401,-0.9036,-0.8603,-0.8165,-0.8596,-0.9519,-1.0694,0.0,0.0,0.0,0.0,0.0,0.0,0.0,0.0,0.0,0.0,0.0,0.0,0.0,0.0,0.0,-1.6084,-1.6814,-1.7785,-1.7082,-1.8555,-2.0366,-2.0688,-2.2949,-2.5085,-2.5181,-2.5719,-2.6388,-2.7051,-2.7911,-2.8635,-2.8885,-3.0634,-3.3497,-3.7971,-4.1156,-4.3315,-4.4012,-4.6404,-4.8392,-4.9232,-5.0167,-5.0672,-5.0608,-5.0142,-4.9619,-4.9022,-4.9212,-4.9272,-4.901,-4.9402,-4.9074,-4.7759,-4.775,-4.7417,-4.665,-4.668,-4.6869,-4.7151,-4.7151,-4.7151,-4.7151,-4.7151,-4.7054,-4.6876,-4.6876,-4.6876,-4.6876,-4.6876,-4.6876,-4.6957,-4.7561,-4.694,-4.5634,-4.4664,-4.4455,-4.4719,0.0,0.0,0.0,0.0,0.0,0.0,0.0,0.0,0.0,0.0,0.0,0.0,0.0,0.0,0.0,0.0,0.0,0.0,0.0,0.0,-1.1224,-1.1823,-1.375,-1.3654,-1.1201,-1.2154,-1.2445,-1.198,-1.4139,-1.4461,-1.3075,-1.1687,-1.026,-0.8818,-0.8189,-0.8246,-0.8848,-0.9193,-0.9802,-1.058,-1.1303,0.0,0.0,0.0,0.0,0.0,0.0,0.0,0.0,0.0,0.0,0.0,0.0,0.0,-1.5918,-1.5829,-1.6143,-1.6801,-1.8013,-1.9302,-2.0512,-2.1313,-2.2085,-2.3479,-2.6582,-2.7052,-2.7529,-2.9976,-3.1734,-3.2259,-3.0245,-3.1796,-3.486,-3.9421,-4.1469,-4.3423,-4.6176,-4.7754,-4.8936,-4.9651,-5.0309,-5.0074,-4.8396,-4.8796,-4.8577,-4.719,-4.7209,-4.781,-4.8961,-4.8567,-4.7743,-4.6401,-4.6898,-4.655,-4.5262,-4.5801,-4.6673,-4.7929,-4.7929,-4.7929,-4.7929,-4.7929,-4.7556,-4.6876,-4.6876,-4.6876,-4.6876,-4.6876,-4.6876,-4.6923,-4.7121,-4.6146,-4.4574,-4.351,-4.3456,-4.4052,0.0,0.0,0.0,0.0,0.0,0.0,0.0,0.0,0.0,0.0,0.0,0.0,0.0,0.0,0.0,0.0,0.0,0.0,0.0,0.0,-1.2269,-1.2661,-1.4352,-1.4853,-1.3963,-1.4337,-1.4305,-1.379,-1.4254,-1.4002,-1.3059,-1.1621,-1.0434,-0.9524,-0.9201,-0.9062,-0.9103,-0.9443,-1.0077,-1.0897,-1.11,-1.1206,0.0,0.0,0.0,0.0,0.0,0.0,0.0,0.0,-1.5624,-1.5799,-1.5799,-1.6069,-1.6278,-1.5904,-1.6301,-1.6989,-1.7688,-1.929,-2.0876,-2.146,-2.2655,-2.4366,-2.6872,-2.857,-3.0235,-3.2305,-3.3897,-3.4566,-3.3383,-3.4475,-3.6382,-3.8919,-4.1482,-4.3739,-4.5218,-4.6689,-4.7642,-4.7742,-4.8192,-4.8216,-4.7388,-4.7391,-4.7357,-4.7236,-4.6718,-4.6618,-4.7121,-4.7025,-4.6347,-4.5002,-4.5515,-4.5205,-4.4,-4.4476,-4.5266,-4.6269,-4.661,-4.6753,-4.6753,-4.6378,-4.6255,-4.6337,-4.6337,-4.6547,-4.6876,-4.6876,-4.6687,-4.6282,-4.5577,-4.4918,-4.4222,-4.319,-4.3261,-4.3964,0.0,0.0,0.0,0.0,0.0,0.0,0.0,0.0,0.0,0.0,0.0,0.0,0.0,0.0,0.0,0.0,0.0,0.0,-0.8954,-1.1506,-1.3145,-1.3401,-1.5238,-1.6195,-1.608,-1.6154,-1.5846,-1.509,-1.4409,-1.3717,-1.3034,-1.1554,-1.0545,-0.9952,-0.9774,-0.9677,-0.9664,-1.0045,-1.0665,-1.1413,-1.1325,-1.1294,0.0,0.0,0.0,0.0,0.0,0.0,0.0,0.0,-1.5551,-1.5741,-1.5841,-1.6128,-1.6353,-1.6006,-1.6359,-1.702,-1.7657,-1.91,-2.0636,-2.1486,-2.3007,-2.5021,-2.7731,-2.9853,-3.2013,-3.4623,-3.5313,-3.5477,-3.5566,-3.5932,-3.6702,-3.8297,-4.0787,-4.2787,-4.3429,-4.468,-4.5369,-4.489,-4.5594,-4.5876,-4.5293,-4.5619,-4.5972,-4.6299,-4.5959,-4.5877,-4.625,-4.6002,-4.5503,-4.4774,-4.4701,-4.4303,-4.3556,-4.3874,-4.4323,-4.4872,-4.5238,-4.5662,-4.6065,-4.5426,-4.5332,-4.5697,-4.5697,-4.5965,-4.6321,-4.6321,-4.6001,-4.5369,-4.451,-4.4066,-4.381,-4.2996,-4.3175,-4.3888,0.0,0.0,0.0,0.0,0.0,0.0,0.0,0.0,0.0,0.0,0.0,0.0,0.0,0.0,0.0,0.0,0.0,0.0,-1.0355,-1.2468,-1.3823,-1.4105,-1.6675,-1.7781,-1.7125,-1.7379,-1.6847,-1.5506,-1.4761,-1.3918,-1.2961,-1.151,-1.0495,-0.99,-0.9648,-0.9918,-1.0632,-1.1103,-1.1606,-1.2099,-1.2099,-1.2068,-1.1993,0.0,0.0,0.0,0.0,0.0,0.0,0.0,-1.5388,-1.5566,-1.5969,-1.5955,-1.5842,-1.6039,-1.6234,-1.6708,-1.8107,-1.8856,-1.9664,-2.1467,-2.2932,-2.5084,-2.9414,-3.0823,-3.2494,-3.6968,-3.6103,-3.4925,-3.6333,-3.5666,-3.5619,-3.7804,-3.9247,-4.0307,-4.0986,-4.1956,-4.2236,-4.1296,-4.2641,-4.3113,-4.1719,-4.3477,-4.4478,-4.4047,-4.4656,-4.5608,-4.6807,-4.568,-4.5301,-4.5969,-4.4614,-4.394,-4.4101,-4.4096,-4.406,-4.4081,-4.4134,-4.4902,-4.6146,-4.546,-4.5147,-4.5095,-4.511,-4.511,-4.511,-4.511,-4.4737,-4.4182,-4.4182,-4.381,-4.325,-4.285,-4.3101,-4.3708,0.0,0.0,0.0,0.0,0.0,0.0,0.0,0.0,0.0,0.0,0.0,0.0,0.0,0.0,0.0,0.0,0.0,0.0,-1.0438,-1.2713,-1.4285,-1.4783,-1.7099,-1.8238,-1.7956,-1.7704,-1.6901,-1.5577,-1.4739,-1.3961,-1.318,-1.1943,-1.1084,-1.0606,-1.0875,-1.0993,-1.1056,-1.1611,-1.1939,-1.2115,-1.2258,-1.1826,-1.1227,0.0,0.0,0.0,0.0,0.0,0.0,0.0,0.0,0.0,-1.5969,-1.5955,-1.5842,-1.6039,-1.6346,-1.6849,-1.793,-1.9562,-2.1189,-2.2102,-2.4595,-2.7601,-3.0458,-3.1586,-3.3024,-3.6482,-3.6415,-3.5498,-3.4818,-3.5316,-3.5952,-3.6322,-3.7902,-3.9276,-3.9909,-3.9944,-3.9957,-4.0081,-4.0684,-4.096,-4.0585,-4.1827,-4.2891,-4.3418,-4.3206,-4.3805,-4.5541,-4.4413,-4.4002,-4.4626,-4.3643,-4.3229,-4.3395,-4.286,-4.2683,-4.2838,-4.2402,-4.2895,-4.4156,-4.396,-4.3861,-4.3879,-4.4288,-4.4699,-4.5073,-4.4624,-4.4358,-4.4143,-4.3732,-4.3448,-4.3305,-4.317,-4.3627,-4.4396,0.0,0.0,0.0,0.0,0.0,0.0,0.0,0.0,0.0,0.0,0.0,0.0,0.0,0.0,0.0,0.0,0.0,0.0,0.0,-1.3317,-1.4867,-1.5479,-1.739,-1.8415,-1.8343,-1.7984,-1.7332,-1.6386,-1.5272,-1.4495,-1.4027,-1.2615,-1.1947,-1.1927,-1.1786,-1.1726,-1.1752,-1.2215,-1.2608,-1.2871,-1.253,-1.2124,-1.1761,0.0,0.0,0.0,0.0,0.0,0.0,0.0,0.0,0.0,-1.5854,-1.5955,-1.5926,-1.6053,-1.6329,-1.6802,-1.7823,-1.9496,-2.1322,-2.274,-2.5502,-2.8653,-3.1694,-3.3673,-3.5328,-3.6951,-3.6708,-3.5897,-3.4892,-3.5112,-3.5522,-3.5791,-3.6942,-3.8002,-3.8505,-3.8626,-3.8624,-3.8451,-3.9105,-3.9479,-3.9246,-4.0571,-4.1689,-4.2294,-4.268,-4.3406,-4.4593,-4.3854,-4.369,-4.4361,-4.3032,-4.2567,-4.3006,-4.2044,-4.1786,-4.227,-4.1965,-4.2197,-4.2933,-4.2647,-4.267,-4.2978,-4.3576,-4.4028,-4.4373,-4.4004,-4.3849,-4.381,-4.3433,-4.329,-4.329,-4.329,-4.3622,-4.4217,0.0,0.0,0.0,0.0,0.0,0.0,0.0,0.0,0.0,0.0,0.0,0.0,0.0,0.0,0.0,0.0,0.0,0.0,0.0,0.0,-1.5471,-1.609,-1.7607,-1.8434,-1.8424,-1.8225,-1.8008,-1.7766,-1.6253,-1.5459,-1.5308,-1.3557,-1.3074,-1.3582,-1.2564,-1.2281,-1.2567,-1.2843,-1.333,-1.3876,-1.2952,-1.2768,-1.296,-1.219,0.0,0.0,0.0,0.0,0.0,0.0,0.0,0.0,-1.5682,-1.594,-1.6095,-1.6123,-1.6308,-1.6728,-1.7838,-1.9092,-2.0732,-2.3395,-2.598,-2.8955,-3.299,-3.6195,-3.8206,-3.7795,-3.6924,-3.6157,-3.587,-3.5078,-3.4854,-3.5946,-3.6417,-3.6739,-3.7047,-3.7789,-3.7921,-3.6878,-3.8015,-3.87,-3.8169,-3.9746,-4.0886,-4.1026,-4.2658,-4.3738,-4.3984,-4.3764,-4.3945,-4.4674,-4.2698,-4.1994,-4.2789,-4.1494,-4.1225,-4.205,-4.2153,-4.2186,-4.2111,-4.1707,-4.1826,-4.2425,-4.2985,-4.3245,-4.329,-4.329,-4.329,-4.329,-4.329,-4.329,-4.3305,-4.3364,-4.3379,-4.3559,0.0,0.0,0.0,0.0,0.0,0.0,0.0,0.0,0.0,0.0,0.0,0.0,0.0,0.0,0.0,0.0,0.0,0.0,0.0,0.0,-1.5567,-1.6232,-1.7837,-1.8688,-1.8632,-1.84,-1.8527,-1.9078,-1.7298,-1.6425,-1.6441,-1.5308,-1.4712,-1.4576,-1.4032,-1.3483,-1.3,-1.3319,-1.3183,-1.2835,-1.3642,-1.3166,-1.2102,-1.3614,-1.3646,0.0,0.0,0.0,0.0,0.0,0.0,0.0,-1.5682,-1.594,-1.6123,-1.6289,-1.6744,-1.7365,-1.8189,-1.9941,-2.2017,-2.3982,-2.7689,-3.1415,-3.3455,-3.5133,-3.6267,-3.631,-3.6565,-3.643,-3.5329,-3.5655,-3.5982,-3.5572,-3.6301,-3.6816,-3.646,-3.6759,-3.7216,-3.7715,-3.8576,-3.9232,-3.9523,-4.0032,-4.0626,-4.1347,-4.1476,-4.2236,-4.3852,-4.3333,-4.3262,-4.3913,-4.2407,-4.1753,-4.2107,-4.0836,-4.038,-4.0694,-4.0781,-4.0546,-4.0098,-4.1542,-4.2261,-4.241,-4.2545,-4.2865,-4.329,-4.329,-4.329,-4.329,-4.329,-4.329,-4.3349,-4.3873,-4.4067,-4.4212,0.0,0.0,0.0,0.0,0.0,0.0,0.0,0.0,0.0,0.0,0.0,0.0,0.0,0.0,0.0,0.0,0.0,0.0,0.0,0.0,0.0,-1.687,-1.7859,-1.8418,-1.8508,-1.8499,-1.8848,-1.9591,-1.8704,-1.8432,-1.8694,-1.7456,-1.6831,-1.6668,-1.5459,-1.4618,-1.4096,-1.3877,-1.3689,-1.3598,-1.4032,-1.3878,-1.3476,-1.4337,-1.4467,-1.4286,-1.4659,0.0,0.0,0.0,0.0,0.0,0.0,0.0,-1.6679,-1.6242,-1.6809,-1.7647,-1.789,-1.9452,-2.1717,-2.4755,-2.8151,-3.1179,-3.2767,-3.3756,-3.4455,-3.4986,-3.5542,-3.5581,-3.4439,-3.4724,-3.5061,-3.4788,-3.5371,-3.5902,-3.6052,-3.6749,-3.7587,-3.8529,-3.9496,-4.0219,-4.0678,-4.105,-4.1332,-4.1342,-4.1725,-4.2219,-4.2868,-4.278,-4.2703,-4.2699,-4.1398,-4.0919,-4.1242,-3.9531,-3.9148,-4.0168,-4.0,-3.9918,-3.9933,-4.128,-4.1931,-4.1946,-4.2261,-4.259,-4.2865,-4.2865,-4.3045,-4.329,-4.329,-4.329,-4.3334,-4.3678,-4.3798,-4.3943,0.0,0.0,0.0,0.0,0.0,0.0,0.0,0.0,0.0,0.0,0.0,0.0,0.0,0.0,0.0,0.0,0.0,0.0,0.0,0.0,0.0,-1.7514,-1.7777,-1.7928,-1.7993,-1.8419,-1.8942,-1.958,-1.9995,-2.0527,-2.1118,-1.9621,-1.8961,-1.8947,-1.7049,-1.5997,-1.5613,-1.4933,-1.4795,-1.5005,-1.4569,-1.4784,-1.5291,-1.479,-1.5055,-1.5676,-1.53,-1.5469,-1.5785,-1.5356,0.0,0.0,0.0,0.0,-1.7228,-1.6193,-1.6702,-1.7593,-1.7536,-1.8866,-2.1209,-2.516,-2.767,-2.961,-3.1228,-3.2183,-3.2858,-3.3389,-3.4357,-3.4744,-3.3683,-3.3758,-3.403,-3.4103,-3.4562,-3.5141,-3.567,-3.6938,-3.8103,-3.8832,-3.9972,-4.0943,-4.1591,-4.1951,-4.1972,-4.1529,-4.2146,-4.2302,-4.1725,-4.2043,-4.1989,-4.1489,-4.0254,-3.9791,-4.0183,-3.8091,-3.7875,-3.9518,-3.9193,-3.9424,-4.0068,-4.0621,-4.0995,-4.125,-4.1826,-4.2126,-4.2246,-4.2351,-4.2671,-4.3125,-4.3245,-4.329,-4.3305,-4.3424,-4.3394,-4.3394,0.0,0.0,0.0,0.0,0.0,0.0,0.0,0.0,0.0,0.0,0.0,0.0,0.0,0.0,0.0,0.0,0.0,0.0,-1.4644,0.0,0.0,-1.741,-1.7726,-1.7556,-1.6833,-1.7827,-1.8593,-1.9099,-2.0397,-2.154,-2.2506,-2.126,-2.0551,-2.0289,-1.9154,-1.8233,-1.7524,-1.7306,-1.674,-1.6016,-1.599,-1.5789,-1.5469,-1.5366,-1.5395,-1.5571,-1.6346,-1.6019,-1.5315,-1.5932,-1.6237,0.0,0.0,0.0,-1.704,-1.6475,-1.6564,-1.7021,-1.7805,-1.9806,-2.2225,-2.4267,-2.6157,-2.774,-2.8556,-3.0407,-3.1711,-3.0887,-3.3413,-3.5301,-3.3773,-3.4637,-3.527,-3.4269,-3.5365,-3.6068,-3.5309,-3.629,-3.7249,-3.781,-3.8808,-4.017,-4.2026,-4.1281,-4.1261,-4.2632,-4.1255,-4.0603,-4.1257,-4.0958,-4.0833,-4.0912,-3.956,-3.8876,-3.8936,-3.7204,-3.6747,-3.7577,-3.7632,-3.8018,-3.8661,-3.8751,-3.9424,-4.0531,-4.0621,-4.0995,-4.1587,-4.2171,-4.2455,-4.259,-4.312,-4.329,-4.3364,-4.3932,-4.3783,-4.3394,0.0,0.0,0.0,0.0,0.0,0.0,0.0,0.0,0.0,0.0,0.0,0.0,0.0,0.0,0.0,-1.1155,-1.2011,-1.324,-1.4956,-1.5807,-1.6454,-1.6939,-1.7203,-1.732,-1.7273,-1.7972,-1.881,-1.9736,-2.1023,-2.2098,-2.2967,-2.2774,-2.2557,-2.2272,-2.1092,-2.0253,-1.9672,-1.8532,-1.7776,-1.7333,-1.6879,-1.6565,-1.6391,-1.6348,-1.6391,-1.6499,-1.6794,-1.6849,-1.675,-1.6581,-1.6799,-1.705,-1.6305,0.0,0.0,0.0,-1.6661,-1.7433,-1.7969,-1.9374,-2.108,-2.2606,-2.4215,-2.5689,-2.6725,-2.8424,-2.9689,-2.936,-3.1423,-3.3062,-3.2346,-3.3275,-3.4082,-3.3798,-3.5007,-3.583,-3.5401,-3.6592,-3.7761,-3.844,-3.9353,-4.049,-4.1936,-4.1657,-4.1652,-4.2267,-4.1106,-4.0564,-4.1019,-4.0446,-4.0103,-4.0084,-3.8929,-3.8391,-3.8528,-3.6724,-3.6129,-3.6811,-3.6472,-3.6866,-3.7823,-3.7479,-3.8242,-3.9843,-3.9843,-4.0232,-4.0876,-4.1572,-4.2066,-4.247,-4.3075,-4.329,-4.3334,-4.3618,-4.3544,-4.3334,0.0,0.0,0.0,0.0,0.0,0.0,0.0,0.0,0.0,0.0,0.0,0.0,0.0,0.0,0.0,0.0,-1.1826,-1.329,-1.5049,-1.5608,-1.6079,-1.653,-1.6735,-1.7012,-1.7356,-1.8,-1.8784,-1.9714,-2.1015,-2.1914,-2.2451,-2.3309,-2.3696,-2.3632,-2.2514,-2.1838,-2.1399,-1.9956,-1.9233,-1.898,-1.8008,-1.7608,-1.7533,-1.706,-1.6998,-1.713,-1.6982,-1.716,-1.7403,-1.6832,-1.7109,-1.7532,-1.6603,-1.7089,0.0,0.0,0.0,-1.7547,-1.7693,-1.8582,-1.972,-2.0762,-2.2155,-2.3568,-2.4717,-2.6268,-2.7527,-2.7795,-2.9364,-3.0689,-3.0689,-3.1712,-3.275,-3.3393,-3.4425,-3.5259,-3.5533,-3.6662,-3.773,-3.8426,-3.9031,-3.9829,-4.0929,-4.0992,-4.1041,-4.1222,-4.0385,-3.9933,-4.0035,-3.9427,-3.9037,-3.8914,-3.8026,-3.7681,-3.8033,-3.6461,-3.5874,-3.6237,-3.5744,-3.6013,-3.6911,-3.6447,-3.712,-3.8691,-3.902,-3.9544,-4.0202,-4.0861,-4.1557,-4.2216,-4.2836,-4.314,-4.329,-4.329,-4.329,-4.329,0.0,0.0,0.0,0.0,0.0,0.0,0.0,0.0,0.0,0.0,0.0,0.0,-0.797,-0.9312,-1.0246,-1.0403,-1.1809,-1.339,-1.5005,-1.5723,-1.6179,-1.6412,-1.6607,0.0,-1.6192,-1.7446,-1.8122,-1.8111,-1.9835,-2.0667,-2.0662,-2.2225,-2.3191,-2.3589,-2.3128,-2.2704,-2.2324,-2.2225,-2.1782,-2.1024,-1.977,-1.9121,-1.873,-1.7197,-1.6657,-1.6749,-1.6921,-1.6496,-1.5896,-1.635,-1.7033,-1.7489,-1.6233,-1.6697,-1.7508,0.0,0.0,0.0,-1.6769,-1.7779,-1.8847,-1.8851,-2.0069,-2.1423,-2.2059,-2.3896,-2.5518,-2.5723,-2.7661,-2.9291,-2.9291,-3.0691,-3.2217,-3.3313,-3.3886,-3.4547,-3.5638,-3.5925,-3.6152,-3.6577,-3.6491,-3.7018,-3.8534,-3.8041,-3.8208,-3.9618,-3.8389,-3.7629,-3.7763,-3.7312,-3.7142,-3.7302,-3.6641,-3.6507,-3.6966,-3.6445,-3.5957,-3.5549,-3.5519,-3.5534,-3.5609,-3.5564,-3.5953,-3.6716,-3.7928,-3.8841,-3.9514,-4.0187,-4.0846,-4.1542,-4.2201,-4.2791,-4.329,-4.329,-4.329,-4.329,0.0,0.0,0.0,0.0,0.0,0.0,0.0,0.0,0.0,0.0,0.0,0.0,0.0,-0.9406,-1.0485,-1.069,-1.2557,-1.4216,-1.5345,-1.5609,-1.5854,-1.6193,-1.6396,-1.6568,-1.6681,-1.7601,-1.8327,-1.8779,-1.9994,-2.0704,-2.0892,-2.1776,-2.229,-2.2464,-2.3059,-2.347,-2.3645,-2.3036,-2.2573,-2.2137,-2.0589,-1.9504,-1.872,-1.7925,-1.7108,-1.6443,-1.6988,-1.7129,-1.7003,-1.6725,-1.7051,-1.7403,-1.642,-1.6433,-1.6687,-1.6067,-1.619,-1.6528,-1.6657,-1.7199,-1.7835,-1.8308,-1.8915,-1.9552,-2.0285,-2.1773,-2.313,-2.3638,-2.5093,-2.6799,-2.8611,-3.0273,-3.1568,-3.2302,-3.3518,-3.43,-3.4077,-3.5453,-3.643,-3.6326,-3.7068,-3.796,-3.8794,-3.8464,-3.8382,-3.8869,-3.7642,-3.7059,-3.7461,-3.6816,-3.6631,-3.6987,-3.6475,-3.6148,-3.599,-3.6148,-3.5973,-3.5504,-3.5504,-3.5504,-3.5504,-3.5504,-3.5863,-3.6507,-3.6703,-3.754,-3.8841,-3.9948,-4.0531,-4.0861,-4.1976,-4.2545,-4.2722,-4.2862,-4.293,-4.289,0.0,0.0,0.0,0.0,0.0,0.0,0.0,0.0,0.0,0.0,0.0,0.0,0.0,0.0,-1.0863,-1.1445,-1.3207,-1.4564,-1.5286,-1.5492,-1.5784,-1.6179,-1.6369,-1.6683,-1.7122,-1.7809,-1.8478,-1.9133,-1.9842,-2.0318,-2.0571,-2.0852,-2.1111,-2.1365,-2.2119,-2.2955,-2.3738,-2.3135,-2.297,-2.2976,-2.1208,-2.02,-1.9636,-1.8688,-1.7832,-1.713,-1.7334,-1.7498,-1.7483,-1.6771,-1.6955,-1.733,-1.6562,-1.6292,-1.6173,-1.5889,-1.608,-1.6423,-1.6554,-1.7007,-1.7562,-1.8108,-1.8225,-1.8372,-1.906,-1.988,-2.079,-2.1804,-2.2892,-2.4393,-2.6934,-2.8381,-2.9832,-3.1659,-3.2933,-3.3744,-3.3985,-3.5033,-3.5887,-3.6182,-3.6733,-3.7266,-3.7768,-3.8013,-3.8028,-3.7756,-3.7372,-3.7017,-3.6784,-3.6473,-3.6345,-3.6445,-3.6148,-3.5829,-3.5504,-3.5797,-3.5797,-3.5504,-3.5504,-3.5504,-3.5504,-3.5504,-3.5744,-3.6163,-3.5988,-3.6768,-3.8275,-3.9169,-3.9809,-4.033,-4.1403,-4.1969,-4.2198,-4.2397,-4.247,-4.243,0.0,0.0,0.0,0.0,0.0,0.0,0.0,0.0,0.0,-0.8468,0.0,0.0,0.0,0.0,0.0,-1.2644,-1.3646,-1.4399,-1.4804,-1.5448,-1.5998,-1.6412,-1.6543,-1.6863,-1.7399,-1.7984,-1.8512,-1.8988,-1.9253,-1.9435,-1.9511,-1.9435,-1.9743,-2.036,-2.0367,-2.1161,-2.2544,-2.2572,-2.3053,-2.3593,-2.1693,-2.1256,-2.1528,-1.9423,-1.869,-1.8708,-1.7869,-1.7421,-1.7082,-1.6419,-1.6736,-1.7273,-1.6604,-1.625,-1.6039,-1.5856,-1.6081,-1.6412,0.0,0.0,0.0,-1.8067,-1.7925,-1.7896,-1.834,-1.8254,-1.8567,-2.0284,-2.1171,-2.2233,-2.4178,-2.5016,-2.6887,-3.1385,-3.2006,-3.2821,-3.5316,-3.4616,-3.4428,-3.5967,-3.5225,-3.4768,-3.5202,-3.6473,-3.6978,-3.6303,-3.742,-3.7375,-3.5627,-3.6118,-3.6163,-3.5534,-3.5504,-3.5504,-3.5504,-3.5504,-3.5504,-3.5504,-3.5504,-3.5504,-3.5504,-3.5504,-3.5504,-3.5502,-3.5748,-3.6551,-3.7729,-3.783,-3.8597,-3.9776,-4.0371,-4.1057,-4.1666,-4.1852,-4.1961,-4.1961,0.0,0.0,0.0,0.0,0.0,0.0,-0.7181,-0.7757,-0.8252,0.0,0.0,0.0,-1.0648,-1.1837,-1.2953,-1.3723,-1.4349,-1.5015,-1.5751,-1.5954,-1.6246,-1.6735,-1.6799,-1.6989,-1.7316,-1.7876,-1.8389,-1.8855,-1.9082,-1.9269,-1.9429,-1.9308,-1.9352,-1.953,-1.9481,-2.0051,-2.1122,-2.1752,-2.2428,-2.2961,-2.1808,-2.0972,-2.0336,-1.9434,-1.8247,-1.704,-1.7081,-1.6982,-1.6763,-1.6347,-1.6537,-1.6894,-1.6457,-1.6025,-1.5668,-1.5595,-1.5968,-1.6412,-1.6412,0.0,0.0,0.0,0.0,0.0,-1.729,-1.736,-1.7654,-1.8608,-1.9589,-2.0787,-2.2554,-2.3386,-2.4709,-2.739,-2.9242,-3.0817,-3.2212,-3.3878,-3.4883,-3.4696,-3.5734,-3.6455,-3.6429,-3.646,-3.6767,-3.7374,-3.6998,-3.6598,-3.6241,-3.5938,-3.5684,-3.5504,-3.5504,-3.5504,-3.5504,-3.5504,-3.5504,-3.5504,-3.5504,-3.5504,-3.5504,-3.5504,-3.5504,-3.5487,-3.5007,-3.5263,-3.6015,-3.6587,-3.7273,-3.8039,-3.8719,-3.9361,-3.9969,-4.0593,-4.0832,-4.0848,0.0,0.0,0.0,0.0,0.0,-0.8245,-0.8414,-0.8822,-0.9261,0.0,0.0,0.0,-1.2123,-1.3073,-1.3822,-1.4164,-1.4502,-1.5169,-1.6244,-1.6261,-1.6739,-1.7896,-1.7675,-1.7732,-1.8172,-1.8312,-1.858,-1.8922,-1.9097,-1.9266,-1.9448,-1.9246,-1.9178,-1.9184,-1.9069,-1.9348,-1.9955,-2.049,-2.1551,-2.2776,-2.1507,-2.0919,-2.0692,-1.9588,-1.8555,-1.765,-1.7474,-1.7545,-1.7612,-1.6839,-1.6848,-1.7072,-1.6428,-1.6398,-1.6458,-1.5817,-1.6179,-1.6756,0.0,-1.695,-1.7529,-1.7561,0.0,0.0,-1.7289,-1.7035,-1.6977,-1.7563,-1.8102,-1.8921,-2.0464,-2.1288,-2.2301,-2.3996,-2.5811,-2.7815,-3.0179,-3.211,-3.3303,-3.3395,-3.4531,-3.5396,-3.5583,-3.6348,-3.6816,-3.6739,-3.714,-3.7097,-3.6543,-3.5863,-3.5504,-3.5504,-3.5504,-3.5504,-3.5504,-3.5504,-3.5504,-3.5504,-3.5504,-3.5504,-3.5504,-3.5504,-3.5504,-3.5472,-3.4883,-3.4719,-3.496,-3.5218,-3.5985,-3.7139,-3.8034,-3.8597,-3.8995,-3.9831,-4.0135,-4.0179,0.0,0.0,-0.9556,-0.9202,-0.9177,-0.9434,-1.0182,-1.041,-1.0829,0.0,-1.247,-1.322,-1.3845,-1.4362,-1.4628,-1.4572,-1.4702,-1.5344,-1.6682,-1.6673,-1.7477,-1.9372,-1.8877,-1.886,-1.9497,-1.91,-1.8959,-1.9172,-1.9206,-1.9305,-1.9442,-1.9283,0.0,0.0,0.0,-1.9056,-1.9112,-1.9144,-2.0539,-2.2566,-2.0943,-2.0981,-2.1784,-1.9803,-1.9188,-1.927,-1.8346,-1.8435,-1.878,-1.7572,-1.7343,-1.742,-1.6576,-1.706,-1.7683,-1.6383,-1.6709,-1.7351,0.0,0.0,0.0,-1.8119,-1.8151,0.0,-1.7796,-1.7117,-1.6649,-1.6962,-1.6864,-1.7101,-1.8252,-1.9091,-2.0007,-2.1261,-2.2313,-2.4455,-2.8656,-2.9729,-3.0585,-3.1879,-3.2416,-3.2959,-3.3621,-3.5878,-3.6692,-3.5263,-3.7324,-3.7949,-3.6364,-3.5774,-3.5504,-3.5504,-3.5504,-3.5504,-3.5504,-3.5504,-3.5504,-3.5504,-3.5504,-3.5504,-3.5504,-3.5504,-3.5504,-3.5472,-3.5082,-3.4702,-3.438,-3.4028,-3.4946,-3.6659,-3.7719,-3.8207,-3.8439,-3.9266,-3.9578,-3.9676,0.0,-0.9906,-1.0369,-0.9562,-0.9939,-1.0324,-1.0241,-1.0841,-1.1792,-1.3174,-1.5241,-1.6563,-1.6488,-1.7076,-1.7334,0.0,-1.7076,-1.7563,-1.8369,-1.8231,-1.8594,-1.9742,-1.9676,-1.9786,-2.0199,-1.9641,-1.9408,-1.9505,0.0,0.0,0.0,0.0,0.0,0.0,-1.9615,-1.9561,-1.9178,-1.9025,-1.9667,-2.0798,-2.0372,-2.0669,-2.1228,-1.9913,-1.8853,-1.8026,-1.7661,-1.7531,-1.7523,-1.7572,-1.7164,-1.6786,-1.7486,-1.7379,-1.7028,-1.7266,-1.7636,-1.7976,-1.808,-1.8364,-1.8564,-1.8195,-1.8554,0.0,-1.7497,-1.7394,-1.7352,-1.6665,-1.6794,-1.7046,-1.7071,-1.8072,-1.9151,-1.9944,-2.0916,-2.2732,-2.6015,-2.7809,-2.9032,-2.9728,-3.1392,-3.2615,-3.2971,-3.3979,-3.4893,-3.5545,-3.6154,-3.6037,-3.4968,-3.528,-3.5504,-3.5504,-3.5504,-3.5504,-3.5504,-3.5504,-3.5504,-3.5504,-3.5504,-3.5504,-3.5504,-3.5504,-3.5504,-3.5472,-3.5082,-3.4702,-3.4424,-3.4565,-3.496,-3.5511,-3.5751,-3.6443,-3.7377,-3.8044,-3.8271,-3.8426,-0.9628,-1.0444,-1.0989,-1.0493,-1.0875,-1.1354,-1.1649,-1.2522,-1.3586,-1.4842,-1.6869,-1.8113,-1.788,-1.8264,-1.8401,-1.8028,0.0,0.0,-1.9349,-1.9224,-1.9717,-2.1081,-2.0854,-2.0928,-2.1438,-2.067,-2.0322,-2.0489,0.0,0.0,0.0,0.0,0.0,-1.8584,-1.9174,-1.9075,-1.8465,-1.8777,-1.9624,-2.0734,-1.9894,-1.9919,-2.0375,-1.9621,-1.8591,-1.7626,-1.8186,-1.8287,-1.8106,-1.7834,-1.7933,-1.8087,-1.773,-1.7972,-1.8299,-1.7836,-1.8101,-1.8541,-1.8516,-1.8917,-1.9253,-1.876,-1.9202,0.0,0.0,-1.7889,-1.7611,-1.7483,-1.7163,-1.6864,-1.6727,-1.7803,-1.8702,-1.8702,-1.97,-2.1039,-2.267,-2.4843,-2.6488,-2.7127,-2.8732,-3.007,-3.0792,-3.1789,-3.2915,-3.4167,-3.4211,-3.4138,-3.4024,-3.4009,-3.4171,-3.4496,-3.4186,-3.4058,-3.425,-3.425,-3.4382,-3.4708,-3.4708,-3.4887,-3.518,-3.518,-3.5326,-3.5504,-3.5294,-3.4983,-3.4631,-3.4625,-3.4918,-3.5461,-3.5601,-3.6216,-3.7063,-3.7681,-3.7906,-3.8074,-1.0483,-1.1229,-1.1791,-1.1562,-1.199,-1.2606,-1.3381,-1.428,-1.5329,-1.6591,-1.8185,-1.9132,-1.8941,-1.9074,-1.904,-1.8752,-1.8371,0.0,-1.9979,-1.9878,-2.0491,-2.2098,-2.1841,-2.1863,-2.2306,-2.1507,-2.1121,-2.1197,0.0,0.0,0.0,0.0,-1.9143,-1.8195,-1.901,-1.8922,-1.8212,-1.8842,-1.9866,-2.0944,-1.9632,-1.9546,-2.0132,-1.9656,-1.8813,-1.8049,-1.9035,-1.9311,-1.909,-1.8331,-1.8806,-1.945,-1.7991,-1.8527,-1.9499,-1.841,-1.849,-1.8917,-1.8826,-1.939,-1.9908,-1.9444,-1.9919,-2.0258,0.0,0.0,0.0,-1.836,-1.7685,-1.7029,-1.6921,-1.7893,-1.8493,-1.7818,-1.8837,-1.9752,-1.988,-2.1941,-2.3753,-2.4672,-2.6034,-2.7248,-2.8175,-2.9259,-3.0446,-3.1756,-3.1748,-3.2046,-3.2908,-3.2544,-3.2617,-3.3285,-3.2777,-3.2613,-3.2897,-3.2897,-3.3162,-3.363,-3.3762,-3.4115,-3.4626,-3.4743,-3.5016,-3.5359,-3.5359,-3.518,-3.4868,-3.4534,-3.4839,-3.556,-3.5831,-3.6385,-3.7049,-3.754,-3.7723,-3.7892,-1.2416,-1.2911,-1.3288,-1.2511,-1.3484,-1.441,-1.4502,-1.4886,-1.6033,-1.8454,-1.9869,-2.0597,-2.0471,-2.0471,-2.0209,-1.9526,-1.9008,-1.9254,-2.0529,-2.0262,-2.0435,-2.1304,-2.1905,-2.2012,-2.1611,-2.1495,-2.1108,-2.043,-2.032,0.0,0.0,0.0,0.0,-1.9204,-2.0454,-2.0615,-1.9912,-1.99,-1.9985,-2.0128,-1.995,-2.0685,-2.1817,-2.0829,-2.0164,-1.9761,-1.9491,-1.9311,-1.9169,-1.909,-1.9029,-1.9034,-1.9124,-1.8779,-1.8479,-1.9238,-1.9109,-1.891,-1.9699,-2.0172,-2.033,-1.9924,-2.0508,-2.0778,-1.9204,0.0,-1.9632,-1.8408,0.0,-1.8161,-1.7674,0.0,0.0,-1.7818,-1.8837,-1.9587,-1.9272,-2.0189,-2.1509,-2.3135,-2.4783,-2.5822,-2.5967,-2.6234,-2.6927,-2.8259,-2.8611,-2.942,-3.0843,-3.1427,-3.198,-3.2588,-3.2544,-3.2533,-3.2564,-3.2564,-3.2594,-3.2681,-3.3278,-3.3598,-3.3685,-3.422,-3.4635,-3.4968,-3.4968,-3.4935,-3.4868,-3.4534,-3.4594,-3.4911,-3.521,-3.6005,-3.6993,-3.7063,-3.7091,-3.7189,-1.3632,-1.3766,-1.3935,-1.3262,-1.4411,-1.55,-1.5662,-1.7494,-1.9333,-2.0662,-2.1759,-2.2415,-2.2378,-2.1933,-2.1661,-2.174,-2.0693,-2.0383,-2.1286,-2.095,-2.1067,-2.1813,-2.2248,-2.2417,-2.2306,-2.219,-2.2035,-2.1809,-2.1223,0.0,0.0,0.0,0.0,-1.9259,-1.9792,-1.9587,-1.8917,-1.9722,-2.0282,-2.068,-2.1154,-2.1841,-2.2458,-2.1063,-2.0763,-2.0922,-1.9717,-1.9764,-2.0289,-1.9477,-1.9694,-2.019,-1.9578,-1.9432,-1.9518,-1.9652,-1.9513,-1.9401,-1.9937,-2.017,-2.0263,-2.0251,-2.054,-2.0653,-1.994,-1.9688,-1.9545,-1.9309,0.0,0.0,0.0,0.0,0.0,0.0,-1.9076,-1.9639,-1.9474,-1.9932,-2.0609,-2.1495,-2.269,-2.365,-2.4102,-2.4627,-2.5077,-2.544,-2.605,-2.6987,-2.8311,-2.8668,-2.9424,-3.0763,-3.0494,-3.0573,-3.1101,-3.1447,-3.1619,-3.1634,-3.2655,-3.3159,-3.3173,-3.3772,-3.4264,-3.4601,-3.4835,-3.4902,-3.4902,-3.4735,-3.4845,-3.5072,-3.4989,-3.56,-3.6539,-3.6852,-3.6978,-3.7077,-1.5861,-1.5575,-1.5379,-1.4872,-1.5995,-1.7062,-1.7268,-1.9435,-2.1236,-2.1734,-2.2468,-2.3116,-2.359,-2.2672,-2.2419,-2.3359,-2.1678,-2.0986,-2.1965,-2.1511,-2.1474,-2.2064,-2.2415,-2.2542,-2.244,-2.2489,-2.2476,-2.244,-2.1739,0.0,0.0,0.0,0.0,0.0,-1.9363,-1.9087,-1.8609,-1.9623,-2.0346,-2.0858,-2.1429,-2.1905,-2.2139,-2.1251,-2.1275,-2.1619,-2.0334,-2.0479,-2.1131,-2.0111,-2.0451,-2.1118,-2.013,-1.9999,-2.0162,-1.9882,-1.9626,-1.9521,-1.9984,-2.01,-2.0152,-2.0427,-2.051,-2.0494,-2.0409,-1.992,-1.9587,-1.9921,-1.9511,0.0,0.0,0.0,-1.9483,-1.8807,0.0,-1.9648,-1.9453,-1.9818,-2.0202,-2.0477,-2.117,-2.1872,-2.2489,-2.2849,-2.3091,-2.319,-2.3572,-2.4481,-2.5978,-2.6217,-2.7172,-2.9055,-2.883,-2.9106,-2.9943,-3.0554,-3.087,-3.0899,-3.2146,-3.2743,-3.2771,-3.3397,-3.3888,-3.423,-3.4501,-3.4668,-3.4769,-3.4769,-3.4879,-3.5056,-3.4859,-3.5287,-3.6033,-3.6578,-3.6838,-3.7049,-1.9862,-1.9152,-1.825,-1.7836,-1.8724,-1.9515,-1.9588,-1.9794,-2.0203,-2.0948,-2.1343,-2.2134,-2.3626,-2.2316,-2.1998,-2.3646,-2.1295,-2.0549,-2.2453,-2.1763,-2.1383,-2.152,-2.2211,-2.2186,-2.1268,-2.1952,-2.1969,-2.1251,-2.134,0.0,0.0,0.0,0.0,0.0,-1.9969,-2.0209,-2.011,-2.0034,-2.0029,-2.0037,-2.0055,-2.0276,-2.0679,-2.16,-2.1893,-2.1766,-2.1584,-2.1433,-2.1293,-2.1245,-2.1261,-2.1246,-2.0942,-2.0241,-1.9607,-1.997,-1.9435,-1.8918,-1.9845,-2.01,-2.0152,-2.0427,-2.051,-2.0427,-2.017,-2.0275,-2.0309,-1.9833,-1.9892,-1.9965,-1.9732,-1.9693,0.0,0.0,0.0,0.0,0.0,-1.9515,-2.0202,-2.0477,-2.0761,-2.0979,-2.1154,-2.0412,-2.0413,-2.1584,-2.1148,-2.1829,-2.4075,-2.4739,-2.5921,-2.7805,-2.8394,-2.8984,-2.9602,-3.0207,-3.053,-3.0544,-3.1794,-3.2412,-3.2426,-3.3045,-3.3521,-3.3805,-3.3839,-3.4059,-3.4414,-3.4414,-3.4428,-3.4433,-3.4722,-3.516,-3.5738,-3.6019,-3.6511,-3.6978,-2.0474,-2.1154,-2.1269,-1.997,-2.0264,-2.0964,-2.1881,-2.212,-2.253,-2.34,-2.3599,-2.4138,-2.5331,-2.3915,-2.3333,-2.4434,-2.2187,-2.0968,-2.1623,-2.1977,-2.1901,-2.1326,-2.2651,-2.2935,-2.1938,-2.2161,-2.1938,-2.119,-2.1257,-2.1004,0.0,0.0,0.0,0.0,-2.0083,-1.9822,-1.9416,-2.0525,-2.0611,-2.0071,-2.0826,-2.1505,-2.2071,-2.1928,-2.184,-2.1768,-2.1495,-2.1372,-2.1293,-2.1293,-2.1293,-2.1246,-2.0974,-2.0556,-2.015,-2.0108,-1.9878,-1.9704,-2.0004,-2.01,-2.0118,-2.0204,-2.01,-1.9942,-1.9869,-1.9907,-1.9922,-1.9744,-1.9764,-1.9815,-1.9726,-1.9708,0.0,0.0,0.0,0.0,0.0,-1.9788,-2.0118,-2.0222,-2.063,-2.0857,-2.0721,-2.0154,-1.9838,-1.9937,-2.0002,-2.0678,-2.2175,-2.3206,-2.4783,-2.7059,-2.7762,-2.8577,-2.9602,-3.0642,-3.0951,-3.0512,-3.2182,-3.2806,-3.2426,-3.3031,-3.3347,-3.3486,-3.3716,-3.3874,-3.4025,-3.4312,-3.4414,-3.4361,-3.42,-3.4761,-3.5746,-3.5977,-3.6497,-3.7049,-2.1285,-2.2473,-2.2988,-2.1734,-2.1725,-2.2254,-2.3369,-2.3844,-2.4273,-2.4867,-2.5262,-2.5623,-2.5981,-2.4715,-2.4157,-2.4945,-2.315,-2.2115,-2.2453,-2.2873,-2.2823,-2.223,-2.2758,-2.2749,-2.2027,-2.1946,-2.1681,-2.119,-2.1257,-2.1256,0.0,0.0,0.0,0.0,-2.0478,-1.9972,-1.9336,-2.0562,-2.0507,-1.9709,-2.0894,-2.1824,-2.2443,-2.211,-2.1897,-2.1768,-2.1495,-2.1372,-2.1293,-2.1293,-2.1293,-2.1262,-2.1103,-2.086,-2.0579,-2.0308,-2.0239,-2.0239,-2.0239,-2.017,-2.0118,-2.0222,-1.996,-1.9708,-1.9708,-1.9708,-1.9708,-1.9708,-1.9708,-1.9708,-1.9708,-1.9708,0.0,0.0,0.0,0.0,0.0,-1.9925,-2.01,-2.01,-2.0495,-2.0663,-2.0376,-2.0085,-1.9678,-1.9139,-1.9344,-1.992,-2.0936,-2.2114,-2.3912,-2.6399,-2.7355,-2.8366,-2.9602,-3.0628,-3.105,-3.0881,-3.2314,-3.2904,-3.2736,-3.3108,-3.329,-3.3326,-3.3521,-3.3612,-3.3646,-3.4025,-3.4196,-3.4162,-3.3908,-3.4447,-3.5395,-3.5667,-3.6314,-3.7077,-2.239,-2.3171,-2.3494,-2.3175,-2.3107,-2.339,-2.419,-2.4816,-2.5237,-2.5307,-2.6153,-2.6435,-2.5614,-2.4725,-2.4433,-2.5063,-2.4061,-2.375,-2.457,-2.4233,-2.3958,-2.3888,-2.2606,-2.1779,-2.1511,-2.1356,-2.1234,-2.1153,-2.1336,-2.1525,0.0,0.0,0.0,0.0,-2.1128,-2.0682,-1.9923,-2.0273,-1.9893,-1.9183,-2.0374,-2.1231,-2.1809,-2.2179,-2.2096,-2.1783,-2.1649,-2.1465,-2.1293,-2.1293,-2.1293,-2.1293,-2.1293,-2.1119,-2.0845,-2.0579,-2.0527,-2.0527,-2.0527,-2.0325,-2.0204,-2.0443,-2.01,-1.9726,-1.9708,-1.9708,-1.9708,-1.9708,-1.9708,-1.9708,-1.9708,-1.9708,-1.9708,0.0,0.0,0.0,0.0,-1.9925,-2.0115,-2.0146,-2.0356,-2.0376,-2.0133,-2.0083,-1.9818,-1.9157,-1.9082,-1.9468,-2.0351,-2.1533,-2.3319,-2.5809,-2.7116,-2.8338,-2.9602,-3.0217,-3.0881,-3.1499,-3.2145,-3.275,-3.329,-3.329,-3.329,-3.329,-3.329,-3.329,-3.3312,-3.3646,-3.377,-3.3805,-3.3799,-3.4241,-3.4911,-3.5131,-3.5991,-3.7077,-2.2291,-2.3768,-2.4948,-2.4801,-2.3902,-2.3794,-2.5562,-2.5478,-2.5607,-2.6745,-2.7133,-2.6929,-2.5974,-2.5658,-2.5072,-2.3955,-2.3568,-2.3033,-2.2187,-2.321,-2.3333,-2.2194,-2.288,-2.2733,-2.1528,-2.2,-2.1704,-2.0617,-2.133,-2.1452,-2.0974,0.0,0.0,0.0,-2.1529,-2.1086,-1.9923,-2.1486,-2.1923,-2.1582,-2.1653,-2.2048,-2.2585,-2.2529,-2.2215,-2.1783,-2.1649,-2.1465,-2.1293,-2.1293,-2.1293,-2.1293,-2.1293,-2.1119,-2.0877,-2.0812,-2.0795,-2.0795,-2.0795,-2.0762,-2.0663,-2.0544,-2.0254,-1.9942,-1.9762,-1.9708,-1.9708,-1.9708,-1.9708,-1.9708,-1.9708,-1.9708,-1.9708,0.0,0.0,0.0,-1.9708,-1.9925,-2.0299,-2.0857,-2.0667,-2.0376,-2.0133,-1.9962,-1.966,-1.9139,-1.8969,-1.9316,-2.0351,-2.1125,-2.2869,-2.5809,-2.6652,-2.7888,-2.9588,-3.0698,-3.1331,-3.1499,-3.2581,-3.3136,-3.329,-3.329,-3.329,-3.329,-3.329,-3.329,-3.3326,-3.3382,-3.3577,-3.3813,-3.4016,-3.4792,-3.5765,-3.5845,-3.6356,-3.7077,-2.3072,-2.4925,-2.6363,-2.6209,-2.5733,-2.5928,-2.7505,-2.7053,-2.7063,-2.8617,-2.8229,-2.7309,-2.6044,-2.5753,-2.4974,-2.3319,-2.3612,-2.3391,-2.224,-2.3161,-2.3357,-2.2499,-2.2582,-2.2304,-2.1515,-2.1494,-2.1306,-2.0892,-2.1472,-2.1719,-2.1668,0.0,0.0,0.0,-2.2248,-2.1881,-2.0827,-2.1817,-2.2358,-2.2525,-2.2253,-2.2494,0.0,-2.2717,-2.2323,-2.1913,-2.1679,-2.1465,-2.1293,-2.1293,-2.1293,-2.1293,-2.1293,-2.1198,-2.1055,-2.0926,-2.099,-2.1055,-2.0926,-2.0893,-2.0861,-2.0712,-2.0478,-2.0254,-2.0083,-1.9975,-1.9871,-1.9871,-1.978,-1.9708,-1.9708,-1.9708,-1.9672,-1.9581,-1.949,-1.9472,-1.9545,-1.9708,-2.0023,-2.0653,-2.0503,-2.0272,-2.01,-2.0013,-1.9696,-1.9139,-1.9233,-1.9641,-2.0365,-2.1223,-2.2869,-2.5442,-2.6624,-2.7874,-2.9195,-3.0726,-3.1485,-3.1499,-3.2469,-3.3059,-3.329,-3.329,-3.329,-3.329,-3.329,-3.329,-3.329,-3.329,-3.3417,-3.3599,-3.4036,-3.4983,-3.6103,-3.6103,-3.6497,-3.7105,-2.4378,-2.6357,-2.7737,-2.7407,-2.8005,-2.883,-2.9801,-2.9122,-2.898,-3.0318,-2.9319,-2.7825,-2.6101,-2.5614,-2.4704,-2.3007,-2.379,-2.4064,-2.3323,-2.3428,-2.3525,-2.3553,-2.2119,-2.1356,-2.1455,-2.0658,-2.0641,-2.1455,-2.1638,-2.2124,0.0,0.0,0.0,0.0,-2.2905,-2.2752,-2.2196,-2.181,-2.2064,-2.2692,-2.2532,-2.275,-2.3114,-2.2768,-2.2409,-2.2053,-2.1738,-2.1481,-2.1293,-2.1293,-2.1293,-2.1293,-2.1293,-2.1293,-2.1246,-2.1023,-2.1119,-2.1246,-2.1023,-2.0942,-2.0942,-2.091,-2.0713,-2.0544,-2.051,-2.0323,-2.0135,-2.01,-1.9907,-1.9744,-1.9708,-1.9708,-1.9636,-1.9431,-1.9246,-1.9195,-1.9376,-1.9431,-1.9647,-2.017,-2.0196,0.0,-2.0255,-2.0129,-1.98,-1.9157,-1.9551,-2.0022,-2.0379,-2.1383,-2.2911,-2.495,-2.6666,-2.7974,-2.8802,-3.0586,-3.1527,-3.1626,-3.223,-3.2806,-3.329,-3.329,-3.329,-3.329,-3.329,-3.329,-3.329,-3.329,-3.3389,-3.3607,-3.402,-3.504,-3.6216,-3.6131,-3.6497,-3.7161,-2.5625,-2.7584,-2.8959,-2.8303,-2.9257,-3.06,-3.2076,-3.1043,-3.0193,-3.0475,-3.0264,-2.919,-2.68,-2.6478,-2.5428,-2.2875,-2.3384,-2.346,-2.2547,-2.2525,-2.2606,-2.2798,-2.2189,-2.1666,-2.1271,-2.1079,-2.1079,-2.1254,-2.1614,-2.2178,0.0,0.0,0.0,0.0,-2.2721,-2.2999,-2.3358,-2.2684,-2.278,-2.3336,-2.3289,-2.3153,-2.2927,-2.2876,-2.2541,-2.2068,-2.184,-2.1572,-2.1293,-2.1293,-2.1293,-2.1293,-2.1293,-2.1293,-2.1293,-2.1246,-2.1262,-2.1293,-2.1246,-2.123,-2.1183,-2.0974,-2.0861,-2.0763,-2.0545,-2.046,-2.0375,-2.0135,-2.0048,-1.996,-1.9744,-1.9708,-1.9636,-1.9431,-1.9376,-1.9358,-1.9395,-1.9584,-2.005,-2.0916,-2.0663,-2.0574,-2.097,-2.0314,-1.9642,-1.9139,-1.9037,-1.941,-2.0351,-2.0597,-2.203,-2.4908,-2.5781,-2.7256,-2.942,-3.0797,-3.1738,-3.2258,-3.2862,-3.3178,-3.329,-3.329,-3.329,-3.329,-3.329,-3.329,-3.329,-3.329,-3.3916,-3.4823,-3.4357,-3.5293,-3.6768,-3.6286,-3.6497,-3.7161,-2.7741,-2.9044,-3.013,-3.0109,-3.068,-3.151,-3.2721,-3.2239,-3.1599,-3.1171,-3.005,-2.8524,-2.6468,-2.614,-2.5222,-2.3088,-2.3384,-2.3356,-2.2511,-2.2366,-2.2352,-2.2432,-2.2158,-2.1888,-2.1616,-2.1242,-2.1252,-2.1667,-2.1541,-2.1825,-2.2487,-2.246,-2.2395,-2.2298,-2.2569,-2.2965,-2.3375,-2.3119,-2.3111,-2.3301,-2.333,-2.3168,-2.2876,-2.266,-2.2429,-2.2164,-2.1899,-2.1648,-2.1434,-2.1341,-2.1293,-2.1293,-2.1293,-2.1293,-2.1293,-2.1293,-2.1293,-2.1293,-2.1293,-2.1293,-2.1262,-2.1135,-2.1103,-2.1071,-2.0942,-2.0811,-2.0679,-2.053,-2.0275,-2.0013,-1.9762,-1.9617,-1.9523,-1.9413,-1.9599,-1.9683,-1.942,-1.9716,-2.008,-2.043,-2.0068,-1.9957,-2.0418,-1.9945,-1.9493,-1.9269,-1.9368,-1.9758,-2.0521,-2.0746,-2.1997,-2.4458,-2.6075,-2.7593,-2.9125,-3.1331,-3.2426,-3.2412,-3.3031,-3.329,-3.329,-3.329,-3.329,-3.329,-3.329,-3.329,-3.3304,-3.3627,-3.4323,-3.5189,-3.518,-3.5925,-3.6978,-3.7021,-3.7203,-3.7597,-2.9687,-3.0456,-3.1288,-3.1648,-3.1831,-3.2186,-3.2793,-3.2757,-3.2418,-3.1778,-2.9925,-2.8017,-2.6247,-2.5754,-2.493,-2.3346,-2.3445,-2.3305,-2.2626,-2.2446,-2.2352,-2.2296,-2.2118,-2.2013,-2.2013,-2.1248,-2.1231,-2.2041,-2.1407,-2.1451,-2.2136,-2.2261,-2.2251,-2.2141,-2.2582,-2.2883,-2.3025,-2.3236,-2.3212,-2.3012,-2.3114,-2.302,-2.2799,-2.247,-2.233,-2.2261,-2.1955,-2.1753,-2.1603,-2.1434,-2.1341,-2.1293,-2.1293,-2.1293,-2.1293,-2.1293,-2.1262,-2.1214,-2.1214,-2.1214,-2.1214,-2.1214,-2.1262,-2.1293,-2.1293,-2.1135,-2.0958,-2.091,-2.0462,-2.0013,-1.9762,-1.9563,-1.945,-1.9413,-1.983,-2.004,-1.9656,-1.9992,-2.0196,-1.9962,-1.9553,-1.9459,-1.9887,-1.9601,-1.9472,-1.9657,-1.9866,-2.0194,-2.0669,-2.1215,-2.2278,-2.4036,-2.6511,-2.8157,-2.8872,-3.171,-3.2946,-3.2609,-3.3087,-3.329,-3.329,-3.329,-3.329,-3.329,-3.329,-3.329,-3.3333,-3.395,-3.4604,-3.5245,-3.5864,-3.6483,-3.7063,-3.7681,-3.7906,-3.8004,-3.0547,-3.1633,-3.2487,-3.1829,-3.2311,-3.2811,-3.2882,-3.2275,-3.1778,-3.1706,-3.0868,-2.9423,-2.7139,-2.6216,-2.5077,-2.334,-2.3221,-2.3065,-2.2636,-2.2565,-2.2487,-2.231,-2.2118,-2.2013,-2.2013,-2.1171,-2.1083,-2.1825,-2.1097,-2.1265,-2.2289,-2.2286,-2.2388,-2.2565,-2.2922,-2.2933,-2.2746,-2.3012,-2.2975,-2.2751,-2.2884,-2.2816,-2.2619,-2.2592,-2.2463,-2.2275,-2.2053,-2.1899,-2.1753,-2.1619,-2.145,-2.1293,-2.1293,-2.1293,-2.1293,-2.1293,-2.1135,-2.0942,-2.0942,-2.0942,-2.0942,-2.0942,-2.1119,-2.1293,-2.1293,-2.1277,-2.1182,-2.0942,-2.0462,-2.0013,-1.9762,-1.969,-1.9599,-1.9431,-1.994,-2.0356,-2.0317,-2.0649,-2.077,-2.0376,-2.0094,-2.0016,-2.0321,-1.9771,-1.972,-2.0516,-2.0226,-2.0194,-2.0669,-2.1603,-2.2728,-2.405,-2.6511,-2.8338,-2.9504,-3.1499,-3.2736,-3.3206,-3.3262,-3.329,-3.329,-3.329,-3.329,-3.329,-3.329,-3.329,-3.3333,-3.395,-3.4604,-3.5245,-3.5864,-3.6483,-3.7063,-3.7681,-3.7906,-3.8074,-3.2054,-3.2472,-3.2793,-3.2489,-3.1653,-3.1457,-3.2704,-3.1811,-3.0814,-3.0386,-2.9622,-2.8392,-2.6496,-2.5604,-2.4658,-2.349,-2.3265,-2.3082,-2.2803,-2.2659,-2.2515,-2.231,-2.2346,-2.2295,-2.2178,-2.1838,-2.1725,-2.1855,-2.1514,-2.1545,-2.1899,-2.2164,-2.2419,-2.2592,-2.2602,-2.2561,-2.2477,-2.269,-2.2664,-2.2477,-2.2642,-2.2592,-2.2419,-2.2419,-2.236,-2.2287,-2.222,-2.2075,-2.1913,-2.1768,-2.1619,-2.145,-2.1341,-2.1293,-2.1293,-2.1293,-2.123,-2.1135,-2.1135,-2.1135,-2.1135,-2.1135,-2.1214,-2.1293,-2.1293,-2.1293,-2.1214,-2.0974,-2.0462,-2.0013,-1.9762,-1.9708,-1.9806,-2.0132,-2.0742,-2.1173,-2.1173,-2.1202,-2.0988,-2.0309,-1.9653,-1.9469,-1.9922,-1.9517,-1.9908,-2.1534,-2.0635,-2.0255,-2.0857,-2.1727,-2.2784,-2.405,-2.6511,-2.8366,-2.9602,-3.1471,-3.2707,-3.329,-3.329,-3.329,-3.329,-3.329,-3.329,-3.329,-3.329,-3.329,-3.3361,-3.4379,-3.4941,-3.5316,-3.6248,-3.6993,-3.7611,-3.8243,-3.8721,-3.9156,-3.2892,-3.2418,-3.199,-3.199,-3.0886,-3.0496,-3.1972,-3.1046,-2.9993,-2.9476,-2.8285,-2.7054,-2.5913,-2.514,-2.4391,-2.3577,-2.336,-2.3205,-2.3008,-2.2855,-2.2685,-2.2487,-2.2605,-2.2628,-2.2483,-2.2426,-2.2303,-2.211,-2.1955,-2.1855,-2.1811,-2.2212,-2.2463,-2.2592,-2.2446,-2.2366,-2.231,-2.2446,-2.2432,-2.231,-2.2446,-2.2419,-2.2296,-2.2296,-2.2251,-2.2206,-2.2206,-2.2104,-2.1911,-2.1797,-2.1679,-2.1574,-2.1372,-2.1246,-2.1183,-2.1183,-2.1135,-2.1071,-2.1071,-2.1119,-2.1183,-2.1183,-2.1246,-2.1293,-2.1293,-2.1293,-2.1214,-2.0974,-2.0545,-2.015,-1.9869,-1.9909,-2.0115,-2.0474,-2.1261,-2.1758,-2.1547,-2.1491,-2.1213,-2.0458,-1.9771,-1.9598,-2.0198,-1.9832,-2.0306,-2.2058,-2.1272,-2.0979,-2.1526,-2.2312,-2.3333,-2.4585,-2.7046,-2.8914,-3.015,-3.1836,-3.289,-3.329,-3.329,-3.329,-3.329,-3.329,-3.329,-3.329,-3.329,-3.3389,-3.3641,-3.4753,-3.5302,-3.5559,-3.6585,-3.7358,-3.7976,-3.8663,-3.9296,-3.9873,-3.2686,-3.1242,-2.9836,-2.9836,-3.0193,-3.0496,-3.0529,-2.9886,-2.9405,-2.9405,-2.7317,-2.5818,-2.58,-2.514,-2.4391,-2.3577,-2.3505,-2.3407,-2.3217,-2.3193,-2.3089,-2.2906,-2.2906,-2.2906,-2.2889,-2.2691,-2.2591,-2.2591,-2.2261,-2.2164,-2.2303,-2.249,-2.2592,-2.2592,-2.2609,-2.2487,-2.2296,-2.231,-2.2296,-2.2296,-2.231,-2.2296,-2.2296,-2.2296,-2.2178,-2.2013,-2.2013,-2.1928,-2.1783,-2.1649,-2.1604,-2.1574,-2.1372,-2.1119,-2.091,-2.091,-2.0712,-2.051,-2.051,-2.0696,-2.091,-2.091,-2.1103,-2.1293,-2.1293,-2.1293,-2.1214,-2.0974,-2.0679,-2.0409,-2.0135,-2.0427,-2.0557,-2.0185,-2.1228,-2.1854,-2.1198,-2.1451,-2.1525,-2.105,-2.0816,-2.0912,-2.152,-2.1026,-2.1011,-2.1845,-2.2259,-2.2581,-2.2875,-2.3629,-2.4627,-2.5837,-2.8282,-3.0193,-3.1457,-3.2693,-3.3276,-3.329,-3.329,-3.329,-3.329,-3.329,-3.329,-3.329,-3.329,-3.3627,-3.4231,-3.4936,-3.5541,-3.6159,-3.6778,-3.7358,-3.7976,-3.8663,-3.9296,-3.9873,-3.2708,-3.0936,-2.915,-2.8764,-2.8986,-2.9327,-2.9701,-2.9101,-2.8392,-2.7835,-2.6621,-2.5604,-2.5105,-2.4343,-2.3773,-2.3523,-2.3505,-2.3407,-2.3217,-2.3205,-2.3119,-2.2919,-2.3033,-2.3089,-2.3089,-2.3035,-2.2875,-2.2604,-2.25,-2.2467,-2.249,-2.2415,-2.2474,-2.2592,-2.246,-2.2366,-2.2296,-2.2296,-2.2296,-2.2296,-2.2296,-2.2223,-2.2118,-2.2251,-2.212,-2.1884,-2.1969,-2.1911,-2.1783,-2.165,-2.1604,-2.1574,-2.1372,-2.1246,-2.1183,-2.1183,-2.1119,-2.1055,-2.1055,-2.1119,-2.1183,-2.1183,-2.123,-2.1293,-2.1293,-2.1167,-2.1007,-2.091,-2.0696,-2.0477,-2.0392,-2.0476,-2.0672,-2.1007,-2.1409,-2.1781,-2.2028,-2.1605,-2.1356,-2.153,-2.0752,-2.0586,-2.1513,-2.1041,-2.1184,-2.2282,-2.2441,-2.2532,-2.2623,-2.4343,-2.5683,-2.6497,-2.8535,-3.0207,-3.1485,-3.23,-3.2904,-3.329,-3.329,-3.329,-3.329,-3.329,-3.329,-3.3304,-3.3726,-3.402,-3.4273,-3.5349,-3.5934,-3.6174,-3.6778,-3.7625,-3.8635,-3.8832,-3.9563,-4.0435,-3.1281,-3.0114,-2.8846,-2.8398,-2.8437,-2.8517,-2.85,-2.832,-2.7803,-2.6693,-2.6104,-2.5515,-2.4783,-2.3969,-2.3505,-2.3505,-2.3505,-2.3448,-2.3313,-2.3313,-2.3253,-2.3132,-2.3253,-2.3313,-2.3313,-2.3313,-2.3145,-2.2837,-2.2664,-2.2569,-2.2487,-2.2366,-2.2366,-2.2487,-2.2366,-2.2296,-2.2296,-2.2296,-2.2296,-2.2296,-2.2296,-2.2223,-2.2132,-2.2251,-2.2092,-2.1796,-2.1882,-2.1796,-2.1602,-2.1527,-2.1481,-2.1465,-2.1341,-2.1293,-2.1277,-2.1183,-2.1151,-2.1151,-2.1151,-2.1214,-2.1293,-2.1293,-2.123,-2.1119,-2.1023,-2.0942,-2.0973,-2.126,-2.119,-2.1055,-2.1055,-2.1103,-2.1173,-2.1254,-2.1405,-2.1586,-2.1864,-2.1399,-2.1209,-2.1706,-2.1099,-2.0983,-2.1893,-2.1848,-2.1947,-2.2397,-2.3273,-2.3674,-2.3447,-2.5228,-2.6638,-2.7495,-2.9336,-3.0909,-3.2159,-3.2553,-3.2946,-3.329,-3.329,-3.329,-3.329,-3.329,-3.329,-3.3319,-3.3936,-3.4329,-3.466,-3.5695,-3.6244,-3.6511,-3.7091,-3.7962,-3.8944,-3.9169,-3.9845,-4.0702,-2.8959,-2.8994,-2.8876,-2.8554,-2.845,-2.812,-2.7219,-2.7714,-2.7625,-2.6002,-2.5783,-2.5461,-2.4694,-2.3951,-2.3505,-2.3505,-2.3505,-2.3505,-2.3505,-2.3505,-2.3505,-2.3505,-2.3505,-2.3505,-2.3505,-2.3505,-2.3383,-2.318,-2.279,-2.2501,-2.2296,-2.231,-2.231,-2.2296,-2.2296,-2.2296,-2.2296,-2.2296,-2.2296,-2.2296,-2.2282,-2.2265,-2.2268,-2.2268,-2.2049,-2.1783,-2.1766,-2.1587,-2.1293,-2.1293,-2.1293,-2.1293,-2.1293,-2.1293,-2.1246,-2.1007,-2.0942,-2.0926,-2.091,-2.1087,-2.1309,-2.1277,-2.1087,-2.0844,-2.0561,-2.0744,-2.1164,-2.185,-2.2058,-2.2091,-2.2091,-2.216,-2.1944,-2.1114,-2.1245,-2.1315,-2.0923,-2.0925,-2.1145,-2.167,-2.1809,-2.2073,-2.2672,-2.3202,-2.3174,-2.2423,-2.4528,-2.5598,-2.5091,-2.6329,-2.7607,-2.8788,-3.06,-3.2117,-3.3276,-3.329,-3.329,-3.329,-3.329,-3.329,-3.329,-3.329,-3.329,-3.3333,-3.3978,-3.4618,-3.5245,-3.5906,-3.6511,-3.7049,-3.7653,-3.8299,-3.8986,-3.9605,-4.0168,-4.0702,-2.8959,-2.8852,-2.8662,-2.8587,-2.8528,-2.8339,-2.7973,-2.8088,-2.7625,-2.6002,-2.5485,-2.4878,-2.3898,-2.3612,-2.3505,-2.3505,-2.3505,-2.3505,-2.3505,-2.3505,-2.3505,-2.3505,-2.3505,-2.3505,-2.3505,-2.3505,-2.3324,-2.2982,-2.2725,-2.2501,-2.231,-2.246,-2.2446,-2.2296,-2.2296,-2.2296,-2.2296,-2.2296,-2.2296,-2.2296,-2.2132,-2.2001,-2.1915,-2.1915,-2.1708,-2.1433,-2.1588,-2.1496,-2.1293,-2.1293,-2.1293,-2.1293,-2.1293,-2.1293,-2.1294,-2.1214,-2.1214,-2.1151,-2.0974,-2.1087,-2.1246,-2.1055,-2.0942,-2.0844,-2.0561,-2.1139,-2.1786,-2.1961,-2.2611,-2.3135,-2.3135,-2.2709,-2.2221,-2.1819,-2.1336,-2.0951,-2.0644,-2.1083,-2.1584,-2.1957,-2.2778,-2.3454,-2.3854,-2.3663,-2.3616,-2.3924,-2.473,-2.5358,-2.5655,-2.8197,-2.9754,-3.008,-3.1457,-3.2553,-3.3276,-3.329,-3.329,-3.329,-3.329,-3.329,-3.329,-3.329,-3.329,-3.3347,-3.4464,-3.5048,-3.5273,-3.6356,-3.6852,-3.7049,-3.7653,-3.8299,-3.8986,-3.9605,-4.0168,-4.0702,-2.8761,-2.87,-2.8587,-2.8567,-2.8528,-2.8262,-2.7562,-2.7892,-2.7625,-2.6002,-2.539,-2.4682,-2.3612,-2.3505,-2.3453,-2.336,-2.3448,-2.3505,-2.3505,-2.3505,-2.3505,-2.3505,-2.3505,-2.3505,-2.3505,-2.3407,-2.3168,-2.2764,-2.2646,-2.2501,-2.231,-2.2515,-2.2501,-2.2296,-2.2296,-2.2251,-2.2178,-2.2251,-2.2251,-2.2147,-2.2041,-2.1955,-2.1868,-2.1825,-2.1648,-2.145,-2.1574,-2.1465,-2.1293,-2.1293,-2.1293,-2.1293,-2.1293,-2.1293,-2.1293,-2.1293,-2.1293,-2.1246,-2.0958,-2.1007,-2.1023,-2.063,-2.0764,-2.0869,-2.0419,-2.1059,-2.1881,-2.2197,-2.2805,-2.3383,-2.3672,-2.3053,-2.241,-2.2209,-2.147,-2.0845,-2.0696,-2.1294,-2.1934,-2.2489,-2.3365,-2.4265,-2.51,-2.5033,-2.5078,-2.5349,-2.6466,-2.7116,-2.7172,-2.9841,-3.1087,-3.0512,-3.1985,-3.2988,-3.329,-3.329,-3.329,-3.329,-3.329,-3.329,-3.329,-3.329,-3.329,-3.3382,-3.4655,-3.5203,-3.5302,-3.6487,-3.6978,-3.7077,-3.799,-3.8593,-3.9015,-3.9873,-4.0407,-4.0702,-2.8484,-2.8779,-2.8878,-2.8527,-2.845,-2.8092,-2.6996,-2.7607,-2.7714,-2.6341,-2.5592,-2.4807,-2.3791,-2.3577,-2.3436,-2.3265,-2.3395,-2.3494,-2.3459,-2.3505,-2.3528,-2.3505,-2.3505,-2.3505,-2.3505,-2.3277,-2.2995,-2.2646,-2.2605,-2.2501,-2.231,-2.2515,-2.2501,-2.2296,-2.2296,-2.2192,-2.2013,-2.2178,-2.2147,-2.1998,-2.1955,-2.1955,-2.1955,-2.1781,-2.1648,-2.1542,-2.1542,-2.1434,-2.1293,-2.1293,-2.1293,-2.1293,-2.1293,-2.1293,-2.1293,-2.1293,-2.1293,-2.1246,-2.0958,-2.0861,-2.0745,-2.0345,-2.0605,-2.0816,-2.0322,-2.0952,-2.1835,-2.248,-2.298,-2.3465,-2.3925,-2.3283,-2.2618,-2.2452,-2.1613,-2.1018,-2.1146,-2.1775,-2.2486,-2.3172,-2.4103,-2.5168,-2.6298,-2.681,-2.706,-2.7019,-2.8676,-2.9524,-2.9125,-3.1204,-3.1907,-3.0806,-3.2406,-3.329,-3.329,-3.329,-3.329,-3.329,-3.329,-3.3333,-3.3431,-3.3431,-3.3473,-3.3663,-3.4837,-3.5344,-3.5419,-3.6529,-3.7035,-3.7245,-3.8452,-3.8972,-3.9183,-4.028,-4.0702,-4.0702,-2.825,-2.9631,-3.0265,-2.8543,-2.8237,-2.8183,-2.7981,-2.8088,-2.8106,-2.7857,-2.6573,-2.539,-2.4605,-2.3915,-2.3494,-2.3459,-2.3482,-2.3436,-2.3265,-2.3522,-2.3611,-2.3505,-2.3505,-2.3505,-2.3505,-2.3144,-2.2919,-2.2838,-2.2685,-2.2501,-2.231,-2.2515,-2.2501,-2.2296,-2.2296,-2.2192,-2.2013,-2.2027,-2.2027,-2.1984,-2.1753,-2.1723,-2.1796,-2.1495,-2.1356,-2.1356,-2.1356,-2.1341,-2.1293,-2.1293,-2.1293,-2.1293,-2.1293,-2.1293,-2.1293,-2.1293,-2.1293,-2.1246,-2.0958,-2.0729,-2.0618,-2.0875,-2.0605,-2.032,-2.055,-2.155,-2.2452,-2.2579,-2.3762,-2.463,-2.4172,-2.3465,-2.2848,-2.2616,-2.1911,-2.1608,-2.2243,-2.3165,-2.3805,-2.3916,-2.6047,-2.7449,-2.738,-2.8254,-2.9093,-2.9812,-2.9975,-3.0324,-3.104,-3.1907,-3.2314,-3.2117,-3.2869,-3.329,-3.329,-3.329,-3.329,-3.329,-3.329,-3.3557,-3.4062,-3.4062,-3.4379,-3.4936,-3.5653,-3.5977,-3.6019,-3.6697,-3.7288,-3.7835,-3.8621,-3.9226,-3.9718,-4.0435,-4.0702,-4.0702,-2.8094,-2.8478,-2.8799,-2.805,-2.7922,-2.7996,-2.8168,-2.8196,-2.8196,-2.8196,-2.7553,-2.6733,-2.5824,-2.4771,-2.4094,-2.3998,-2.3749,-2.3453,-2.3052,-2.3283,-2.3407,-2.3336,-2.3336,-2.3289,-2.318,-2.2893,-2.2685,-2.2582,-2.2579,-2.2501,-2.231,-2.2515,-2.2501,-2.2296,-2.2192,-2.2061,-2.1899,-2.1899,-2.1855,-2.1783,-2.1649,-2.165,-2.1664,-2.1387,-2.1293,-2.1293,-2.1293,-2.1293,-2.1293,-2.1293,-2.1293,-2.1293,-2.1293,-2.1293,-2.1293,-2.1293,-2.1198,-2.1055,-2.0926,-2.0862,-2.0923,-2.1268,-2.1526,-2.1758,-2.1951,-2.2707,-2.3364,-2.3364,-2.3847,-2.4426,-2.4831,-2.3596,-2.3089,-2.4792,-2.3055,-2.2163,-2.4014,-2.4138,-2.4389,-2.5327,-2.6859,-2.8308,-2.9592,-3.0002,-3.0646,-3.1759,-3.1683,-3.1803,-3.2236,-3.267,-3.289,-3.289,-3.3136,-3.329,-3.329,-3.3613,-3.3613,-3.329,-3.4,-3.4281,-3.4217,-3.4576,-3.4922,-3.5217,-3.5836,-3.6103,-3.6159,-3.6764,-3.7147,-3.7498,-3.8522,-3.9085,-3.9451,-4.035,-4.0702,-4.0702,-2.8049,-2.7346,-2.7201,-2.758,-2.7686,-2.7803,-2.8154,-2.8196,-2.8196,-2.8196,-2.7785,-2.7215,-2.6501,-2.5217,-2.4367,-2.4203,-2.3867,-2.3453,-2.2927,-2.3028,-2.3156,-2.3205,-2.3205,-2.3132,-2.2965,-2.2725,-2.2511,-2.238,-2.2487,-2.2446,-2.231,-2.246,-2.2446,-2.2296,-2.2087,-2.1943,-2.1812,-2.1768,-2.1694,-2.1604,-2.1559,-2.1559,-2.1589,-2.1388,-2.1293,-2.1293,-2.1293,-2.1293,-2.1293,-2.1293,-2.1293,-2.1293,-2.1293,-2.1293,-2.1293,-2.1293,-2.1151,-2.099,-2.091,-2.103,-2.1283,-2.1618,-2.2355,-2.3009,-2.3092,-2.3635,-2.4135,-2.4036,-2.3919,-2.4157,-2.5181,-2.3696,-2.3322,-2.6356,-2.4194,-2.3083,-2.5874,-2.5435,-2.5425,-2.6988,-2.7955,-2.9295,-3.1316,-3.1693,-3.2211,-3.3138,-3.3216,-3.3192,-3.3125,-3.3218,-3.329,-3.329,-3.329,-3.329,-3.329,-3.3894,-3.3964,-3.3515,-3.4669,-3.502,-3.4638,-3.5189,-3.5484,-3.5639,-3.6117,-3.6314,-3.637,-3.695,-3.7288,-3.7566,-3.8677,-3.9197,-3.9451,-4.035,-4.0702,-4.0702,-2.819,-2.7382,-2.689,-2.7417,-2.763,-2.7803,-2.8154,-2.8196,-2.8196,-2.8196,-2.6519,-2.5449,-2.5818,-2.4504,-2.3583,-2.3571,-2.3523,-2.3336,-2.2932,-2.2902,-2.3008,-2.3193,-2.3205,-2.3193,-2.318,-2.2803,-2.2592,-2.2565,-2.2422,-2.231,-2.2296,-2.2324,-2.231,-2.2296,-2.2087,-2.1943,-2.1797,-2.1664,-2.162,-2.1589,-2.1403,-2.1434,-2.1589,-2.1388,-2.1293,-2.1293,-2.1293,-2.1293,-2.1293,-2.1293,-2.1293,-2.1293,-2.1293,-2.1293,-2.1293,-2.1293,-2.1294,-2.1214,-2.0974,-2.1182,-2.1572,-2.1949,-2.2409,-2.2797,-2.303,-2.3853,-2.4464,-2.4147,-2.4316,-2.4563,-2.4672,-2.3768,-2.3636,-2.5503,-2.4734,-2.4847,-2.7545,-2.7563,-2.7735,-2.8784,-3.028,-3.1286,-3.1481,-3.3155,-3.412,-3.3844,-3.4116,-3.4138,-3.3734,-3.3458,-3.329,-3.329,-3.329,-3.329,-3.329,-3.3894,-3.4175,-3.4147,-3.488,-3.547,-3.5977,-3.6019,-3.6356,-3.6852,-3.6894,-3.6908,-3.6964,-3.7569,-3.8187,-3.8832,-3.9493,-4.0069,-4.0575,-4.0674,-4.0702,-4.0702,-2.8196,-2.866,-2.869,-2.7523,-2.7522,-2.7803,-2.8154,-2.8196,-2.7964,-2.7304,-2.6506,-2.5966,-2.5818,-2.4861,-2.4236,-2.4236,-2.3791,-2.3324,-2.2932,-2.2906,-2.2881,-2.2829,-2.2957,-2.2957,-2.2829,-2.2672,-2.2542,-2.2405,-2.2338,-2.2296,-2.2296,-2.2296,-2.2296,-2.2282,-2.2003,-2.1855,-2.1766,-2.151,-2.1419,-2.1403,-2.1341,-2.1356,-2.1403,-2.1341,-2.1293,-2.1293,-2.1293,-2.1293,-2.1293,-2.1293,-2.1293,-2.1293,-2.1293,-2.1293,-2.1293,-2.1293,-2.1956,-2.2586,-2.2246,-2.2122,-2.2409,-2.365,-2.3758,-2.3697,-2.4224,-2.4626,-2.5057,-2.5599,-2.5644,-2.5894,-2.6907,-2.5953,-2.593,-2.8673,-2.715,-2.6669,-2.9604,-2.8986,-2.8644,-2.9828,-3.0863,-3.1824,-3.2677,-3.3799,-3.4509,-3.4522,-3.447,-3.423,-3.3805,-3.3486,-3.329,-3.329,-3.329,-3.3473,-3.3852,-3.4506,-3.4801,-3.4815,-3.585,-3.6244,-3.6117,-3.6511,-3.6768,-3.6978,-3.6978,-3.6978,-3.7007,-3.7245,-3.7695,-3.8327,-3.9015,-3.9592,-4.0182,-4.0561,-4.0702,-4.0702,-2.8196,-2.9048,-2.9301,-2.7785,-2.7567,-2.7763,-2.814,-2.8196,-2.7946,-2.7197,-2.6662,-2.6216,-2.5854,-2.4926,-2.432,-2.432,-2.3826,-2.3348,-2.302,-2.2881,-2.2751,-2.2623,-2.2725,-2.2738,-2.2592,-2.2542,-2.2432,-2.2296,-2.2296,-2.2296,-2.2296,-2.2296,-2.2296,-2.2282,-2.1945,-2.1812,-2.1783,-2.1449,-2.1293,-2.1293,-2.1293,-2.1293,-2.1293,-2.1293,-2.1293,-2.1293,-2.1293,-2.1293,-2.1293,-2.1293,-2.1293,-2.1294,-2.1198,-2.1183,-2.1215,-2.144,-2.2457,-2.3556,-2.3819,-2.3692,-2.367,-2.4563,-2.4518,-2.4359,-2.4701,-2.5105,-2.562,-2.6386,-2.6625,-2.7024,-2.8108,-2.7504,-2.7638,-3.0127,-2.8666,-2.8147,-3.078,-3.003,-2.9609,-3.0702,-3.1585,-3.2497,-3.341,-3.4292,-3.4852,-3.4905,-3.4601,-3.4176,-3.3681,-3.3417,-3.329,-3.329,-3.329,-3.3585,-3.4189,-3.4843,-3.5287,-3.5484,-3.6525,-3.6768,-3.6413,-3.6796,-3.6978,-3.6978,-3.6978,-3.6978,-3.6993,-3.7189,-3.7526,-3.799,-3.8874,-3.9465,-3.9859,-4.0477,-4.0702,-4.0702,-2.8196,-2.8196,-2.8196,-2.8196,-2.781,-2.7662,-2.8126,-2.8196,-2.8196,-2.8178,-2.6787,-2.58,-2.5783,-2.4415,-2.3505,-2.3505,-2.3505,-2.3407,-2.3217,-2.2829,-2.2592,-2.2592,-2.2592,-2.2592,-2.2592,-2.2391,-2.2296,-2.2296,-2.2296,-2.2296,-2.2296,-2.2296,-2.2296,-2.2282,-2.1945,-2.1812,-2.1783,-2.1449,-2.1293,-2.1293,-2.1293,-2.1293,-2.1293,-2.1293,-2.1293,-2.1293,-2.1293,-2.1293,-2.1293,-2.1309,-2.1309,-2.1246,-2.1006,-2.0909,-2.1052,-2.1786,-2.2709,-2.3895,-2.5608,-2.5853,-2.5361,-2.4371,-2.4368,-2.4515,-2.4183,-2.5138,-2.6103,-2.6213,-2.7019,-2.771,-2.7718,-2.7998,-2.8419,-2.9017,-2.8837,-2.9203,-3.0879,-3.0772,-3.0776,-3.1436,-3.2706,-3.3499,-3.3499,-3.4711,-3.5326,-3.4935,-3.4568,-3.4074,-3.3361,-3.329,-3.329,-3.329,-3.329,-3.3585,-3.4189,-3.4843,-3.5498,-3.6117,-3.6683,-3.6978,-3.6978,-3.6978,-3.6978,-3.6978,-3.6978,-3.6978,-3.7035,-3.7653,-3.7906,-3.8032,-3.9283,-3.9788,-3.9859,-4.0477,-4.0702,-4.0702,-2.8624,-2.8196,-2.8196,-2.8196,-2.8085,-2.8042,-2.8168,-2.8196,-2.7785,-2.6662,-2.6091,-2.539,-2.4308,-2.3773,-2.3505,-2.3505,-2.3505,-2.3348,-2.302,-2.2751,-2.2542,-2.2408,-2.2511,-2.2525,-2.2391,-2.2474,-2.2432,-2.2296,-2.2296,-2.2296,-2.2296,-2.2296,-2.2223,-2.2073,-2.1884,-2.1753,-2.1649,-2.1387,-2.1293,-2.1293,-2.1293,-2.1293,-2.1293,-2.1293,-2.1293,-2.1293,-2.1293,-2.1293,-2.1374,-2.1908,-2.207,-2.2118,-2.2314,-2.2213,-2.2102,-2.257,-2.3454,-2.4473,-2.543,-2.5517,-2.5465,-2.6115,-2.5417,-2.4755,-2.5377,-2.5443,-2.5766,-2.7005,-2.7674,-2.8415,-2.9654,-2.9903,-3.0238,-3.1117,-3.0905,-3.0984,-3.1954,-3.1567,-3.1615,-3.2781,-3.326,-3.3679,-3.4174,-3.5269,-3.5574,-3.4635,-3.3971,-3.3521,-3.3326,-3.329,-3.329,-3.329,-3.329,-3.3585,-3.4189,-3.44,-3.4806,-3.5427,-3.602,-3.631,-3.631,-3.6783,-3.6744,-3.631,-3.6783,-3.6455,-3.5737,-3.7266,-3.7903,-3.8048,-3.9285,-4.0041,-4.0449,-4.0631,-4.0702,-4.0616,-2.8055,-2.794,-2.8196,-2.8196,-2.8196,-2.8196,-2.8196,-2.8196,-2.7857,-2.6876,-2.6211,-2.5449,-2.4504,-2.3862,-2.3505,-2.3505,-2.3505,-2.3324,-2.2932,-2.279,-2.2592,-2.231,-2.2422,-2.2419,-2.231,-2.2419,-2.2419,-2.2296,-2.2296,-2.2296,-2.2296,-2.2296,-2.2192,-2.1982,-2.1855,-2.1739,-2.1589,-2.1388,-2.1293,-2.1293,-2.1293,-2.1293,-2.1293,-2.1293,-2.1293,-2.1293,-2.1293,-2.1487,-2.1811,-2.2248,-2.2521,-2.274,-2.3122,-2.3105,-2.3086,-2.384,-2.4595,-2.5362,-2.6162,-2.628,-2.638,-2.7157,-2.5959,-2.4912,-2.6045,-2.5985,-2.6115,-2.7589,-2.8631,-2.9493,-3.0248,-3.1015,-3.159,-3.1757,-3.1856,-3.2034,-3.2452,-3.2138,-3.2288,-3.3365,-3.3499,-3.3754,-3.4444,-3.5358,-3.5492,-3.4481,-3.373,-3.329,-3.329,-3.329,-3.329,-3.329,-3.329,-3.3473,-3.3838,-3.3804,-3.4259,-3.5145,-3.5739,-3.603,-3.6083,-3.6724,-3.6626,-3.6031,-3.6429,-3.5977,-3.51,-3.6576,-3.7274,-3.7634,-3.8949,-3.9788,-4.0364,-4.0603,-4.0702,-4.0602,-2.7004,-2.7567,-2.8196,-2.8196,-2.8196,-2.8196,-2.8196,-2.8196,-2.816,-2.7999,-2.6715,-2.5747,-2.561,-2.4343,-2.3505,-2.3505,-2.3505,-2.3336,-2.2965,-2.294,-2.276,-2.2391,-2.2363,-2.238,-2.2349,-2.2324,-2.2296,-2.2296,-2.2296,-2.2296,-2.2296,-2.2296,-2.2192,-2.1984,-2.1855,-2.1708,-2.1574,-2.1388,-2.1293,-2.1293,-2.1293,-2.1293,-2.1293,-2.1293,-2.1293,-2.1309,-2.1374,-2.1843,-2.2426,-2.262,-2.2999,-2.3435,-2.3798,-2.3901,-2.4135,-2.5378,-2.5942,-2.6361,-2.7393,-2.7602,-2.7589,-2.7644,-2.6192,-2.5113,-2.6393,-2.6632,-2.6919,-2.8002,-2.9568,-3.0582,-3.0033,-3.141,-3.2334,-3.1447,-3.1977,-3.2512,-3.2587,-3.2602,-3.2871,-3.3589,-3.3619,-3.3844,-3.4533,-3.5098,-3.5162,-3.4501,-3.3764,-3.3312,-3.329,-3.329,-3.329,-3.329,-3.329,-3.3319,-3.3361,-3.3303,-3.3882,-3.5129,-3.5733,-3.6017,-3.6087,-3.6726,-3.6626,-3.5991,-3.5991,-3.5615,-3.5046,-3.5791,-3.6414,-3.703,-3.846,-3.9338,-3.9859,-4.0477,-4.0659,-4.0473,-2.7925,-2.8039,-2.8196,-2.8196,-2.8196,-2.8196,-2.8196,-2.8196,-2.775,-2.6496,-2.6032,-2.5342,-2.4129,-2.3701,-2.3505,-2.3505,-2.3505,-2.3441,-2.3289,-2.3289,-2.3182,-2.2935,-2.2935,-2.2889,-2.2777,-2.246,-2.2296,-2.2296,-2.2296,-2.2296,-2.2296,-2.2296,-2.2152,-2.184,-2.1811,-2.1632,-2.1372,-2.1325,-2.1293,-2.1293,-2.1293,-2.1293,-2.1293,-2.1293,-2.1293,-2.1374,-2.1956,-2.2264,-2.2653,-2.4353,-2.5185,-2.562,-2.6227,-2.6278,-2.6114,-2.6077,-2.6314,-2.6675,-2.7172,-2.6929,-2.678,-2.7808,-2.7116,-2.6378,-2.721,-2.6986,-2.6956,-2.8231,-2.9027,-2.9766,-3.0703,-3.1213,-3.1573,-3.1943,-3.2264,-3.2691,-3.3215,-3.3275,-3.3724,-3.4921,-3.4592,-3.4532,-3.522,-3.5139,-3.5019,-3.4942,-3.4167,-3.3577,-3.3312,-3.329,-3.329,-3.329,-3.329,-3.3515,-3.3992,-3.3974,-3.4131,-3.4403,-3.5047,-3.5584,-3.6038,-3.6688,-3.6626,-3.5991,-3.5991,-3.5615,-3.5072,-3.6212,-3.677,-3.7071,-3.888,-3.9662,-3.9859,-4.0477,-4.0329,-3.9648,-2.8303,-2.8784,-2.9069,-2.8338,-2.8624,-2.8784,-2.8285,-2.8196,-2.7892,-2.7054,-2.6269,-2.5485,-2.4682,-2.3933,-2.3539,-2.3582,-2.3627,-2.3587,-2.3468,-2.3756,-2.3673,-2.3121,-2.3731,-2.3894,-2.3489,-2.3512,-2.3176,-2.2446,-2.2352,-2.2251,-2.2147,-2.2147,-2.2005,-2.1693,-2.1693,-2.1541,-2.1293,-2.1293,-2.1293,-2.1293,-2.1293,-2.1293,-2.1293,-2.1293,-2.152,-2.1924,-2.2653,-2.3576,-2.4677,-2.6118,-2.6538,-2.6571,-2.7429,-2.7116,-2.6551,-2.7021,-2.7268,-2.7444,-2.7628,-2.7541,-2.7535,-2.8075,-2.7643,-2.7255,-2.7929,-2.7799,-2.7829,-2.8861,-2.9626,-3.0326,-3.106,-3.1415,-3.1857,-3.2558,-3.2838,-3.3215,-3.3873,-3.3994,-3.4352,-3.5385,-3.4906,-3.4741,-3.5429,-3.5148,-3.4854,-3.4758,-3.4167,-3.3646,-3.3326,-3.329,-3.329,-3.329,-3.329,-3.3585,-3.4189,-3.4203,-3.4505,-3.5097,-3.5415,-3.5734,-3.6092,-3.6696,-3.6626,-3.5991,-3.5656,-3.5318,-3.5086,-3.6073,-3.6824,-3.7469,-3.8519,-3.9075,-3.9324,-3.9286,-3.8993,-3.8477,-2.8374,-2.923,-2.9694,-2.8427,-2.8945,-2.923,-2.8338,-2.8196,-2.816,-2.8017,-2.6822,-2.5961,-2.5818,-2.4563,-2.3793,-2.3966,-2.3862,-2.3862,-2.3995,-2.4367,-2.4307,-2.366,-2.4721,-2.5045,-2.4392,-2.4757,-2.4256,-2.2811,-2.2581,-2.2348,-2.2199,-2.2153,-2.2008,-2.1785,-2.1785,-2.1595,-2.1309,-2.1423,-2.1406,-2.1309,-2.1439,-2.1406,-2.1309,-2.1439,-2.1876,-2.2523,-2.3512,-2.5165,-2.696,-2.751,-2.7292,-2.6937,-2.7763,-2.7233,-2.6502,-2.755,-2.8071,-2.8289,-2.814,-2.8413,-2.863,-2.835,-2.7949,-2.7724,-2.8241,-2.8349,-2.8603,-2.951,-3.0292,-3.0928,-3.1183,-3.1805,-3.2429,-3.2993,-3.3427,-3.3858,-3.4429,-3.4608,-3.4861,-3.5429,-3.4996,-3.4876,-3.5444,-3.518,-3.4835,-3.4448,-3.4094,-3.3716,-3.3312,-3.329,-3.329,-3.329,-3.329,-3.3627,-3.4343,-3.4357,-3.5012,-3.6258,-3.6258,-3.6314,-3.6427,-3.6796,-3.6761,-3.6262,-3.5413,-3.5073,-3.5208,-3.5643,-3.646,-3.744,-3.7645,-3.7973,-3.8256,-3.7708,-3.7434,-3.7361,-2.8231,-2.8374,-2.8445,-2.8249,-2.832,-2.8374,-2.8231,-2.8196,-2.7946,-2.7246,-2.6973,-2.6568,-2.589,-2.51,-2.4745,-2.5059,-2.4306,-2.4436,-2.5921,-2.5335,-2.519,-2.5768,-2.5841,-2.579,-2.5565,-2.5291,-2.4653,-2.3643,-2.3257,-2.3035,-2.2957,-2.2834,-2.2679,-2.2458,-2.2458,-2.2019,-2.1342,-2.1989,-2.1892,-2.1358,-2.1989,-2.1876,-2.1374,-2.2005,-2.2313,-2.2653,-2.4594,-2.6277,-2.7591,-2.7672,-2.7439,-2.7168,-2.728,-2.7201,-2.6978,-2.6575,-2.7533,-2.858,-2.793,-2.8211,-2.8685,-2.8638,-2.8116,-2.7564,-2.7413,-2.7391,-2.7894,-2.967,-2.9696,-2.9807,-3.1209,-3.2031,-3.2496,-3.2586,-3.3606,-3.4414,-3.4503,-3.4996,-3.54,-3.5489,-3.5429,-3.54,-3.5489,-3.5439,-3.5129,-3.4448,-3.4346,-3.404,-3.3361,-3.329,-3.329,-3.329,-3.329,-3.3874,-3.5048,-3.5062,-3.5681,-3.6866,-3.6866,-3.7133,-3.7639,-3.7189,-3.7234,-3.7538,-3.5778,-3.5318,-3.5831,-3.5265,-3.5168,-3.5503,-3.6532,-3.6721,-3.6425,-3.665,-3.6766,-3.6764,-2.8196,-2.8891,-2.9212,-2.8356,-2.8909,-2.9194,-2.8338,-2.8196,-2.8071,-2.7714,-2.7281,-2.6866,-2.6514,-2.5864,-2.5422,-2.53,-2.5273,-2.5572,-2.6355,-2.6359,-2.6301,-2.6204,-2.6853,-2.6994,-2.6478,-2.6486,-2.6075,-2.5242,-2.425,-2.3276,-2.2385,-2.2614,-2.2424,-2.189,-2.2313,-2.2264,-2.194,-2.2264,-2.2442,-2.2491,-2.1989,-2.1843,-2.1956,-2.228,-2.2669,-2.3301,-2.5438,-2.7122,-2.8255,-2.785,-2.7619,-2.75,-2.727,-2.6683,-2.6172,-2.6619,-2.7593,-2.8453,-2.8089,-2.8532,-2.8952,-2.8299,-2.7605,-2.7213,-2.765,-2.748,-2.7607,-2.9024,-2.9345,-2.9766,-3.0983,-3.1783,-3.2407,-3.2975,-3.3858,-3.4638,-3.4996,-3.531,-3.5504,-3.5504,-3.5504,-3.5407,-3.518,-3.5148,-3.4949,-3.4448,-3.4196,-3.3922,-3.3612,-3.3382,-3.329,-3.329,-3.329,-3.3916,-3.5175,-3.5189,-3.5808,-3.6978,-3.733,-3.7639,-3.7892,-3.7611,-3.7639,-3.7838,-3.6606,-3.6224,-3.651,-3.581,-3.5723,-3.6048,-3.5857,-3.5592,-3.5285,-3.5475,-3.5973,-3.6474]},{"header":{"parameterUnit":"m.s-1","parameterCategory":1,"la1":30.6,"la2":28.766,"lo1":-90.7593,"lo2":-88.6598,"dy":0.0162,"dx":0.0183,"nx":116,"ny":114,"refTime":"2023-09-02T12:00:00:Z","depth":0,"parameterNumber":3,"parameterNumberName":"V-component_of_WINDS"},"data":[0.0,0.0,0.0,0.0,0.0,0.0,0.0,0.0,0.0,0.0,0.0,0.0,0.0,0.0,0.0,0.0,0.0,0.0,0.0,0.0,0.0,0.0,0.0,0.0,0.0,0.0,0.0,0.0,0.0,0.0,0.0,0.0,0.0,0.0,0.0,0.0,0.0,0.0,0.0,0.0,0.0,0.0,0.0,0.0,0.0,0.0,0.0,0.0,0.0,0.0,0.0,0.0,0.0,0.0,0.0,0.0,0.0,0.0,0.0,0.0,0.0,0.0,0.0,0.0,0.0,0.0,0.0,0.0,0.0,0.0,0.0,0.0,0.0,0.0,0.0,0.0,0.0,0.0,0.0,0.0,0.0,0.0,0.0,0.0,0.0,0.0,0.0,0.0,0.0,0.0,0.0,0.0,0.0,0.0,0.0,0.0,0.0,0.0,0.0,0.0,0.0,0.0,0.0,0.0,0.0,0.0,0.0,0.0,0.0,0.0,0.0,0.0,0.0,0.0,0.0,0.0,0.0,0.0,0.0,0.0,0.0,0.0,0.0,0.0,0.0,0.0,0.0,0.0,0.0,0.0,0.0,0.0,0.0,0.0,0.0,0.0,0.0,0.0,0.0,0.0,0.0,0.0,0.0,0.0,0.0,0.0,0.0,0.0,0.0,0.0,0.0,0.0,0.0,0.0,0.0,0.0,0.0,0.0,0.0,0.0,0.0,0.0,0.0,0.0,0.0,0.0,0.0,0.0,0.0,0.0,0.0,0.0,0.0,0.0,0.0,0.0,0.0,0.0,0.0,0.0,0.0,0.0,0.0,0.0,0.0,0.0,0.0,0.0,0.0,0.0,0.0,0.0,0.0,0.0,0.0,0.0,0.0,0.0,0.0,0.0,0.0,0.0,0.0,0.0,0.0,0.0,0.0,0.0,0.0,0.0,0.0,0.0,0.0,0.0,0.0,0.0,0.0,0.0,0.0,0.0,0.0,0.0,0.0,0.0,0.0,0.0,0.0,0.0,0.0,0.0,0.0,0.0,0.0,0.0,0.0,0.0,0.0,0.0,0.0,0.0,0.0,0.0,0.0,0.0,0.0,0.0,0.0,0.0,0.0,0.0,0.0,0.0,0.0,0.0,0.0,0.0,0.0,0.0,0.0,0.0,0.0,0.0,0.0,0.0,0.0,0.0,0.0,0.0,0.0,0.0,0.0,0.0,0.0,0.0,0.0,0.0,0.0,0.0,0.0,0.0,0.0,0.0,0.0,0.0,0.0,0.0,0.0,0.0,0.0,0.0,0.0,0.0,0.0,0.0,0.0,0.0,0.0,0.0,0.0,0.0,0.0,0.0,0.0,0.0,0.0,0.0,0.0,0.0,0.0,0.0,0.0,0.0,0.0,0.0,0.0,0.0,0.0,0.0,0.0,0.0,0.0,0.0,0.0,0.0,0.0,0.0,0.0,0.0,0.0,0.0,0.0,0.0,0.0,0.0,0.0,0.0,0.0,0.0,0.0,0.0,0.0,0.0,0.0,0.0,0.0,0.0,0.0,0.0,0.0,0.0,0.0,0.0,0.0,0.0,0.0,0.0,0.0,0.0,0.0,0.0,0.0,0.0,0.0,0.0,0.0,0.0,0.0,0.0,0.0,0.0,0.0,0.0,0.0,0.0,0.0,0.0,0.0,0.0,0.0,0.0,0.0,0.0,0.0,0.0,0.0,0.0,0.0,0.0,0.0,0.0,0.0,0.0,0.0,0.0,0.0,0.0,0.0,0.0,0.0,0.0,0.0,0.0,0.0,0.0,0.0,0.0,0.0,0.0,0.0,0.0,0.0,0.0,0.0,0.0,0.0,0.0,0.0,0.0,0.0,0.0,0.0,0.0,0.0,0.0,0.0,0.0,0.0,0.0,0.0,0.0,0.0,0.0,0.0,0.0,0.0,0.0,0.0,0.0,0.0,0.0,0.0,0.0,0.0,0.0,0.0,0.0,0.0,0.0,0.0,0.0,0.0,0.0,0.0,0.0,0.0,0.0,0.0,0.0,0.0,0.0,0.0,0.0,0.0,0.0,0.0,0.0,0.0,0.0,0.0,0.0,0.0,0.0,0.0,0.0,0.0,0.0,0.0,0.0,0.0,0.0,0.0,0.0,0.0,0.0,0.0,0.0,0.0,0.0,0.0,0.0,0.0,0.0,0.0,0.0,0.0,0.0,0.0,0.0,0.0,0.0,0.0,0.0,0.0,0.0,0.0,0.0,0.0,0.0,0.0,0.0,0.0,0.0,0.0,0.0,0.0,0.0,0.0,0.0,0.0,0.0,0.0,0.0,0.0,0.0,0.0,0.0,0.0,0.0,0.0,0.0,0.0,0.0,0.0,0.0,0.0,0.0,0.0,0.0,0.0,0.0,0.0,0.0,0.0,0.0,0.0,0.0,0.0,0.0,0.0,0.0,0.0,0.0,0.0,0.0,0.0,0.0,0.0,0.0,0.0,0.0,0.0,0.0,0.0,0.0,0.0,0.0,0.0,0.0,0.0,0.0,0.0,0.0,0.0,0.0,0.0,0.0,0.0,0.0,0.0,0.0,0.0,0.0,0.0,0.0,0.0,0.0,0.0,0.0,0.0,0.0,0.0,0.0,0.0,0.0,0.0,0.0,0.0,0.0,0.0,0.0,0.0,0.0,0.0,0.0,0.0,0.0,0.0,0.0,0.0,0.0,0.0,0.0,0.0,0.0,0.0,0.0,0.0,0.0,0.0,0.0,0.0,0.0,0.0,0.0,0.0,0.0,0.0,0.0,0.0,0.0,0.0,0.0,0.0,0.0,0.0,0.0,0.0,0.0,0.0,0.0,0.0,0.0,0.0,0.0,0.0,0.0,0.0,0.0,0.0,0.0,0.0,0.0,0.0,0.0,0.0,0.0,0.0,0.0,0.0,0.0,0.0,0.0,0.0,0.0,0.0,0.0,0.0,0.0,0.0,0.0,0.0,0.0,0.0,0.0,0.0,0.0,0.0,0.0,0.0,0.0,0.0,0.0,0.0,0.0,0.0,0.0,0.0,0.0,0.0,0.0,0.0,0.0,0.0,0.0,0.0,0.0,0.0,0.0,0.0,0.0,0.0,0.0,0.0,0.0,0.0,0.0,0.0,0.0,0.0,0.0,0.0,0.0,0.0,0.0,0.0,0.0,0.0,0.0,0.0,0.0,0.0,0.0,0.0,0.0,0.0,0.0,0.0,0.0,0.0,0.0,0.0,0.0,0.0,0.0,0.0,0.0,0.0,0.0,0.0,0.0,0.0,0.0,0.0,0.0,0.0,0.0,0.0,0.0,0.0,0.0,0.0,0.0,0.0,0.0,0.0,0.0,0.0,0.0,0.0,0.0,0.0,0.0,0.0,0.0,0.0,0.0,0.0,0.0,0.0,0.0,0.0,0.0,0.0,0.0,0.0,0.0,0.0,0.0,0.0,0.0,0.0,0.0,0.0,0.0,0.0,0.0,0.0,0.0,0.0,0.0,0.0,0.0,0.0,0.0,0.0,0.0,0.0,0.0,0.0,0.0,0.0,0.0,0.0,0.0,0.0,0.0,0.0,0.0,0.0,0.0,0.0,0.0,0.0,0.0,0.0,0.0,0.0,0.0,0.0,0.0,0.0,0.0,0.0,0.0,0.0,0.0,0.0,0.0,0.0,0.0,0.0,0.0,0.0,0.0,0.0,0.0,0.0,0.0,0.0,0.0,0.0,0.0,0.0,0.0,0.0,0.0,0.0,0.0,0.0,0.0,0.0,0.0,0.0,0.0,0.0,0.0,0.0,0.0,0.0,0.0,0.0,0.0,0.0,0.0,0.0,0.0,0.0,0.0,0.0,0.0,0.0,0.0,0.0,0.0,0.0,0.0,0.0,0.0,0.0,0.0,0.0,0.0,0.0,0.0,0.0,0.0,0.0,0.0,0.0,0.0,0.0,0.0,0.0,0.0,0.0,0.0,0.0,0.0,0.0,0.0,0.0,0.0,0.0,0.0,0.0,0.0,0.0,0.0,0.0,0.0,0.0,0.0,0.0,0.0,0.0,0.0,0.0,0.0,0.0,0.0,0.0,0.0,0.0,0.0,0.0,0.0,0.0,0.0,0.0,0.0,0.0,0.0,0.0,0.0,0.0,0.0,0.0,0.0,0.0,0.0,0.0,0.0,0.0,0.0,0.0,0.0,0.0,0.0,0.0,0.0,0.0,0.0,0.0,0.0,0.0,0.0,0.0,0.0,0.0,0.0,0.0,0.0,0.0,0.0,0.0,0.0,0.0,0.0,0.0,0.0,0.0,0.0,0.0,0.0,0.0,0.0,0.0,0.0,0.0,0.0,0.0,0.0,0.0,0.0,0.0,0.0,0.0,0.0,0.0,0.0,0.0,0.0,0.0,0.0,0.0,0.0,0.0,0.0,0.0,0.0,0.0,0.0,0.0,0.0,0.0,0.0,0.0,0.0,0.0,0.0,0.0,0.0,0.0,0.0,0.0,0.0,0.0,0.0,0.0,0.0,0.0,0.0,0.0,0.0,0.0,0.0,0.0,0.0,0.0,0.0,0.0,0.0,0.0,0.0,0.0,0.0,0.0,0.0,0.0,0.0,0.0,0.0,0.0,0.0,0.0,0.0,0.0,0.0,0.0,0.0,0.0,0.0,0.0,0.0,0.0,0.0,0.0,0.0,0.0,0.0,0.0,0.0,0.0,0.0,0.0,0.0,0.0,0.0,0.0,0.0,0.0,0.0,0.0,0.0,0.0,0.0,0.0,0.0,0.0,0.0,0.0,0.0,0.0,0.0,0.0,0.0,0.0,0.0,0.0,0.0,0.0,0.0,0.0,0.0,0.0,0.0,0.0,0.0,0.0,0.0,0.0,0.0,0.0,0.0,0.0,0.0,0.0,0.0,0.0,0.0,0.0,0.0,0.0,0.0,0.0,0.0,0.0,0.0,0.0,0.0,0.0,0.0,0.0,0.0,0.0,0.0,0.0,0.0,0.0,0.0,0.0,0.0,0.0,0.0,0.0,0.0,0.0,0.0,0.0,0.0,0.0,0.0,0.0,0.0,0.0,0.0,0.0,0.0,0.0,0.0,0.0,0.0,0.0,0.0,0.0,0.0,0.0,0.0,0.0,0.0,0.0,0.0,0.0,0.0,0.0,0.0,0.0,0.0,0.0,0.0,0.0,0.0,0.0,0.0,0.0,0.0,0.0,0.0,0.0,0.0,0.0,0.0,0.0,0.0,0.0,0.0,0.0,0.0,0.0,0.0,0.0,0.0,0.0,0.0,0.0,0.0,0.0,0.0,0.0,0.0,0.0,0.0,0.0,0.0,0.0,0.0,0.0,0.0,0.0,0.0,0.0,0.0,0.0,0.0,0.0,0.0,0.0,0.0,0.0,0.0,0.0,0.0,0.0,0.0,0.0,0.0,0.0,0.0,0.0,0.0,0.0,0.0,0.0,0.0,0.0,0.0,0.0,0.0,0.0,0.0,0.0,0.0,0.0,0.0,0.0,0.0,0.0,0.0,0.0,0.0,0.0,0.0,0.0,0.0,0.0,0.0,0.0,0.0,0.0,0.0,0.0,0.0,0.0,0.0,0.0,0.0,0.0,0.0,0.0,0.0,0.0,0.0,0.0,0.0,0.0,0.0,0.0,0.0,0.0,0.0,0.0,0.0,0.0,0.0,0.0,0.0,0.0,0.0,0.0,0.0,0.0,0.0,0.0,0.0,0.0,0.0,0.0,0.0,0.0,0.0,0.0,0.0,0.0,0.0,0.0,0.0,0.0,0.0,0.0,0.0,0.0,0.0,0.0,0.0,0.0,0.0,0.0,0.0,0.0,0.0,0.0,0.0,0.0,0.0,0.0,0.0,0.0,0.0,0.0,0.0,0.0,0.0,0.0,0.0,0.0,0.0,0.0,0.0,0.0,0.0,0.0,0.0,0.0,0.0,0.0,0.0,0.0,0.0,0.0,0.0,0.0,0.0,0.0,0.0,0.0,0.0,0.0,0.0,0.0,0.0,0.0,0.0,0.0,0.0,0.0,0.0,0.0,0.0,0.0,0.0,0.0,0.0,0.0,0.0,0.0,0.0,0.0,0.0,0.0,0.0,2.5778,2.448,0.0,0.0,0.0,0.0,0.0,0.0,0.0,0.0,0.0,0.0,0.0,0.0,0.0,0.0,0.0,0.0,0.0,0.0,0.0,0.0,0.0,0.0,0.0,0.0,0.0,0.0,0.0,0.0,0.0,0.0,0.0,0.0,0.0,0.0,0.0,0.0,0.0,0.0,2.4754,2.4369,2.387,2.4733,2.5621,2.6482,0.0,0.0,0.0,0.0,0.0,0.0,0.0,0.0,0.0,0.0,0.0,0.0,0.0,0.0,0.0,0.0,0.0,0.0,0.0,0.0,0.0,0.0,0.0,0.0,0.0,0.0,0.0,0.0,0.0,0.0,0.0,0.0,0.0,0.0,0.0,0.0,0.0,0.0,0.0,0.0,0.0,0.0,0.0,0.0,0.0,0.0,0.0,0.0,0.0,0.0,0.0,0.0,0.0,0.0,0.0,0.0,0.0,0.0,0.0,0.0,0.0,0.0,0.0,0.0,0.0,0.0,0.0,0.0,0.0,0.0,2.8807,2.6374,0.0,0.0,0.0,0.0,0.0,0.0,0.0,0.0,0.0,0.0,0.0,0.0,0.0,0.0,0.0,0.0,0.0,0.0,0.0,0.0,0.0,0.0,0.0,0.0,2.3515,2.3751,2.3854,0.0,0.0,0.0,0.0,0.0,0.0,0.0,0.0,2.4804,2.4795,2.4617,2.4498,2.4348,2.4228,2.5183,2.6037,2.6817,2.7426,0.0,0.0,0.0,0.0,0.0,0.0,0.0,0.0,0.0,0.0,0.0,0.0,0.0,0.0,0.0,0.0,0.0,0.0,0.0,0.0,0.0,0.0,0.0,0.0,0.0,0.0,0.0,0.0,0.0,0.0,0.0,0.0,0.0,0.0,0.0,0.0,0.0,0.0,0.0,0.0,0.0,0.0,0.0,0.0,0.0,0.0,0.0,0.0,0.0,0.0,0.0,0.0,0.0,0.0,0.0,0.0,0.0,0.0,0.0,0.0,0.0,0.0,0.0,3.6034,3.7134,3.8108,3.8466,3.7863,3.632,3.2842,2.9601,2.677,2.6909,0.0,0.0,0.0,0.0,0.0,0.0,0.0,0.0,0.0,0.0,0.0,0.0,0.0,0.0,0.0,0.0,0.0,0.0,0.0,0.0,0.0,2.2621,2.2759,2.278,2.3317,2.372,0.0,0.0,0.0,0.0,0.0,0.0,2.4024,2.4317,2.4407,2.4266,2.4766,2.5146,2.5503,2.6997,2.8071,2.8698,2.8018,2.8631,3.0123,0.0,0.0,0.0,0.0,0.0,0.0,0.0,0.0,0.0,0.0,0.0,0.0,0.0,0.0,0.0,0.0,0.0,0.0,0.0,0.0,0.0,0.0,0.0,0.0,0.0,0.0,0.0,0.0,0.0,0.0,0.0,0.0,0.0,0.0,0.0,0.0,0.0,0.0,0.0,0.0,0.0,2.5308,2.5348,0.0,0.0,0.0,0.0,0.0,0.0,0.0,0.0,0.0,0.0,0.0,0.0,0.0,3.4908,3.6442,3.8397,3.9127,3.8697,4.11,4.203,4.1731,4.1783,4.1091,3.9801,3.8686,0.0,3.0911,2.9977,0.0,0.0,0.0,0.0,0.0,0.0,0.0,0.0,0.0,0.0,0.0,0.0,0.0,0.0,0.0,0.0,0.0,0.0,0.0,0.0,0.0,2.2476,2.2926,2.3195,2.4357,2.4869,2.4444,0.0,0.0,0.0,0.0,2.3891,2.372,2.3943,2.4379,2.5034,2.5709,2.655,2.7511,2.81,2.8762,2.9441,2.9357,2.9529,2.9862,2.9642,0.0,0.0,0.0,0.0,0.0,0.0,0.0,0.0,0.0,0.0,0.0,0.0,0.0,0.0,0.0,0.0,0.0,0.0,0.0,0.0,0.0,0.0,0.0,0.0,0.0,0.0,0.0,0.0,0.0,0.0,0.0,0.0,0.0,0.0,0.0,0.0,0.0,0.0,0.0,2.506,2.5706,2.5222,2.6019,2.6495,0.0,0.0,0.0,0.0,0.0,0.0,0.0,0.0,0.0,3.8065,3.8396,3.9217,4.0689,4.2342,4.3015,4.2731,4.4246,4.505,4.514,4.514,4.42,4.2546,4.1633,3.9284,3.5869,3.3338,3.1171,2.9432,0.0,0.0,0.0,0.0,3.3188,3.4547,0.0,0.0,0.0,0.0,0.0,0.0,0.0,0.0,0.0,0.0,0.0,0.0,2.1643,2.2385,2.3074,2.358,2.4969,2.5506,2.473,2.5022,0.0,0.0,2.3707,2.3624,2.3473,2.4008,2.4849,2.6011,2.7347,2.857,2.9612,2.9864,3.0231,3.0678,3.1308,3.1011,3.0053,3.0277,2.999,2.9349,0.0,0.0,0.0,0.0,0.0,0.0,0.0,0.0,0.0,0.0,0.0,0.0,0.0,0.0,0.0,0.0,0.0,0.0,0.0,0.0,0.0,0.0,0.0,0.0,0.0,0.0,0.0,0.0,0.0,0.0,0.0,0.0,0.0,0.0,0.0,0.0,0.0,2.5588,2.6071,2.5348,2.72,2.8113,0.0,0.0,0.0,0.0,0.0,0.0,3.4835,3.5776,3.8068,4.2043,4.247,4.3398,4.5039,4.5903,4.6486,4.6815,4.6995,4.7339,4.7788,4.7285,4.5933,4.3916,4.2953,4.1334,3.9164,3.6021,3.3392,3.1334,3.1281,3.1489,3.2155,3.4822,3.6602,3.7877,0.0,0.0,0.0,0.0,0.0,0.0,0.0,0.0,0.0,0.0,0.0,2.0385,2.1497,2.2148,2.2769,2.337,2.4257,2.4591,2.416,2.3471,2.3165,2.3407,2.3418,2.3336,2.3126,2.4746,2.6006,2.6841,2.9816,3.137,3.1591,3.3059,3.3531,3.3262,3.399,3.3465,3.1951,3.0465,3.0068,3.0317,2.9054,0.0,0.0,0.0,0.0,0.0,0.0,0.0,0.0,0.0,0.0,0.0,0.0,0.0,0.0,0.0,0.0,0.0,0.0,0.0,0.0,0.0,0.0,0.0,0.0,0.0,0.0,0.0,0.0,0.0,0.0,0.0,0.0,0.0,0.0,0.0,0.0,0.0,0.0,2.5954,2.9323,0.0,0.0,0.0,0.0,3.2761,3.4043,3.6093,3.9039,3.984,4.1914,4.5712,4.5858,4.7154,4.9822,4.9344,4.9688,5.0915,4.9688,4.9179,4.9119,4.7229,4.528,4.3389,4.2652,4.1248,3.9337,3.7449,3.6535,3.6215,3.5022,3.5274,3.6325,3.6561,3.7364,3.8465,0.0,0.0,0.0,0.0,0.0,0.0,0.0,0.0,0.0,2.1023,2.0853,2.1064,2.1944,2.2737,2.3777,2.5212,2.577,2.588,2.5489,2.4823,2.4125,2.3422,2.3398,2.413,2.5695,2.6809,2.823,2.9986,3.1568,3.3143,3.4654,3.4299,3.4716,3.5737,3.5116,3.4649,3.4292,3.2767,3.1524,3.0446,2.9009,2.8658,0.0,0.0,0.0,0.0,0.0,0.0,0.0,0.0,0.0,0.0,0.0,0.0,0.0,0.0,0.0,0.0,0.0,0.0,0.0,0.0,0.0,0.0,0.0,0.0,0.0,0.0,0.0,0.0,0.0,0.0,0.0,0.0,0.0,0.0,0.0,0.0,0.0,3.0109,3.259,0.0,3.3048,3.3465,3.4072,3.465,3.6312,3.8308,4.0618,4.2379,4.4772,4.7948,4.7539,4.7952,4.9454,4.9143,4.9223,4.9625,4.8395,4.7846,4.7742,4.5846,4.4093,4.2597,4.2035,4.1355,4.0539,3.9578,3.8471,3.7295,3.6787,3.686,3.7469,3.9088,4.0238,4.1071,0.0,0.0,0.0,0.0,0.0,0.0,0.0,0.0,2.0484,2.043,2.076,2.1324,2.22,2.3141,2.4312,2.5857,2.5853,2.5464,2.4772,2.3968,2.3182,2.2425,2.3467,2.4933,2.6771,2.8543,3.0297,3.2068,3.3343,3.4775,3.6317,3.5386,3.5553,3.6508,3.5364,3.4913,3.5001,3.4135,3.2841,3.1221,2.9666,2.9625,3.0176,0.0,0.0,0.0,0.0,0.0,0.0,0.0,0.0,0.0,0.0,0.0,0.0,0.0,0.0,0.0,0.0,0.0,0.0,0.0,0.0,0.0,0.0,0.0,0.0,0.0,0.0,0.0,0.0,0.0,0.0,0.0,0.0,0.0,0.0,2.9338,3.1467,3.3403,3.5495,3.6612,3.625,3.6609,3.7044,3.7399,3.9002,4.0722,4.2433,4.4193,4.621,4.8537,4.809,4.8338,4.9335,4.8956,4.9023,4.9466,4.8195,4.7429,4.6986,4.5235,4.3635,4.2168,4.1815,4.149,4.1178,4.089,3.9946,3.8636,3.8379,3.8247,3.8437,4.0136,4.131,4.2131,0.0,0.0,0.0,0.0,0.0,0.0,0.0,2.0304,2.0246,1.9591,2.017,2.107,2.2185,2.3255,2.4273,2.5145,2.4244,2.3133,2.1911,2.0654,2.0127,2.0469,2.3644,2.5641,2.6174,2.9832,3.2118,3.2896,3.517,3.6312,3.6397,3.6438,3.6128,3.5496,3.4857,3.4357,3.4068,3.4398,3.3935,3.2768,3.1066,3.1079,3.1859,0.0,0.0,0.0,0.0,0.0,0.0,0.0,0.0,0.0,0.0,0.0,0.0,0.0,0.0,0.0,0.0,0.0,0.0,0.0,0.0,0.0,0.0,0.0,0.0,0.0,0.0,0.0,0.0,0.0,0.0,0.0,0.0,0.0,2.9228,3.1014,3.3168,3.5474,3.7867,3.9075,3.8416,4.0039,4.1113,4.1024,4.2193,4.3457,4.4587,4.5288,4.6271,4.7643,4.7671,4.8345,4.9701,4.9073,4.9387,5.0666,4.933,4.8089,4.6967,4.5577,4.3909,4.2151,4.2062,4.1706,4.1205,4.1284,4.0984,4.0439,3.9823,3.9517,3.9382,3.954,4.0317,4.1505,0.0,0.0,0.0,0.0,0.0,0.0,0.0,1.9878,1.9732,1.9593,2.0895,2.2,2.2465,2.3651,2.4733,2.5487,2.3798,2.2559,2.2238,2.0379,2.0205,2.226,2.4364,2.6955,3.0149,3.1707,3.3262,3.4844,3.5472,3.6101,3.6669,3.6048,3.5852,3.6,3.5701,3.5305,3.4845,3.5621,3.5791,3.5325,3.2713,3.1654,3.1452,0.0,0.0,0.0,0.0,0.0,0.0,0.0,0.0,0.0,0.0,0.0,0.0,0.0,0.0,0.0,0.0,0.0,0.0,0.0,0.0,0.0,0.0,0.0,0.0,0.0,0.0,0.0,0.0,0.0,0.0,0.0,2.9542,3.1437,3.1923,3.3955,3.6253,3.8667,3.9909,4.0886,4.1558,4.1734,4.1814,4.1814,4.2946,4.3771,4.4106,4.5461,4.6709,4.7657,4.7119,4.7305,4.8266,4.7535,4.7543,4.8301,4.7088,4.6109,4.5338,4.4047,4.2719,4.1415,4.1841,4.1706,4.1205,4.1284,4.0984,4.0389,3.9409,3.9013,3.9042,3.9451,4.0631,4.2015,0.0,0.0,0.0,0.0,0.0,0.0,0.0,1.8681,1.878,1.7949,2.0075,2.1601,2.1374,2.2204,2.315,2.3973,2.1973,2.056,2.0445,1.9854,2.0505,2.2756,2.552,2.8412,3.145,3.2805,3.4044,3.5125,3.5449,3.5745,3.5991,3.5504,3.5505,3.5841,3.5321,3.499,3.4852,3.5398,3.5439,3.5064,3.4281,3.4053,3.3974,3.1748,3.1297,3.1608,3.0144,2.9867,2.9916,2.8302,0.0,0.0,0.0,0.0,0.0,0.0,0.0,0.0,0.0,0.0,0.0,0.0,0.0,0.0,0.0,0.0,0.0,0.0,0.0,0.0,0.0,0.0,0.0,0.0,3.1539,3.3832,3.5563,3.6697,3.8256,4.0689,4.1272,4.1761,4.2439,4.2496,4.2435,4.2435,4.355,4.4235,4.4235,4.5662,4.6717,4.7171,4.6717,4.6717,4.7171,4.6717,4.6698,4.7024,4.6292,4.5519,4.4678,4.3972,4.2995,4.1896,4.248,4.2299,4.1564,4.1653,4.1204,4.0338,0.0,0.0,0.0,0.0,4.01,4.1169,0.0,0.0,0.0,0.0,0.0,0.0,0.0,1.7261,1.7705,1.577,1.8461,2.0225,1.9359,1.9775,2.0463,2.1315,1.9399,1.7998,1.7732,1.9291,2.0985,2.2655,2.677,2.9688,3.1135,3.3282,3.4423,3.4497,3.5144,3.5263,3.4852,3.4907,3.507,3.5236,3.4357,3.4123,3.4355,3.4451,3.4031,3.349,3.547,3.6829,3.731,3.4048,3.3672,3.4635,3.2371,3.1375,3.0897,2.9477,0.0,0.0,0.0,0.0,0.0,0.0,0.0,0.0,0.0,0.0,0.0,0.0,0.0,0.0,0.0,0.0,0.0,0.0,0.0,0.0,0.0,0.0,0.0,0.0,3.3371,3.5915,3.8901,3.8901,3.9442,4.1768,4.1951,4.1971,4.21,4.2588,4.2887,4.2887,4.3945,4.4573,4.459,4.5763,0.0,0.0,0.0,4.6469,4.6469,4.6469,4.6469,4.6469,4.6469,4.5885,4.48,4.48,4.4108,4.2928,4.3592,4.3148,4.1927,4.2088,4.1439,4.0147,3.8616,3.8285,3.8691,3.8707,3.9046,3.959,0.0,0.0,0.0,0.0,0.0,0.0,0.0,1.735,1.7344,1.6334,1.7897,1.8615,1.7324,1.823,1.8921,1.8898,1.7738,1.721,1.7675,1.9413,2.1571,2.4084,2.6937,2.9444,3.1546,3.2914,3.3917,3.4497,3.4628,3.4669,3.4586,3.4551,3.4525,3.4607,3.4949,3.468,3.406,3.4688,3.4835,3.4667,3.5217,3.5222,3.4962,3.5708,3.5367,3.4376,3.3899,3.3685,3.3411,3.1524,3.0818,3.0332,2.7947,2.5935,0.0,0.0,0.0,0.0,0.0,0.0,0.0,0.0,0.0,0.0,0.0,0.0,0.0,0.0,0.0,0.0,0.0,0.0,0.0,3.1681,3.3861,3.5968,3.7941,3.8713,3.9826,4.1866,4.1638,4.1702,4.2622,4.2819,4.2887,4.2887,4.3552,4.3949,4.3964,4.5099,4.5759,4.5755,4.6258,4.6469,4.6469,4.6469,4.6469,4.6469,4.6469,0.0,4.5424,4.5424,4.4488,4.2941,4.4054,4.3061,4.0818,4.178,4.1002,3.9108,3.8328,3.8032,3.8031,3.7619,3.8115,3.8965,0.0,0.0,0.0,0.0,0.0,0.0,0.0,1.6419,1.654,1.5358,1.6879,1.7777,1.6888,1.7461,1.8084,1.8557,1.7764,1.7585,1.8352,2.0217,2.2399,2.4855,2.7457,2.9674,3.1407,3.2567,3.3408,3.3899,3.3899,3.3899,3.3915,3.3863,3.4243,3.4912,3.5096,3.5155,3.5192,3.5138,3.4871,3.4448,3.4344,3.398,3.3724,3.5893,3.6059,3.5197,3.553,3.5424,3.4929,3.3452,3.248,3.147,2.9021,2.738,2.6083,0.0,0.0,0.0,0.0,0.0,0.0,0.0,0.0,0.0,0.0,0.0,0.0,0.0,0.0,2.7488,2.7747,0.0,3.1343,3.3027,3.4383,3.5782,3.7275,3.7861,3.8748,4.038,4.1221,4.175,4.2041,4.2566,4.2887,4.2887,4.3443,4.3827,4.3784,4.4669,4.5153,4.514,4.5702,4.6034,4.6034,4.6364,4.6469,4.6469,4.6469,4.6319,4.6021,4.5723,4.5098,4.4257,4.4569,4.3399,4.1261,4.1054,4.0122,3.8856,3.8228,3.7823,3.7495,3.6937,3.7268,3.7939,0.0,0.0,0.0,0.0,0.0,0.0,0.0,0.0,1.598,1.4681,1.6006,1.7055,1.6933,1.6769,1.7137,1.829,1.8135,1.8403,1.9384,2.1314,2.3407,2.5611,2.7944,2.9809,3.1165,3.2133,3.281,3.3229,3.3282,3.3309,3.3309,3.3355,3.4017,3.5077,3.4958,3.5324,3.5971,3.5108,3.4367,3.3729,3.3161,3.2812,3.2847,3.4482,3.5198,3.538,3.5919,3.547,3.4558,3.407,3.2936,3.147,2.9711,2.8627,2.7442,2.4415,2.3972,0.0,0.0,0.0,0.0,0.0,0.0,0.0,0.0,2.6544,2.7156,2.8287,2.9135,2.9807,3.0267,3.1518,3.2877,3.408,3.4674,3.5341,3.6433,3.6762,3.7192,3.8197,4.0319,4.1522,4.1157,4.2105,4.2741,4.2741,4.3125,4.3342,4.3462,4.403,4.4401,4.4559,4.5221,4.5595,4.5595,4.6206,4.6414,4.6306,4.6414,4.6414,4.6292,4.5926,4.5695,4.5546,4.4739,4.3526,4.207,4.0478,3.9473,3.8856,3.8228,3.7663,3.7123,3.6619,3.664,3.6968,0.0,0.0,0.0,0.0,0.0,0.0,0.0,0.0,0.0,1.6352,1.5928,1.5887,1.6577,1.5543,1.5169,1.609,1.7698,1.9256,2.0623,2.2512,2.4699,2.7154,2.7954,2.9217,3.1171,3.1451,3.2002,3.2951,3.3176,3.3309,3.3324,3.3611,3.3833,3.4008,3.462,3.4708,3.433,3.367,3.3401,3.3252,3.183,3.1516,3.1698,3.0599,3.1263,3.2827,3.2886,3.1712,3.0285,3.1377,3.0916,2.9997,3.056,2.9242,2.7256,2.6104,2.4096,2.2414,2.3165,2.3832,2.4688,2.6239,2.5959,2.6599,0.0,3.1136,3.019,3.1853,3.2279,3.2285,3.1995,3.2733,3.3479,3.38,3.4285,3.4625,3.478,3.5488,3.5831,3.5573,3.8295,4.0426,4.0815,4.1654,4.2177,4.2177,4.1835,4.1783,4.2291,4.2853,4.3412,4.3971,4.5018,4.5595,4.5595,4.6206,4.6211,4.5695,4.6225,4.6197,4.5709,4.617,4.6089,4.5533,4.3889,4.2799,4.2121,4.0888,3.9817,3.8856,3.8228,3.7663,3.7123,3.6619,3.6452,3.6499,0.0,0.0,0.0,0.0,0.0,0.0,0.0,0.0,0.0,0.0,1.5781,1.6105,1.6756,1.7456,1.7898,1.7946,1.8717,1.9801,2.1211,2.2071,2.3512,2.5763,2.7449,2.8825,2.9942,3.1493,3.2558,3.3123,3.3085,3.315,3.3309,3.3271,3.3478,3.3867,3.4187,3.4076,3.3627,3.3379,3.2695,3.1684,3.0504,2.9611,2.8869,2.7411,2.6699,2.6777,2.8763,2.9083,0.0,2.8545,2.8231,2.7883,2.8047,2.7388,2.6242,2.4704,2.4084,2.4179,2.5633,2.5494,2.5469,2.7531,2.8195,2.8958,3.1607,3.1725,3.1675,3.3057,3.3399,3.3432,3.3415,3.3748,3.4038,3.4164,3.4392,3.4356,3.4019,3.4383,3.4338,3.3507,3.5649,3.7817,3.9285,4.0323,4.1082,4.162,4.1421,4.1372,4.1631,4.2188,4.2441,4.2401,4.38,4.4416,4.4064,4.5316,4.586,4.5605,4.5838,4.5831,4.5587,4.5492,4.5112,4.4501,4.3147,4.2383,4.2013,4.0298,3.9271,3.875,3.7898,3.7199,3.6719,3.6493,3.6405,3.6405,0.0,0.0,0.0,0.0,0.0,0.0,0.0,0.0,0.0,0.0,1.5893,1.615,1.6576,1.8449,1.9524,1.9197,1.9593,2.0239,2.1126,2.1564,2.2663,2.4548,2.6519,2.8166,2.9414,3.1326,3.2613,3.3176,3.3005,3.2922,3.3024,3.2841,3.2956,3.3318,3.3413,3.3201,3.2782,3.2629,3.1596,2.9954,2.8734,2.7496,2.6114,2.4241,2.2785,2.2151,2.4934,2.5713,2.5397,2.5376,2.5232,2.5126,2.5411,2.5349,2.4947,2.3741,2.4313,2.5548,2.6366,2.6421,2.6697,2.8459,2.9827,3.0859,3.1425,3.1933,3.2582,3.3499,3.3671,3.3625,3.3615,3.3761,3.3883,3.3867,3.4118,3.4148,3.3649,3.3481,3.303,3.2072,3.3196,3.479,3.6751,3.8552,3.9893,4.068,4.0807,4.0926,4.1051,4.1446,4.1643,4.1555,4.2894,4.3451,4.3015,4.4451,4.4984,4.4666,4.4987,4.5043,4.4881,4.4776,4.4366,4.3769,4.2971,4.2325,4.173,3.9813,3.8704,3.8173,3.7241,3.6643,3.6298,3.6499,3.6411,3.6132,0.0,0.0,0.0,0.0,0.0,0.0,0.0,0.0,0.0,0.0,0.0,0.0,0.0,1.7136,1.8145,1.8314,1.9818,2.058,2.0177,2.1469,2.2941,2.4448,2.5131,2.6994,3.0196,3.067,3.1524,3.2897,3.2897,3.2714,3.2339,3.2404,3.2222,3.1877,3.213,3.1942,3.143,3.0917,2.9841,2.8286,2.6379,2.5137,2.403,2.0925,2.0047,2.0632,2.1833,2.0935,1.9522,2.1768,2.1956,2.1616,2.3613,2.3863,2.3527,2.4311,2.5051,2.532,2.4155,2.598,2.8305,2.8797,3.0017,3.1401,3.249,3.2775,3.2953,3.3473,3.3321,3.2812,3.2086,3.2411,3.2639,3.2416,3.3182,3.3746,3.3631,3.2905,3.2104,3.1487,3.1188,3.156,3.2958,3.6394,3.8739,3.9237,3.9544,3.9987,4.0488,4.0538,4.1028,4.215,4.2758,4.3041,4.3015,4.3619,4.3402,4.2303,4.3419,4.3648,4.3115,4.4182,4.4366,4.3818,4.3769,4.2824,4.1219,3.9838,3.8317,3.6819,3.6233,3.5977,3.6023,3.6815,3.6438,3.552,0.0,0.0,0.0,0.0,0.0,0.0,0.0,0.0,0.0,0.0,0.0,0.0,0.0,0.0,0.0,0.0,1.9605,2.0198,2.0793,2.0887,2.1394,2.2451,2.3605,2.5012,2.6739,2.8245,2.9454,3.0373,3.0185,3.015,3.0156,3.0011,2.9797,2.9583,3.0044,2.9669,2.867,2.9308,2.868,2.7085,2.5721,2.4186,2.2443,1.9963,1.8328,1.7402,0.0,1.7836,1.7936,1.8087,1.8132,1.8221,1.878,1.9484,2.0653,2.3403,2.4006,2.439,2.7072,2.8434,2.9393,3.0763,3.1423,3.1898,3.26,3.2406,3.203,3.1741,3.159,3.1127,3.0058,3.0194,3.0659,3.1189,3.1811,3.2269,3.2411,3.2234,3.1675,3.0494,3.0874,3.1331,3.1545,3.3825,3.5868,3.7256,3.7965,3.8585,3.9074,3.9431,3.9894,4.0526,4.0869,4.1122,4.1332,4.2272,4.259,4.2215,4.2963,4.2971,4.2448,4.3157,4.3389,4.3185,4.2829,4.2351,4.164,3.9154,3.7817,3.722,3.5978,3.5658,3.5976,3.6815,3.6829,3.6483,0.0,0.0,0.0,0.0,0.0,0.0,0.0,0.0,0.0,0.0,0.0,0.0,0.0,0.0,0.0,0.0,0.0,1.9986,2.0657,2.0448,2.0593,2.1219,2.2527,2.3795,2.497,2.6551,2.7699,2.8388,2.7849,2.7621,2.7614,2.7237,2.6909,2.6656,2.7023,2.6728,2.5995,2.639,2.5797,2.4488,2.336,2.1735,1.982,1.8204,1.6568,0.0,1.5301,1.5714,1.6137,1.5906,1.6093,1.6467,1.6492,1.8189,2.0673,2.3238,2.4648,2.6127,2.9729,3.0853,3.1246,3.2426,3.25,3.2256,3.2133,3.1408,3.0574,2.9769,2.9332,2.8771,2.7654,2.7556,2.8078,2.9289,2.9798,3.0323,3.1216,3.1136,3.0765,3.0051,3.0545,3.0936,3.1108,3.2236,3.3799,3.5764,3.693,3.7601,3.7897,3.8274,3.865,3.9058,3.9494,3.9798,4.0012,4.1064,4.1457,4.111,4.1479,4.1611,4.1644,4.2324,4.2741,4.2887,4.2324,4.198,4.1578,3.8752,3.7494,3.7196,3.5928,3.5738,3.6295,3.7281,3.7612,3.7492,0.0,0.0,0.0,0.0,0.0,0.0,0.0,0.0,0.0,0.0,0.0,0.0,0.0,0.0,0.0,0.0,0.0,0.0,1.9767,2.0206,2.0551,2.0747,2.1853,2.3205,2.4748,2.544,2.6151,2.6915,2.5941,2.5274,2.4894,2.4313,2.3825,2.346,2.3408,2.348,2.3544,2.2475,2.165,2.0945,1.9689,1.8186,1.6632,1.5866,1.4933,1.4104,1.4663,1.4501,1.4161,1.5188,1.5892,1.6407,1.6872,1.9849,2.33,2.3989,2.681,3.0096,3.1785,3.302,3.3821,3.3652,3.3203,3.2478,3.1257,2.9907,2.8603,2.7685,2.6824,2.5874,2.4955,2.4642,2.5055,2.6837,2.7382,2.8249,3.0233,2.9796,2.9554,3.0204,3.0176,3.0464,3.1392,3.1627,3.2671,3.4871,3.6256,3.7007,3.7031,3.7054,3.7289,3.7856,3.8629,3.906,3.918,3.9975,3.9965,3.9067,3.9119,3.9726,4.0792,4.1644,4.2324,4.2887,4.2373,4.1819,4.118,3.8703,3.7357,3.6808,3.6206,3.6248,3.6905,3.8148,3.8642,3.844,0.0,0.0,0.0,0.0,0.0,0.0,0.0,0.0,0.0,0.0,0.0,0.0,0.0,0.0,0.0,0.0,0.0,0.0,1.9208,1.9623,1.9906,2.0052,2.048,2.1085,2.1854,2.258,2.3367,2.4268,2.3818,2.3644,2.3727,2.3361,2.3061,2.2838,2.3176,2.3071,2.2637,2.2437,2.211,2.1526,1.9756,1.8635,1.7824,1.615,1.5051,1.4396,1.4489,1.4314,1.4221,1.5689,1.7021,1.8162,1.8677,2.0509,2.3039,2.6082,2.8371,3.0567,3.3583,3.506,3.55,3.4428,3.3723,3.2659,3.0201,2.8787,2.7461,2.5625,2.4796,2.3967,2.2466,2.3148,2.4458,2.5871,2.7201,2.8747,3.0569,3.059,3.0455,3.0298,3.1003,3.1462,3.1413,3.2523,3.3649,3.4593,3.5224,3.5776,3.61,3.6489,3.6844,3.7284,3.6905,3.7296,3.8603,3.8827,3.8477,3.766,3.806,3.8938,4.0236,4.0856,4.1792,4.2887,4.2741,4.2373,4.1726,3.9625,3.8467,3.7876,3.6912,3.6798,3.7374,3.8747,3.9255,3.9157,0.0,0.0,0.0,0.0,0.0,0.0,0.0,0.0,0.0,0.0,0.0,0.0,0.0,0.0,0.0,0.0,0.0,0.0,0.0,1.8683,1.89,1.959,1.974,2.0209,2.1087,2.1504,2.1665,2.1552,2.1746,2.1601,2.1115,2.1199,2.1229,2.1244,2.1269,2.1139,2.088,2.0597,2.0259,0.0,0.0,1.751,1.7154,1.5668,1.4856,1.4478,1.4419,1.458,1.4982,1.6039,1.7692,1.949,2.0644,2.2473,2.4791,2.818,3.0506,3.2579,3.5535,3.6715,3.6767,3.5587,3.41,3.2159,2.9096,2.7331,2.5569,2.2973,2.2203,2.163,2.0311,2.1142,2.256,2.4063,2.5418,2.7119,2.9424,3.0184,3.0502,3.0544,3.184,3.2518,3.2039,3.3105,3.4087,3.4775,3.4803,3.5067,3.5491,3.5592,3.5725,3.597,3.5861,3.6449,3.7802,3.7429,3.6989,3.6557,3.6858,3.753,3.8561,3.9867,4.1006,4.199,4.2373,4.2387,4.1985,4.0149,3.9184,3.8827,3.7881,3.7671,3.8024,3.9057,3.956,3.9773,0.0,0.0,0.0,0.0,0.0,0.0,0.0,0.0,0.0,0.0,0.0,0.0,0.0,0.0,0.0,0.0,0.0,0.0,0.0,0.0,1.7979,1.9256,1.9418,2.0082,2.1389,2.1488,2.0932,1.967,2.0307,1.9993,1.8795,1.9225,1.9532,1.9747,1.9135,1.903,1.9271,1.8367,1.778,1.7381,1.6404,1.5877,1.5621,0.0,0.0,1.4413,1.4328,1.487,1.5697,1.6352,1.8248,2.0615,2.2412,2.4751,2.7382,3.0073,3.251,3.4822,3.7089,3.7699,3.7409,3.6464,3.4076,3.119,2.7934,2.5649,2.3335,2.0297,1.9601,1.9254,1.8452,1.9108,2.0386,2.219,2.3298,2.4922,2.7949,2.9286,3.0159,3.0818,3.2504,3.3388,3.2856,3.3454,3.4261,3.5135,3.484,3.4818,3.5277,3.4862,3.4589,3.4524,3.5323,3.6122,3.6762,3.6122,3.5751,3.5642,3.5642,3.5947,3.6673,3.877,4.0033,4.0626,4.1667,4.2088,4.1879,4.0483,3.9917,3.986,3.9117,3.8829,3.8908,3.9435,3.988,4.0245,0.0,0.0,0.0,0.0,0.0,0.0,0.0,0.0,0.0,0.0,1.6452,1.6918,0.0,0.0,0.0,0.0,0.0,0.0,0.0,0.0,0.0,1.8801,1.9513,2.0226,2.0902,2.1464,2.1707,2.1611,2.1426,2.1317,2.1259,2.1141,2.1102,2.1116,2.0125,2.0036,2.0493,1.9015,1.8142,1.7665,1.6934,1.6072,1.5189,1.4764,0.0,0.0,1.3803,1.3883,1.4423,1.6706,1.9416,2.194,2.2621,2.5323,2.8715,3.1163,3.2796,3.4343,3.6664,3.7018,3.6341,3.4608,3.2602,3.0099,2.6351,2.3732,2.143,1.9008,1.8226,1.7767,1.7,1.8442,2.0327,2.2185,2.3521,2.5361,2.8379,2.9431,3.0178,3.0954,3.2571,3.3537,3.347,3.4035,3.4622,3.5168,3.5135,3.531,3.5801,3.5354,3.4917,3.4534,3.5323,3.5543,3.4947,3.5543,3.5433,3.4736,3.4736,3.5367,3.6619,3.7784,3.8691,3.9572,4.1347,4.1861,4.1443,4.153,4.1605,4.149,4.0401,3.9994,4.006,4.0693,4.0653,4.0505,0.0,0.0,0.0,0.0,0.0,0.0,0.0,1.2864,1.3711,1.4276,1.5053,1.5839,1.6623,1.6595,1.6738,0.0,0.0,0.0,0.0,0.0,0.0,0.0,0.0,0.0,2.0543,2.0565,2.0548,2.0531,0.0,2.0659,2.036,2.0896,2.1416,2.1884,2.1089,2.0666,2.0462,1.9495,1.845,1.7357,1.6557,1.5901,0.0,0.0,0.0,0.0,1.3968,1.3957,1.4128,1.5562,1.7713,2.0226,2.2736,2.5122,2.7419,2.971,3.1581,3.3348,3.523,3.568,3.5435,3.4339,3.1849,2.8717,2.4985,2.2316,1.9931,1.7369,1.67,1.6454,1.6105,1.7473,1.9103,2.0511,2.1467,2.3203,2.6455,2.7481,2.8521,3.0218,3.2131,3.3287,3.3242,3.397,3.4829,3.555,3.5135,3.5059,3.555,3.5113,3.4753,3.4534,3.4902,3.4891,3.4524,3.4891,3.4891,3.4524,3.4524,3.4836,3.5576,3.7156,3.7863,3.7986,4.0551,4.1301,4.0653,4.1029,4.1165,4.1098,4.0227,3.9907,3.9973,4.0553,4.0812,4.094,0.0,0.0,0.0,0.0,0.0,0.0,0.0,1.1828,1.2607,1.2913,1.402,1.5042,1.5733,1.6408,1.6869,0.0,0.0,0.0,0.0,0.0,0.0,0.0,0.0,0.0,0.0,0.0,0.0,1.924,1.972,0.0,0.0,0.0,0.0,0.0,2.1659,2.0967,2.0279,1.9653,1.845,0.0,0.0,1.5723,0.0,0.0,0.0,0.0,0.0,1.4066,1.3871,1.4429,1.5587,1.7458,2.139,2.3847,2.5643,2.7431,2.9732,3.2046,3.3495,3.4142,3.4293,3.3813,3.104,2.7483,2.3907,2.1222,1.8713,1.6175,1.5577,1.5508,1.5548,1.6604,1.7847,1.8933,1.9453,2.0918,2.4352,2.5525,2.6934,2.9406,3.161,3.3,3.3051,3.3905,3.484,3.5605,3.496,3.4676,3.5037,3.4807,3.4622,3.4524,3.4524,3.4524,3.4524,3.4524,3.4524,3.4524,3.4524,3.4524,3.4579,3.6534,3.699,3.6414,3.9521,4.0414,3.969,4.0314,4.0592,4.0553,3.9914,3.9696,3.9797,4.0386,4.0851,4.1307,0.0,0.0,0.0,0.0,0.0,0.0,0.0,1.1474,1.2434,1.223,1.46,1.5439,1.3221,1.4098,1.5192,0.0,0.0,0.0,0.0,0.0,0.0,0.0,0.0,0.0,0.0,0.0,0.0,1.9644,1.935,0.0,0.0,0.0,0.0,0.0,0.0,2.0838,2.056,1.9248,0.0,0.0,0.0,0.0,0.0,0.0,0.0,0.0,0.0,1.3495,1.2984,1.4515,1.4637,1.4559,1.6837,2.0754,2.4604,2.5056,2.7554,3.0506,3.1916,3.2625,3.2685,3.1712,2.9459,2.6625,2.3532,2.0461,1.7791,1.6111,1.5441,1.5192,1.5382,1.6176,1.7282,1.8851,1.9159,2.0299,2.3462,2.5145,2.6812,2.9015,3.1467,3.3117,3.3476,3.4145,3.4556,3.4644,3.4567,3.4545,3.4589,3.4939,3.4949,3.4534,3.4524,3.4524,3.4524,3.4524,3.4524,3.4524,3.4524,3.4524,3.4524,3.5543,3.5665,3.5309,3.8169,3.9064,3.8716,4.0485,4.1243,4.118,4.0603,4.0401,4.0451,4.103,4.1243,4.1455,0.0,0.0,0.0,0.0,0.0,0.0,0.892,0.9906,1.0692,1.1187,1.2848,1.3738,1.3152,1.3138,1.353,1.4482,0.0,0.0,0.0,0.0,0.0,0.0,0.0,0.0,0.0,0.0,1.7177,1.8268,1.7641,0.0,0.0,0.0,0.0,0.0,0.0,2.0191,1.9852,1.8755,0.0,0.0,0.0,0.0,0.0,0.0,0.0,0.0,0.0,0.0,1.3473,1.3742,1.3785,1.3744,1.3756,1.6314,1.9698,2.1963,2.444,2.6982,2.9341,3.0949,3.1764,3.1035,2.8819,2.6028,2.31,1.9965,1.7231,1.5708,1.5006,1.4884,1.5531,1.578,1.6392,1.7854,1.7327,1.7805,2.0887,2.1689,2.3288,2.6786,2.9373,3.137,3.2657,3.3842,3.4524,3.4524,3.4775,3.4818,3.4534,3.4698,3.4922,3.5279,3.4791,3.4736,3.5268,3.4736,3.4524,3.4524,3.4524,3.4524,3.4524,3.5378,3.5376,3.4824,3.6979,3.7541,3.695,3.881,3.9531,3.9595,3.989,3.9993,4.0147,4.0971,4.1322,4.1471,0.0,0.0,0.0,0.0,0.0,0.7645,0.8713,0.9183,0.9683,1.0411,1.1651,1.236,1.2116,1.2045,1.2138,1.2417,1.3893,0.0,0.0,0.0,0.0,0.0,0.0,0.0,0.0,0.0,1.6004,1.709,1.6448,1.6844,0.0,0.0,1.8802,2.0313,0.0,0.0,0.0,0.0,0.0,0.0,0.0,0.0,0.0,0.0,0.0,0.0,0.0,0.0,0.0,0.0,0.0,1.3478,1.2467,1.3502,1.5676,1.8636,2.1481,2.4099,2.638,2.8624,3.0163,2.9638,2.7585,2.5016,2.2541,1.9482,1.6779,1.539,1.4735,1.4624,1.544,1.543,1.57,1.689,1.6185,1.6477,1.9213,1.9649,2.1076,2.4826,2.7558,2.9789,3.1434,3.3343,3.4524,3.4524,3.4829,3.4862,3.4545,3.4524,3.4891,3.5751,3.5212,3.5323,3.6177,3.5587,3.5168,3.4891,3.4891,3.4736,3.4524,3.5168,3.5058,3.4579,3.6068,3.6394,3.5916,3.7655,3.8409,3.8461,3.9374,3.9697,3.9839,4.092,4.1322,4.1471,0.0,0.0,0.0,0.0,0.0,0.0,0.9651,0.985,0.9955,1.0086,1.1676,1.1844,0.9318,1.0592,1.1091,0.9855,1.1689,0.0,0.0,0.0,0.0,0.0,0.0,0.0,0.0,0.0,1.5796,1.6604,1.6201,1.6009,1.6069,1.7452,1.818,1.8343,0.0,0.0,0.0,0.0,0.0,0.0,0.0,0.0,0.0,0.0,0.0,0.0,0.0,0.0,0.0,0.0,0.0,0.0,0.0,1.3204,1.3541,1.5107,1.886,2.2617,2.3129,2.5466,2.7643,2.7162,2.5331,2.3268,2.1822,1.9029,1.6407,1.5336,1.4735,1.4549,1.5017,1.5116,1.5358,1.6192,1.6296,1.7002,1.9033,2.0057,2.1398,2.3545,2.6484,2.8769,3.0016,3.2791,3.4524,3.4524,3.4468,3.4534,3.4524,3.4524,3.4891,3.5751,3.5806,3.6177,3.7084,3.7084,3.6654,3.5806,3.5806,3.5323,3.4524,3.4524,3.4524,3.4579,3.5433,3.5806,3.5916,3.7655,3.8409,3.8461,3.9374,3.9697,3.9839,4.092,4.1322,4.1471,0.0,0.0,0.0,0.0,0.0,0.0,0.0,0.9626,0.9854,1.0133,1.115,1.1889,1.1999,1.1269,1.088,1.1106,1.176,0.0,0.0,0.0,0.0,0.0,0.0,0.0,0.0,0.0,1.6474,1.6453,1.5833,1.6466,1.8232,1.6553,1.6878,1.8794,1.74,1.7015,0.0,0.0,0.0,0.0,0.0,0.0,0.0,0.0,0.0,0.0,0.0,0.0,0.0,0.0,0.0,0.0,0.0,0.0,0.0,1.4246,1.6128,1.856,2.043,2.2321,2.3668,2.3421,2.2561,2.1289,1.9512,1.7539,1.5812,1.4819,1.4506,1.4549,1.5017,1.5105,1.5618,1.7191,1.7053,1.739,1.931,2.0391,2.1816,2.3965,2.8165,3.1336,3.2372,3.372,3.4524,3.4524,3.4524,3.4524,3.4524,3.4524,3.4891,3.5751,3.5212,3.5323,3.6177,3.5642,3.5157,3.4891,3.4891,3.4791,3.4524,3.4524,3.4524,3.4524,3.4791,3.4891,3.498,3.581,3.6672,3.7506,3.7673,3.8536,3.975,4.0055,4.0459,4.0896,0.0,0.0,0.0,0.0,0.0,0.0,0.0,0.9733,0.9831,1.0186,1.0771,1.1412,1.2046,1.1326,1.083,1.0921,1.1328,0.0,0.0,0.0,0.0,0.0,0.0,0.0,0.0,1.7458,1.7123,1.6515,1.598,1.6393,1.7646,1.6321,1.6518,1.7973,1.7044,1.6639,0.0,0.0,0.0,0.0,0.0,0.0,1.5973,0.0,0.0,0.0,0.0,0.0,0.0,0.0,0.0,0.0,0.0,0.0,0.0,0.0,1.4429,1.5412,1.7625,1.9419,2.0663,2.058,2.0115,1.9282,1.7915,1.652,1.5309,1.4571,1.4396,1.4495,1.4777,1.4985,1.5513,1.6813,1.6923,1.746,1.922,2.0619,2.249,2.5411,2.8838,3.1576,3.3038,3.3752,3.4244,3.4468,3.4524,3.4524,3.4524,3.4524,3.4736,3.5268,3.5113,3.5433,3.6286,3.5751,3.5323,3.5002,3.5002,3.4748,3.425,3.4436,3.4327,3.3988,3.4371,3.4414,0.0,3.487,3.5604,3.6412,3.6916,3.7868,3.9038,3.9728,4.0196,4.0593,0.0,0.0,0.0,0.0,0.0,0.0,0.0,1.0085,0.9961,1.0335,1.067,1.0677,1.0157,1.0861,1.0865,0.9602,0.0,0.0,0.0,0.0,0.0,0.0,0.0,0.0,0.0,1.8239,1.7672,1.6762,1.656,1.6055,1.5344,1.6702,1.6982,1.6396,1.7564,1.7341,0.0,0.0,0.0,0.0,0.0,0.0,0.0,0.0,0.0,0.0,0.0,0.0,0.0,0.0,0.0,0.0,0.0,0.0,0.0,0.0,0.0,0.0,0.0,1.6706,1.8268,1.8342,1.7801,1.7191,1.6802,1.5856,0.0,1.4495,1.4396,1.4429,1.4538,1.4875,1.5292,1.5673,1.6467,1.7589,1.9107,2.0921,2.3592,2.7607,2.8808,3.0093,3.215,3.3125,3.3851,3.4468,3.4524,3.4524,3.4524,3.4524,3.4524,3.4524,3.5234,3.6065,3.6865,3.6865,3.6445,3.564,3.5606,3.4998,3.3803,3.4229,3.3923,3.3168,3.4021,3.4163,3.3792,3.4592,3.4967,3.5203,3.6864,3.7585,3.7925,3.9728,4.0415,4.0504,0.0,0.0,0.0,0.0,0.0,0.0,0.0,0.0,0.0,0.0,1.1465,1.1521,1.117,1.1159,1.0692,0.0,0.0,0.0,0.0,0.0,0.0,0.0,0.0,0.0,0.0,1.8516,1.7914,1.739,1.7144,1.746,1.8281,1.7924,1.7745,1.771,1.7309,1.6236,1.4758,0.0,0.0,0.0,0.0,0.0,0.0,0.0,0.0,0.0,1.4366,1.4161,0.0,0.0,0.0,0.0,0.0,0.0,0.0,0.0,1.3705,1.3033,1.3141,0.0,1.4165,1.4655,1.4597,1.4494,0.0,1.4764,1.4538,1.4429,1.4396,1.4735,1.5815,1.58,1.6373,1.8631,1.9233,1.9931,2.1408,2.3635,2.5993,2.839,2.9773,3.0809,3.1573,3.281,3.3829,3.4468,3.4524,3.4524,3.4524,3.4524,3.4524,3.4524,3.4373,3.4394,3.4601,3.4601,3.4492,3.4284,3.3898,3.3757,3.3792,3.353,3.3289,3.3135,3.3311,3.3344,3.3267,3.3118,3.3648,3.4626,3.5247,3.6396,3.7824,3.8905,3.9537,3.9942,0.0,0.0,0.0,0.0,0.0,0.0,0.0,0.0,0.0,0.0,0.0,0.0,0.0,0.0,0.0,0.0,0.0,0.0,0.0,0.0,0.0,0.0,0.0,0.0,1.925,1.8507,1.7923,1.7549,1.6985,1.74,1.8758,1.8612,1.88,1.9236,1.7524,1.5894,1.4424,1.4126,1.407,1.4138,1.3765,0.0,0.0,0.0,0.0,0.0,1.3879,1.369,0.0,1.4023,1.4124,1.4212,0.0,0.0,0.0,0.0,1.3818,1.3152,1.2806,1.2802,1.2987,1.3429,1.3673,1.3915,1.4265,1.4372,1.4396,1.4396,1.4396,1.4851,1.6276,1.6707,1.7578,1.9785,2.0754,2.1765,2.337,2.46,2.6091,2.8041,2.9165,3.0161,3.1242,3.2442,3.3537,3.4412,3.4524,3.4524,3.4524,3.4524,3.4524,3.4524,3.4043,3.3792,3.3792,3.3573,3.3464,3.3453,3.3245,3.3093,3.3147,3.3146,3.2831,3.2427,3.2874,3.3004,3.2785,3.2481,3.284,3.3533,3.4349,3.5486,3.6982,3.8497,3.9306,3.98,0.0,0.0,0.0,0.0,0.0,0.0,0.0,0.0,0.0,0.0,0.0,0.0,0.0,0.0,0.0,0.0,0.0,0.0,0.0,0.0,0.0,0.0,0.0,1.765,1.8834,1.8296,1.7753,1.725,1.6805,1.7132,1.8163,1.9093,1.9751,2.0062,1.7475,1.5643,1.4426,1.3386,1.35,1.4246,1.3109,0.0,0.0,0.0,0.0,0.0,0.0,0.0,0.0,1.3198,1.3198,1.3315,1.3909,0.0,0.0,0.0,0.0,0.0,1.3063,1.3141,1.3319,1.3432,1.3876,1.432,1.4482,1.4513,1.4562,1.4675,1.4728,1.5187,1.676,1.7859,1.9069,2.0545,2.2128,2.3775,2.5516,2.546,2.5909,2.7612,2.8333,2.9327,3.1052,3.2044,3.3103,3.4303,3.4414,3.4447,3.4524,3.4524,3.4547,3.457,3.3989,3.3704,3.3725,3.3276,3.3015,3.3015,3.2938,3.2689,3.2394,3.27,3.2405,3.1673,3.2492,3.2634,3.2263,3.2263,3.2263,3.2422,3.3855,3.4861,3.5876,3.8187,3.9354,3.979,0.0,0.0,0.0,0.0,0.0,0.0,0.0,0.0,0.0,0.0,0.0,0.0,0.0,0.0,0.0,0.0,0.0,0.0,0.0,0.0,0.0,0.0,1.6273,1.7578,1.7744,1.7969,1.7412,1.6061,1.7955,1.8713,1.839,1.9873,1.9731,1.8127,1.5678,1.437,1.399,1.3756,1.3272,1.2623,1.221,0.0,0.0,0.0,0.0,0.0,0.0,0.0,0.0,1.3198,1.3198,1.3315,1.3909,0.0,0.0,0.0,0.0,0.0,1.2916,1.3387,1.3726,1.3422,1.3725,1.4378,1.5287,1.5222,1.5213,1.6018,1.6169,1.6773,1.8703,1.9908,2.1265,2.3103,2.526,2.7258,2.8845,2.8898,2.8924,2.925,2.9562,3.0025,3.07,3.156,3.264,3.3802,3.3912,3.4087,3.4502,3.4524,3.4659,3.4924,3.3798,3.3345,3.354,3.287,3.2492,3.2481,3.2055,3.2033,3.2372,3.2012,3.176,3.1629,3.1782,3.1804,3.1738,3.1738,3.1738,3.1877,3.372,3.463,3.5206,3.7584,3.8982,3.9763,0.0,0.0,0.0,0.0,0.0,0.0,0.0,0.0,0.0,0.0,0.0,0.0,0.0,0.0,0.0,0.0,0.0,0.0,0.0,0.0,0.0,1.2666,1.4644,1.6031,1.6734,1.7242,1.7115,1.6298,1.7836,1.8654,1.8803,1.987,1.924,1.7162,1.6126,1.485,1.351,1.3335,1.2984,1.255,0.0,0.0,0.0,0.0,0.0,0.0,0.0,0.0,0.0,0.0,1.3198,1.3248,1.3534,0.0,0.0,0.0,0.0,0.0,1.2789,1.322,1.3687,1.3328,1.4414,1.5665,1.6037,1.6618,1.7209,1.7607,1.7951,1.8691,2.0368,2.1844,2.3801,2.6954,2.8225,2.9107,2.9822,2.9066,2.8472,2.8629,2.8681,2.9013,2.9794,3.0942,3.1971,3.2856,3.3486,3.377,3.3737,3.3988,3.4284,3.4588,3.3365,3.2989,3.3509,3.2502,3.1979,3.1968,3.1738,3.1749,3.1968,3.1728,3.1618,3.1618,3.1618,3.1618,3.1618,3.1618,3.1618,3.1695,3.2886,3.3931,3.5103,3.7655,3.9228,4.0094,0.0,0.0,0.0,0.0,0.0,0.0,0.0,0.0,0.0,0.0,0.0,0.0,0.0,0.0,0.0,0.0,0.0,0.0,0.0,0.0,1.1073,1.2123,1.3334,1.4488,1.5565,1.6358,1.6588,1.6285,1.7519,1.8454,1.9079,1.9266,1.8316,1.6448,1.6429,1.5284,1.339,1.3142,1.2953,1.2801,0.0,0.0,0.0,0.0,0.0,0.0,0.0,0.0,0.0,0.0,0.0,0.0,0.0,0.0,0.0,1.3466,1.3405,1.3493,1.2901,1.3204,1.364,1.3435,1.4903,1.6525,1.6945,1.8092,1.9172,1.9654,2.0232,2.0996,2.2064,2.3826,2.6347,3.0136,3.0802,3.0825,3.0889,2.9705,2.879,2.8711,2.8456,2.8596,2.9219,3.0427,3.1383,3.1987,3.3116,3.3548,3.3135,3.3636,3.4044,3.4382,3.328,3.2971,3.3583,3.2458,3.1837,3.1804,3.1804,3.1804,3.1804,3.1804,3.1738,3.1618,3.1618,3.1618,3.1618,3.1618,3.1618,3.1673,3.2383,3.3714,3.5493,3.7895,3.9417,4.0265,0.0,0.0,0.0,0.0,0.0,0.0,0.0,0.0,0.0,0.0,0.0,0.0,0.0,0.0,0.0,0.0,0.0,0.0,0.0,0.0,1.1397,1.3218,1.3512,1.3774,1.405,1.5314,1.5681,1.5028,1.7578,1.8889,1.8979,1.7911,1.6825,1.5746,1.52,1.4611,1.4024,1.3824,1.3399,1.292,1.3411,0.0,0.0,0.0,0.0,0.0,0.0,0.0,0.0,0.0,0.0,0.0,0.0,0.0,1.3298,1.3223,1.2869,1.2689,1.3482,1.3704,1.3738,1.3907,1.4583,1.5836,1.8184,1.9252,2.0324,2.2435,2.3375,2.3816,2.4004,2.6094,2.8672,3.1357,3.2545,3.3244,3.3472,3.3205,3.2544,3.1479,3.0679,3.0087,2.9876,3.0343,3.0947,3.1606,3.2826,3.3399,3.3103,3.3849,3.437,3.4649,3.3839,3.3588,3.3953,3.3124,3.2605,3.2328,3.2328,3.2328,3.2328,3.2328,3.2077,3.1618,3.1618,3.1618,3.1618,3.1618,3.1618,3.1724,3.2918,3.4695,3.6662,3.8157,3.9128,3.9751,0.0,0.0,0.0,0.0,0.0,0.0,0.0,0.0,0.0,0.0,0.0,0.0,0.0,0.0,0.0,0.0,0.0,0.0,0.0,0.0,1.0951,1.145,1.1883,1.2135,1.2219,1.4306,1.5074,1.4405,1.6542,1.7762,1.8058,1.7557,1.6902,1.6128,1.5977,1.5539,1.4855,1.4033,1.3681,1.3668,1.3199,1.2722,0.0,0.0,0.0,0.0,0.0,0.0,0.0,0.0,1.3374,1.3198,1.3198,1.3453,1.369,1.3315,1.3171,1.3184,1.3329,1.3855,1.4314,1.4003,1.4959,1.6512,1.8555,2.0285,2.2017,2.4179,2.5312,2.6047,2.6554,2.88,3.1142,3.2802,3.4119,3.5026,3.5487,3.4391,3.3127,3.1976,3.1222,3.0422,2.9611,2.9974,3.0534,3.1043,3.2334,3.3022,3.2918,3.3931,3.4688,3.5002,3.3449,3.3146,3.4222,3.2686,3.2362,3.3309,3.2864,3.2661,3.2661,3.3157,3.2993,3.237,3.237,3.2066,3.1618,3.1618,3.1863,3.2482,3.3957,3.5015,3.589,3.7215,3.8527,3.9586,0.0,0.0,0.0,0.0,0.0,0.0,0.0,0.0,0.0,0.0,0.0,0.0,0.0,0.0,0.0,0.0,0.0,0.0,0.8497,0.9654,1.0363,1.0447,1.062,1.0847,1.1155,1.2792,1.3714,1.3858,1.5725,1.6939,1.7495,1.7414,1.704,1.6441,1.6593,1.6265,1.5541,1.4615,1.4315,1.4381,1.3647,1.3137,0.0,0.0,0.0,0.0,0.0,0.0,0.0,0.0,1.3459,1.3267,1.3116,1.3413,1.3722,1.3224,1.313,1.3238,1.3306,1.375,1.4249,1.4424,1.5628,1.7317,1.9373,2.1245,2.3259,2.5972,2.7097,2.7842,2.8609,3.0284,3.2116,3.3733,3.5067,3.6062,3.6603,3.5223,3.3648,3.2316,3.1556,3.0726,2.9625,3.0266,3.0863,3.0936,3.233,3.2951,3.246,3.3346,3.4056,3.4434,3.2776,3.2559,3.403,3.2613,3.2499,3.366,3.3627,3.3481,3.3391,3.3767,3.3697,3.3201,3.3201,3.2862,3.2359,3.2359,3.2812,3.3648,3.4775,3.5367,3.5715,3.6722,3.7947,3.9086,0.0,0.0,0.0,0.0,0.0,0.0,0.0,0.0,0.0,0.0,0.0,0.0,0.0,0.0,0.0,0.0,0.0,0.0,0.9572,0.9417,0.9747,1.075,1.0019,1.006,1.1068,1.0702,1.1417,1.3302,1.5286,1.6698,1.7476,1.7349,1.7002,1.6518,1.6712,1.6507,1.5987,1.5711,1.5367,1.5008,1.5008,1.435,1.3407,0.0,0.0,0.0,0.0,0.0,0.0,0.0,1.3674,1.3412,1.296,1.2978,1.3146,1.2873,1.2627,1.2619,1.3552,1.3388,1.3389,1.5242,1.6585,1.8141,2.0884,2.2138,2.3826,2.7857,2.8782,2.9176,3.0017,3.0327,3.1306,3.3964,3.5338,3.6292,3.6823,3.5834,3.4431,3.2701,3.1914,3.1108,3.0102,3.1371,3.202,3.1346,3.2969,3.3289,3.1721,3.1911,3.2313,3.2789,3.1897,3.1997,3.3157,3.3229,3.3277,3.3217,3.4559,3.5003,3.4695,3.4179,3.3944,3.3981,3.3993,3.3993,3.3993,3.3993,3.4483,3.5223,3.5223,3.5715,3.6452,3.6922,3.7467,3.8079,0.0,0.0,0.0,0.0,0.0,0.0,0.0,0.0,0.0,0.0,0.0,0.0,0.0,0.0,0.0,0.0,0.0,0.0,0.9481,0.9932,1.0142,0.9972,0.9357,0.9293,0.9826,1.0273,1.1373,1.3158,1.4484,1.5472,1.6168,1.6743,1.7068,1.714,1.6948,1.6848,1.6783,1.5656,1.511,1.4994,1.4903,1.4094,1.3117,0.0,0.0,0.0,0.0,0.0,0.0,0.0,0.0,0.0,1.296,1.2978,1.3146,1.2873,1.3178,1.3674,1.404,1.4641,1.5395,1.6429,1.8116,1.9961,2.1675,2.2582,2.3994,2.7366,2.845,2.9003,2.9606,3.0971,3.2372,3.3503,3.4959,3.6148,3.673,3.5262,3.3752,3.2747,3.1359,3.0378,3.0032,3.0319,3.0948,3.1982,3.3078,3.3613,3.3315,3.362,3.3612,3.3173,3.1708,3.148,3.27,3.2371,3.2604,3.3394,3.4413,3.4735,3.4499,3.5281,3.5124,3.4282,3.4679,3.4532,3.4042,3.4629,3.4969,3.5271,3.581,3.6216,3.6417,3.6546,3.7426,3.8508,0.0,0.0,0.0,0.0,0.0,0.0,0.0,0.0,0.0,0.0,0.0,0.0,0.0,0.0,0.0,0.0,0.0,0.0,0.0,1.0617,1.0605,0.9981,0.9271,0.8981,0.9171,0.9815,1.0778,1.207,1.3422,1.459,1.5544,1.6219,1.6788,1.7232,1.695,1.6825,1.6783,1.5812,1.55,1.5613,1.5033,1.4481,1.4047,0.0,0.0,0.0,0.0,0.0,0.0,0.0,0.0,0.0,1.3069,1.2978,1.3012,1.2855,1.3105,1.3545,1.4145,1.4792,1.5742,1.7528,1.9349,2.1202,2.3133,2.4297,2.5608,2.7718,2.8487,2.9069,2.9999,3.1202,3.2266,3.3013,3.4299,3.5282,3.5515,3.4098,3.2697,3.1838,3.0621,2.975,2.9507,2.9952,3.0707,3.1726,3.2382,3.2783,3.2922,3.2673,3.2403,3.2082,3.0482,3.0293,3.175,3.1539,3.2136,3.3548,3.4516,3.494,3.4844,3.5469,3.541,3.4881,3.5445,3.5415,3.4981,3.5475,3.5667,3.5715,3.6203,3.6405,3.6405,3.6405,3.701,3.7848,0.0,0.0,0.0,0.0,0.0,0.0,0.0,0.0,0.0,0.0,0.0,0.0,0.0,0.0,0.0,0.0,0.0,0.0,0.0,0.0,1.1036,1.0474,0.9486,0.8941,0.8961,0.9361,0.9854,1.0439,1.2248,1.3859,1.5241,1.5699,1.6254,1.6848,1.6749,1.6521,1.6231,1.6038,1.6171,1.6428,1.5367,1.5216,1.5514,1.4528,0.0,0.0,0.0,0.0,0.0,0.0,0.0,0.0,1.3246,1.2965,1.2803,1.2768,1.2627,1.2721,1.3937,1.4257,1.5028,1.8402,2.0298,2.2068,2.486,2.654,2.7694,2.8416,2.8654,2.9214,3.0839,3.1034,3.1314,3.2437,3.337,3.3887,3.3578,3.2561,3.1468,3.04,2.9701,2.9096,2.8632,2.9883,3.074,3.0845,3.1135,3.1342,3.1301,3.0219,2.9781,3.0133,2.8732,2.8794,3.0521,3.0774,3.1776,3.3448,3.4748,3.532,3.5257,3.4919,3.5019,3.552,3.6069,3.6367,3.6405,3.6405,3.6405,3.6405,3.6405,3.6405,3.6417,3.6468,3.648,3.6631,0.0,0.0,0.0,0.0,0.0,0.0,0.0,0.0,0.0,0.0,0.0,0.0,0.0,0.0,0.0,0.0,0.0,0.0,0.0,0.0,1.09,1.0143,0.9089,0.8541,0.8614,0.9099,0.9542,0.9879,1.1233,1.2603,1.4011,1.4879,1.5469,1.5837,1.6321,1.6247,1.5735,1.5594,1.5402,1.5262,1.5832,1.5314,1.4423,1.6189,1.5802,0.0,0.0,0.0,0.0,0.0,0.0,0.0,1.3246,1.2965,1.2768,1.2556,1.2732,1.3175,1.38,1.4621,1.585,1.8154,2.1055,2.3673,2.5153,2.5643,2.6109,2.7238,2.7742,2.8526,3.024,3.052,3.0799,3.1889,3.2187,3.2429,3.2829,3.1603,3.0542,3.0269,2.8544,2.7534,2.7867,2.8161,2.8911,3.0248,3.0831,3.1182,3.1351,3.0767,3.0222,2.9689,2.8604,2.8629,2.9896,3.0217,3.0985,3.2297,3.3618,3.4022,3.3646,3.4781,3.5382,3.5508,3.5621,3.5968,3.6405,3.6405,3.6405,3.6405,3.6405,3.6405,3.6455,3.6895,3.7059,3.7098,0.0,0.0,0.0,0.0,0.0,0.0,0.0,0.0,0.0,0.0,0.0,0.0,0.0,0.0,0.0,0.0,0.0,0.0,0.0,0.0,0.0,1.0338,0.9596,0.9108,0.8878,0.8898,0.9117,0.9555,0.9919,1.1075,1.2938,1.3885,1.4696,1.5374,1.5697,1.5745,1.5587,1.5311,1.527,1.5404,1.5618,1.5651,1.564,1.6676,1.646,1.5625,1.5893,0.0,0.0,0.0,0.0,0.0,0.0,0.0,1.2914,1.2775,1.284,1.3058,1.3451,1.4198,1.5598,1.8654,2.1896,2.4524,2.5314,2.5207,2.5379,2.6785,2.7088,2.755,2.9026,2.9202,2.9225,2.9581,3.001,3.0259,3.005,2.9693,2.9234,2.864,2.7463,2.6747,2.6797,2.6977,2.7682,2.9218,2.9488,2.9907,3.0578,3.0094,2.9487,2.8801,2.8386,2.8255,2.8544,2.9452,3.0312,3.1101,3.2754,3.3495,3.3508,3.4638,3.5107,3.5119,3.5382,3.5658,3.5968,3.5968,3.6119,3.6405,3.6405,3.6405,3.6443,3.6732,3.6832,3.6872,0.0,0.0,0.0,0.0,0.0,0.0,0.0,0.0,0.0,0.0,0.0,0.0,0.0,0.0,0.0,0.0,0.0,0.0,0.0,0.0,0.0,1.0706,1.0264,0.9836,0.9342,0.8884,0.8782,0.9078,0.8824,0.9681,1.1616,1.2712,1.3776,1.477,1.4951,1.5148,1.5377,1.5064,1.5254,1.5675,1.5119,1.575,1.6982,1.6644,1.6721,1.6921,1.6444,1.5742,1.4946,1.4319,0.0,0.0,0.0,0.0,1.316,1.3025,1.2787,1.2636,1.2946,1.3675,1.5268,1.9089,2.2158,2.4355,2.484,2.4695,2.4873,2.6263,2.6482,2.678,2.7889,2.789,2.7557,2.7249,2.7801,2.8015,2.737,2.7898,2.8066,2.7254,2.6835,2.6462,2.5989,2.615,2.6739,2.788,2.7764,2.8199,2.9488,2.8896,2.8455,2.8183,2.8186,2.7927,2.736,2.8769,2.9658,3.0119,3.1951,3.3081,3.3621,3.4085,3.4399,3.4613,3.5019,3.527,3.537,3.5458,3.5805,3.6267,3.6367,3.6405,3.6417,3.6518,3.6493,3.6493,0.0,0.0,0.0,0.0,0.0,0.0,0.0,0.0,0.0,0.0,0.0,0.0,0.0,0.0,0.0,0.0,0.0,0.0,1.4049,0.0,0.0,1.08,1.0234,0.9782,0.9475,0.928,0.8744,0.7838,0.8632,0.9088,0.9207,1.1186,1.244,1.3082,1.4173,1.4633,1.4575,1.4683,1.4681,1.4612,1.4524,1.4885,1.5605,1.6623,1.7098,1.7255,1.7338,1.6624,1.5483,1.476,1.4365,0.0,0.0,0.0,1.3403,1.2699,1.2257,1.2057,1.2266,1.3836,1.5963,1.8328,2.0482,2.2165,2.2613,2.3385,2.4059,2.4295,2.5755,2.721,2.7964,2.7613,2.7186,2.7198,2.6771,2.6811,2.7835,2.7909,2.8069,2.8492,2.749,2.6714,2.6581,2.5858,2.5595,2.6125,2.6156,2.6875,2.8488,2.7887,2.7933,2.8914,2.8153,2.7666,2.7581,2.8483,2.9165,2.969,3.1021,3.1901,3.2441,3.2516,3.3081,3.401,3.4085,3.4399,3.4818,3.5307,3.5545,3.5658,3.6182,3.6405,3.6468,3.6945,3.682,3.6493,0.0,0.0,0.0,0.0,0.0,0.0,0.0,0.0,0.0,0.0,0.0,0.0,0.0,0.0,0.0,1.3962,1.4346,1.4385,1.3917,1.2973,1.2175,1.156,1.1092,1.0536,0.9847,0.9381,0.8696,0.7824,0.8017,0.8098,0.8105,0.9579,1.1093,1.2633,1.3567,1.4083,1.4227,1.4284,1.4267,1.4162,1.4007,1.4495,1.5385,1.5995,1.6643,1.7273,1.7505,1.6959,1.6,1.5496,1.5027,1.4562,1.408,0.0,0.0,0.0,1.2583,1.2321,1.2234,1.3534,1.528,1.6766,1.8749,2.0571,2.1401,2.2308,2.3195,2.3828,2.4939,2.5889,2.6193,2.5997,2.5683,2.5411,2.5551,2.5913,2.6496,2.7512,2.8069,2.7737,2.8005,2.7569,2.5951,2.603,2.5964,2.5522,2.6062,2.6721,2.7343,2.7668,2.7821,2.7678,2.796,2.7638,2.6665,2.8435,2.965,3.0143,3.0401,3.0934,3.1738,3.1449,3.2089,3.3432,3.3432,3.3759,3.4299,3.4806,3.5219,3.5558,3.6144,3.6405,3.6443,3.6681,3.6619,3.6443,0.0,0.0,0.0,0.0,0.0,0.0,0.0,0.0,0.0,0.0,0.0,0.0,0.0,0.0,0.0,0.0,1.4901,1.4631,1.373,1.3272,1.2761,1.2204,1.1854,1.1206,1.0172,0.9496,0.8659,0.7666,0.7416,0.7385,0.7566,0.8426,0.9906,1.1912,1.2641,1.3219,1.3666,1.3619,1.353,1.3414,1.3325,1.3881,1.4777,1.5027,1.5851,1.6871,1.7019,1.6644,1.6017,1.5628,1.5237,1.4809,1.4212,1.4212,0.0,0.0,0.0,1.243,1.2188,1.3132,1.436,1.5119,1.7039,1.9,1.9971,2.0941,2.1994,2.3117,2.3885,2.4356,2.4356,2.4443,2.44,2.3984,2.4386,2.5034,2.5757,2.719,2.8046,2.779,2.8618,2.8279,2.6012,2.6494,2.6525,2.5509,2.6352,2.6998,2.7195,2.78,2.7909,2.7375,2.8138,2.7882,2.6385,2.8486,2.9836,3.0407,2.9993,3.0218,3.0972,3.0583,3.1148,3.2466,3.2742,3.3181,3.3734,3.4286,3.4793,3.5345,3.5943,3.6279,3.6405,3.6405,3.6405,3.6405,0.0,0.0,0.0,0.0,0.0,0.0,0.0,0.0,0.0,0.0,0.0,0.0,1.4452,1.5459,1.6121,1.602,1.6069,1.5404,1.372,1.3106,1.2697,1.2395,1.2066,0.0,1.0316,0.982,0.8644,0.6772,0.7121,0.7344,0.7418,0.8034,0.9018,1.0257,1.1124,1.1882,1.2502,1.2478,1.223,1.1864,1.2294,1.2656,1.3023,1.3802,1.4834,1.586,1.5676,1.5416,1.5085,1.4561,1.4612,1.4708,1.3591,1.4011,1.4594,0.0,0.0,0.0,1.1906,1.2711,1.3568,1.3696,1.533,1.7117,1.7823,1.8965,2.0252,2.1394,2.245,2.3195,2.3195,2.3656,2.4003,2.3927,2.3453,2.4078,2.6734,2.7133,2.7992,3.0152,2.9484,2.8533,2.774,2.7322,2.6816,2.6098,2.6694,2.7591,2.8716,2.818,2.8307,2.9407,2.9015,2.8459,2.773,2.8474,2.9182,2.9829,2.9804,2.9817,2.988,2.9842,3.0168,3.0809,3.1825,3.2591,3.3156,3.3721,3.4274,3.4781,3.5332,3.5906,3.6405,3.6405,3.6405,3.6405,0.0,0.0,0.0,0.0,0.0,0.0,0.0,0.0,0.0,0.0,0.0,0.0,0.0,1.5539,1.6107,1.5924,1.5541,1.4754,1.3487,1.3302,1.3069,1.268,1.2383,1.1818,1.0963,1.006,0.8668,0.6766,0.708,0.6877,0.6213,0.7366,0.8141,0.8623,1.0056,1.1132,1.1886,1.1706,1.1626,1.1616,1.1442,1.1489,1.1726,1.2435,1.3157,1.3889,1.4931,1.5155,1.4944,1.5225,1.5185,1.493,1.4305,1.4379,1.4474,1.3333,1.262,1.2174,1.1963,1.2043,1.2257,1.2465,1.3774,1.5105,1.553,1.7242,1.8982,1.9747,2.0777,2.1653,2.2004,2.2657,2.3041,2.2618,2.2608,2.3299,2.5101,2.6655,2.808,2.9285,3.0353,2.9992,2.7544,2.8203,2.795,2.5849,2.6974,2.7736,2.772,2.8186,2.8427,2.8445,2.869,2.8882,2.9079,2.8882,2.9131,2.9792,2.9792,2.9792,2.9792,2.9792,3.0093,3.0633,3.1278,3.1921,3.2591,3.352,3.401,3.4286,3.5144,3.5621,3.5927,3.6607,3.6828,3.6875,0.0,0.0,0.0,0.0,0.0,0.0,0.0,0.0,0.0,0.0,0.0,0.0,0.0,0.0,1.6373,1.5971,1.5226,1.4438,1.3613,1.3467,1.3185,1.2697,1.2419,1.1927,1.1145,1.005,0.8715,0.7106,0.71,0.6675,0.585,0.6927,0.7554,0.7829,0.8965,0.9951,1.0787,1.0604,1.0681,1.0898,1.0603,1.0684,1.1025,1.1593,1.2227,1.2967,1.4037,1.4392,1.438,1.4675,1.4642,1.4381,1.399,1.3915,1.3874,1.3303,1.2791,1.2347,1.2138,1.1908,1.179,1.1957,1.2791,1.3688,1.4136,1.5637,1.7215,1.8255,1.9208,2.0152,2.1043,2.1435,2.1575,2.1556,2.1901,2.2761,2.4297,2.6042,2.7537,2.8652,3.0146,3.011,2.7566,2.8775,2.8852,2.6745,2.797,2.8597,2.8035,2.8882,2.9105,2.8474,2.8882,2.9339,2.9792,2.9378,2.9378,2.9792,2.9792,2.9792,2.9792,2.9792,2.9993,3.0344,3.0941,3.1682,3.2474,3.3232,3.3776,3.4218,3.5128,3.5608,3.5881,3.6937,3.7328,3.7374,0.0,0.0,0.0,0.0,0.0,0.0,0.0,0.0,0.0,1.4484,0.0,0.0,0.0,0.0,0.0,1.622,1.5256,1.4493,1.4079,1.3518,1.2955,1.2395,1.2186,1.1671,1.0819,0.9815,0.878,0.7696,0.7175,0.6787,0.6505,0.6787,0.7259,0.7892,0.7818,0.8309,0.9166,0.9148,0.9314,0.9592,0.9715,1.0195,1.088,1.1242,1.2137,1.3191,1.2953,1.3068,1.3286,1.277,1.2871,1.3134,1.2626,1.2639,1.2873,1.3129,1.282,1.2395,0.0,0.0,0.0,1.2158,1.2435,1.2883,1.3664,1.4102,1.4935,1.6907,1.7765,1.8656,2.0288,1.9943,1.9714,2.0773,2.1285,2.2347,2.4614,2.5324,2.6358,2.8482,2.8844,2.8661,2.8064,2.8882,2.9282,2.8812,2.9699,3.0131,2.9828,3.0306,3.0344,2.9817,2.9792,2.9792,2.9792,2.9792,2.9792,2.9792,2.9792,2.9792,2.9792,2.9792,2.9792,2.9855,3.0802,3.1843,3.287,3.2813,3.3478,3.4653,3.5249,3.5769,3.6379,3.7436,3.7782,3.7782,0.0,0.0,0.0,0.0,0.0,0.0,1.5055,1.56,1.5852,0.0,0.0,0.0,1.5457,1.578,1.5748,1.5108,1.457,1.3911,1.3071,1.2948,1.2579,1.1854,1.1763,1.1486,1.0952,1.0011,0.8944,0.7762,0.7565,0.7133,0.6501,0.7027,0.7356,0.7546,0.7674,0.7823,0.7976,0.8187,0.8553,0.9016,0.9005,0.9173,0.9537,1.0252,1.0775,1.1199,1.1767,1.2113,1.2348,1.2544,1.3095,1.3742,1.3932,1.3687,1.3323,1.3408,1.2931,1.2395,1.2395,0.0,0.0,0.0,0.0,0.0,1.2219,1.3052,1.4106,1.5102,1.6184,1.725,1.8142,1.8477,1.8747,1.9179,2.0004,2.123,2.3083,2.4613,2.6048,2.7475,2.868,2.8998,2.7953,2.855,2.8919,2.8743,2.9036,2.957,3.0342,3.0156,2.9942,2.9792,2.9792,2.9792,2.9792,2.9792,2.9792,2.9792,2.9792,2.9792,2.9792,2.9792,2.9792,2.9843,3.0701,3.1473,3.2215,3.2512,3.3122,3.3877,3.4406,3.4977,3.5674,3.7197,3.7745,3.7843,0.0,0.0,0.0,0.0,0.0,1.4723,1.5456,1.5833,1.592,0.0,0.0,0.0,1.5413,1.5239,1.5018,1.4668,1.3943,1.345,1.3272,1.2877,1.2414,1.1958,1.1726,1.1243,1.0518,0.9533,0.8541,0.7597,0.7474,0.7084,0.6507,0.7196,0.7482,0.7412,0.7704,0.7743,0.7585,0.7661,0.8057,0.8629,0.8499,0.8853,0.9512,1.017,1.0713,1.119,1.1676,1.2058,1.2304,1.2178,1.2725,1.3489,1.3754,1.3882,1.384,1.3479,1.3073,1.2684,0.0,1.209,1.1768,1.1651,0.0,0.0,1.205,1.2605,1.3294,1.397,1.4856,1.5736,1.6534,1.7162,1.7739,1.8329,1.8969,1.9932,2.1427,2.2957,2.4307,2.5394,2.6737,2.7406,2.6936,2.7577,2.8122,2.8447,2.8822,2.9509,3.0528,3.0093,2.9792,2.9792,2.9792,2.9792,2.9792,2.9792,2.9792,2.9792,2.9792,2.9792,2.9792,2.9792,2.9792,2.983,3.0457,3.1056,3.1547,3.199,3.283,3.3883,3.4699,3.5213,3.5732,3.7387,3.8004,3.8128,0.0,0.0,1.204,1.2239,1.3197,1.439,1.5791,1.5992,1.583,0.0,1.5712,1.5755,1.5076,1.4775,1.4596,1.4541,1.3531,1.325,1.406,1.3144,1.2495,1.2341,1.1881,1.1082,0.9961,0.8906,0.8121,0.7552,0.7301,0.6979,0.6647,0.7426,0.0,0.0,0.0,0.7942,0.7649,0.7517,0.7807,0.8353,0.8171,0.8906,1.0129,1.0474,1.1218,1.21,1.2057,1.2347,1.2638,1.188,1.2144,1.2773,1.2951,1.3661,1.4319,1.3595,1.338,1.3224,0.0,0.0,0.0,1.2221,1.2243,0.0,1.2519,1.2493,1.2632,1.3312,1.3779,1.435,1.5349,1.6019,1.6751,1.784,1.8068,1.8596,1.9925,2.0913,2.1866,2.2844,2.3932,2.4837,2.5451,2.6246,2.715,2.8175,2.9095,2.9849,3.0378,3.0018,2.9792,2.9792,2.9792,2.9792,2.9792,2.9792,2.9792,2.9792,2.9792,2.9792,2.9792,2.9792,2.9792,2.983,3.0228,3.0634,3.1024,3.1524,3.2659,3.426,3.5328,3.5863,3.6159,3.7671,3.822,3.8315,0.0,1.1702,1.2385,1.2184,1.3249,1.4275,1.4693,1.5058,1.5472,1.5946,1.5308,1.4557,1.3835,1.3983,1.3943,0.0,1.3921,1.4033,1.3593,1.3583,1.308,1.1892,1.1735,1.1394,1.0769,0.9981,0.944,0.9147,0.0,0.0,0.0,0.0,0.0,0.0,0.8326,0.8253,0.7482,0.7759,0.7996,0.8166,0.8179,0.8641,0.9368,0.9874,1.0343,1.0804,1.1063,1.1412,1.1847,1.2361,1.2528,1.2678,1.3816,1.4167,1.4225,1.4488,1.4409,1.414,1.3718,1.3435,1.3089,1.2388,1.2485,0.0,1.1886,1.2207,1.2636,1.2643,1.321,1.3834,1.4325,1.5198,1.607,1.6735,1.6938,1.7601,1.925,1.9973,2.0613,2.1352,2.2651,2.3859,2.4789,2.5431,2.6714,2.8977,3.0202,3.0372,2.9276,2.9603,2.9792,2.9792,2.9792,2.9792,2.9792,2.9792,2.9792,2.9792,2.9792,2.9792,2.9792,2.9792,2.9792,2.983,3.0228,3.0634,3.1063,3.1951,3.2959,3.3995,3.4224,3.4886,3.5859,3.6659,3.6958,3.7107,1.1272,1.1857,1.2339,1.2177,1.2621,1.3265,1.4038,1.4373,1.473,1.5235,1.4503,1.3868,1.3627,1.3669,1.3616,1.3462,0.0,0.0,1.3738,1.3305,1.2743,1.2079,1.1768,1.1186,1.0312,0.997,0.9612,0.9203,0.0,0.0,0.0,0.0,0.0,0.7391,0.8114,0.8097,0.7531,0.785,0.8204,0.8535,0.8215,0.8558,0.9312,0.989,1.0332,1.0748,1.1475,1.1933,1.2241,1.2633,1.2999,1.3383,1.3884,1.4521,1.5017,1.4933,1.4888,1.4748,1.408,1.387,1.3638,1.2773,1.2921,0.0,0.0,1.2555,1.2943,1.3115,1.3531,1.3902,1.4067,1.4972,1.5693,1.5693,1.6203,1.6848,1.7553,1.8174,1.8764,1.9349,2.0495,2.1747,2.2941,2.3792,2.5314,2.7916,2.9413,3.0004,2.9511,2.9498,2.9639,2.9921,2.9652,2.9411,2.9188,2.9188,2.9365,2.9644,2.9644,2.9796,3.0113,3.0113,2.9972,2.9792,3.0011,3.0343,3.0773,3.1451,3.249,3.3651,3.4155,3.4897,3.5791,3.6388,3.6605,3.6768,1.1953,1.2201,1.2398,1.2345,1.2095,1.2307,1.3439,1.3581,1.3711,1.4076,1.3611,1.3334,1.3604,1.3418,1.3363,1.3499,1.2923,0.0,1.3827,1.3033,1.2465,1.2344,1.1921,1.117,1.0019,1.0029,0.9793,0.9244,0.0,0.0,0.0,0.0,0.7832,0.7259,0.7899,0.8008,0.7731,0.8047,0.8484,0.8944,0.8384,0.8728,0.9602,1.0123,1.0617,1.1142,1.2215,1.2721,1.2877,1.2776,1.3322,1.4034,1.3867,1.4671,1.5615,1.5312,1.5276,1.5216,1.4511,1.4381,1.4233,1.3364,1.3499,1.3696,0.0,0.0,0.0,1.3898,1.4036,1.41,1.423,1.5047,1.5517,1.4984,1.5806,1.6355,1.592,1.6384,1.6982,1.7477,1.8357,1.9481,2.0896,2.2249,2.4002,2.6236,2.7781,2.8917,2.9565,2.9239,2.9304,2.9905,2.9448,2.9045,2.8723,2.8723,2.8954,2.9428,2.9544,2.9852,3.0366,3.0469,3.0305,2.9934,2.9934,3.0113,3.0444,3.0823,3.1855,3.3233,3.4226,3.5059,3.5778,3.6252,3.6429,3.6592,1.269,1.3025,1.3173,1.2871,1.2546,1.2389,1.2551,1.2217,1.2247,1.3042,1.2903,1.2777,1.2979,1.2979,1.2844,1.2499,1.3033,1.3295,1.3141,1.3443,1.3144,1.2084,1.233,1.2139,1.14,1.1369,1.1223,1.0834,1.0833,0.0,0.0,0.0,0.0,0.7085,0.8342,0.8618,0.8172,0.8601,0.8846,0.8909,0.883,0.9291,1.0058,1.0357,1.0835,1.1438,1.2298,1.2721,1.2899,1.2877,1.314,1.3608,1.4345,1.454,1.4732,1.5965,1.5999,1.5657,1.574,1.5548,1.5146,1.4277,1.4194,1.4147,1.3572,0.0,1.3778,1.4317,0.0,1.4094,1.47,0.0,0.0,1.4984,1.5806,1.6218,1.5398,1.5526,1.5916,1.6502,1.7113,1.8081,1.9479,2.1818,2.3771,2.4947,2.5988,2.6899,2.7771,2.8173,2.8669,2.9278,2.9239,2.9164,2.9129,2.9129,2.9155,2.9233,2.9767,3.0053,3.0131,3.0677,3.071,3.033,3.033,3.0368,3.0444,3.0823,3.163,3.2698,3.3632,3.4694,3.5723,3.5791,3.5818,3.5913,1.1617,1.2206,1.2574,1.2153,1.2418,1.2608,1.2375,1.2739,1.3041,1.3005,1.301,1.2974,1.292,1.2791,1.2791,1.2966,1.2993,1.3079,1.3333,1.306,1.2721,1.2373,1.2396,1.2171,1.1674,1.1892,1.1809,1.1444,1.1463,0.0,0.0,0.0,0.0,0.7272,0.7946,0.8038,0.7715,0.8422,0.8898,0.9207,0.9391,1.0098,1.0984,1.0674,1.145,1.2696,1.2743,1.3206,1.3685,1.3107,1.3378,1.4071,1.4553,1.4844,1.5181,1.62,1.6337,1.6136,1.6037,1.5901,1.5654,1.5088,1.4992,1.4971,1.4721,1.4602,1.4728,1.5257,0.0,0.0,0.0,0.0,0.0,0.0,1.6007,1.637,1.6017,1.5855,1.5813,1.5869,1.6185,1.7025,1.8704,2.0756,2.2235,2.2856,2.4186,2.5443,2.6516,2.6792,2.7498,2.8812,2.8499,2.8385,2.8562,2.8879,2.9037,2.9051,2.9988,3.0451,3.0464,3.1082,3.1123,3.0748,3.0482,3.0406,3.0406,3.0596,3.1237,3.2208,3.2843,3.3931,3.5209,3.5588,3.571,3.5805,0.9815,1.0855,1.1721,1.1515,1.2136,1.2568,1.2317,1.2925,1.3302,1.2898,1.2842,1.2846,1.2875,1.2599,1.2652,1.325,1.2801,1.2703,1.3198,1.2545,1.218,1.2325,1.2297,1.2144,1.1838,1.2242,1.2267,1.1838,1.1742,0.0,0.0,0.0,0.0,0.0,0.7652,0.7712,0.759,0.8355,0.8899,0.9287,0.9541,1.0331,1.1402,1.1329,1.2252,1.3575,1.33,1.3716,1.4287,1.3565,1.3794,1.4446,1.4693,1.4968,1.5401,1.6136,1.6323,1.6236,1.6039,1.5988,1.5923,1.5568,1.5491,1.5513,1.5625,1.5459,1.5441,1.6024,1.5941,0.0,0.0,0.0,1.6312,1.5781,0.0,1.645,1.6287,1.612,1.5891,1.5536,1.5487,1.6148,1.7848,1.9046,2.0117,2.1064,2.2175,2.3487,2.5086,2.5317,2.624,2.8058,2.7841,2.7863,2.8229,2.8806,2.904,2.9067,3.0306,3.0869,3.0896,3.1485,3.1532,3.1161,3.0861,3.0672,3.0558,3.0558,3.0994,3.1703,3.2294,3.3267,3.4495,3.5169,3.5574,3.5778,0.75,0.9161,1.0885,1.1335,1.1757,1.2076,1.2181,1.207,1.211,1.2463,1.2014,1.1955,1.2728,1.2275,1.2163,1.2772,1.245,1.2255,1.235,1.2063,1.1822,1.1654,1.2059,1.2266,1.2186,1.2642,1.2652,1.2177,1.1859,0.0,0.0,0.0,0.0,0.0,0.7766,0.8114,0.8202,0.8685,0.8891,0.8921,0.8929,0.9617,1.0822,1.2471,1.3317,1.3634,1.3884,1.4152,1.4396,1.4363,1.4374,1.4466,1.4801,1.4773,1.4808,1.5743,1.5879,1.5769,1.5963,1.5988,1.5923,1.5568,1.5491,1.5568,1.5901,1.5734,1.569,1.6349,1.6216,1.6095,1.6411,1.6488,0.0,0.0,0.0,0.0,0.0,1.5874,1.5891,1.5536,1.5153,1.5418,1.6639,1.6566,1.7511,2.004,1.9764,2.0579,2.3148,2.3838,2.4977,2.6793,2.742,2.799,2.8587,2.917,2.9482,2.9496,3.0703,3.13,3.1314,3.1911,3.195,3.1593,3.1556,3.1347,3.0986,3.0986,3.0999,3.114,3.2097,3.2859,3.3472,3.4481,3.5181,3.571,0.695,0.7491,0.8566,0.9579,1.0689,1.1891,1.3148,1.3128,1.3008,1.3138,1.298,1.297,1.3222,1.285,1.2735,1.3163,1.2585,1.2198,1.2234,1.212,1.2015,1.2004,1.2395,1.2648,1.2666,1.2827,1.2666,1.2203,1.2088,1.1168,0.0,0.0,0.0,0.0,0.8165,0.8287,0.8092,0.858,0.8828,0.8989,0.9961,1.0751,1.149,1.2916,1.3515,1.3668,1.4093,1.4314,1.4396,1.4396,1.4396,1.4466,1.4789,1.5037,1.5288,1.5852,1.5954,1.592,1.5983,1.5988,1.5966,1.5856,1.5988,1.6185,1.6306,1.6228,1.6241,1.6457,1.6402,1.6371,1.6479,1.65,0.0,0.0,0.0,0.0,0.0,1.6096,1.5966,1.5834,1.5266,1.5154,1.5828,1.614,1.6831,1.8109,1.853,1.9494,2.1321,2.2361,2.3933,2.6131,2.6809,2.7596,2.8587,2.9591,2.9889,2.9529,3.1145,3.168,3.1314,3.1897,3.2132,3.1986,3.1716,3.1519,3.1384,3.1099,3.0986,3.1075,3.1684,3.2486,3.3406,3.4441,3.5168,3.5778,0.7173,0.679,0.711,0.818,0.9929,1.1646,1.2953,1.3183,1.3214,1.3222,1.3186,1.3126,1.3024,1.2797,1.2811,1.3159,1.2865,1.2672,1.2671,1.2354,1.2199,1.2227,1.2196,1.2255,1.2431,1.2575,1.2486,1.2203,1.2088,1.1361,0.0,0.0,0.0,0.0,0.8692,0.8632,0.8282,0.8438,0.8521,0.8698,1.0135,1.103,1.1621,1.2798,1.3386,1.3668,1.4093,1.4314,1.4396,1.4396,1.4396,1.4443,1.464,1.4983,1.5367,1.5724,1.5812,1.5812,1.5812,1.5901,1.5966,1.5834,1.6163,1.65,1.65,1.65,1.65,1.65,1.65,1.65,1.65,1.65,0.0,0.0,0.0,0.0,0.0,1.6207,1.5988,1.5988,1.5479,1.5255,1.5635,1.5976,1.6475,1.7157,1.7687,1.8617,2.0129,2.1355,2.3092,2.5493,2.6359,2.7393,2.8587,2.9577,2.9984,2.9821,3.1205,3.1775,3.1612,3.2042,3.2218,3.2182,3.195,3.1827,3.179,3.1384,3.1198,3.1235,3.1482,3.2193,3.3151,3.4143,3.4992,3.5805,0.8094,0.7112,0.6709,0.7363,0.9542,1.1345,1.1798,1.2339,1.2721,1.2756,1.272,1.2538,1.2217,1.226,1.2449,1.2805,1.3235,1.3471,1.3445,1.275,1.2306,1.227,1.1518,1.1247,1.1588,1.1991,1.2167,1.2151,1.1827,1.1355,0.0,0.0,0.0,0.0,0.9352,0.9154,0.8792,0.832,0.8113,0.8192,0.9501,1.047,1.1232,1.2199,1.3016,1.3644,1.3892,1.4174,1.4396,1.4396,1.4396,1.4396,1.4396,1.4617,1.4971,1.5367,1.5468,1.5468,1.5468,1.5702,1.5856,1.558,1.5988,1.6479,1.65,1.65,1.65,1.65,1.65,1.65,1.65,1.65,1.65,0.0,0.0,0.0,0.0,1.6207,1.6001,1.6025,1.5726,1.5635,1.5979,1.601,1.6337,1.7136,1.722,1.7956,1.961,2.0748,2.247,2.4924,2.6129,2.7366,2.8587,2.9244,2.9821,3.0418,3.1042,3.1626,3.2218,3.2218,3.2218,3.2218,3.2218,3.2218,3.2169,3.179,3.1629,3.1593,3.1656,3.207,3.2698,3.363,3.468,3.5805,0.9319,0.8534,0.8227,0.86,1.0023,1.1541,1.2814,1.2807,1.2942,1.3591,1.3602,1.3573,1.3593,1.3607,1.3542,1.3347,1.3436,1.3231,1.2585,1.2635,1.2406,1.1801,1.2134,1.2119,1.1598,1.2038,1.1969,1.1311,1.1222,1.0901,1.0372,0.0,0.0,0.0,0.9982,0.9637,0.9079,0.8708,0.8774,0.9189,1.0039,1.0843,1.1601,1.2169,1.289,1.3644,1.3892,1.4174,1.4396,1.4396,1.4396,1.4396,1.4396,1.4617,1.4926,1.5017,1.504,1.504,1.504,1.5119,1.522,1.5446,1.5824,1.6185,1.6436,1.65,1.65,1.65,1.65,1.65,1.65,1.65,1.65,0.0,0.0,0.0,1.65,1.6207,1.6146,1.6479,1.593,1.5635,1.5979,1.6129,1.6497,1.7157,1.7344,1.8091,1.961,2.0355,2.2036,2.4924,2.5738,2.6932,2.8573,2.9645,3.0256,3.0418,3.1463,3.2069,3.2218,3.2218,3.2218,3.2218,3.2218,3.2218,3.2182,3.2096,3.1863,3.1669,3.2422,3.3306,3.4238,3.4465,3.5032,3.5805,1.0363,0.9787,0.9628,1.0094,1.1056,1.2056,1.2972,1.2831,1.2945,1.3726,1.354,1.3246,1.2985,1.3299,1.3314,1.276,1.3359,1.3471,1.2808,1.2805,1.2649,1.2184,1.2357,1.2173,1.1621,1.1823,1.1719,1.1255,1.1118,1.0977,1.0862,0.0,0.0,0.0,1.0791,1.029,0.9684,0.8981,0.8948,0.9417,0.9995,1.0729,0.0,1.1983,1.2662,1.3396,1.3844,1.4174,1.4396,1.4396,1.4396,1.4396,1.4396,1.4535,1.4709,1.4858,1.48,1.4709,1.4858,1.4903,1.4949,1.5187,1.5501,1.5824,1.601,1.6175,1.6272,1.6272,1.6414,1.65,1.65,1.65,1.6543,1.665,1.6757,1.6778,1.6693,1.65,1.6396,1.6391,1.5982,1.5802,1.5988,1.6098,1.6454,1.7157,1.7547,1.8315,1.9624,2.045,2.2036,2.4516,2.571,2.6918,2.8193,2.9672,3.0405,3.0418,3.1355,3.1924,3.2218,3.2218,3.2218,3.2218,3.2218,3.2218,3.2218,3.2218,3.2059,3.1954,3.2796,3.3783,3.4788,3.4788,3.5168,3.5832,1.1174,1.0884,1.0961,1.1563,1.2249,1.2798,1.2919,1.2814,1.2941,1.3538,1.3092,1.2461,1.1724,1.2355,1.252,1.1849,1.3119,1.3788,1.3432,1.3087,1.2873,1.2821,1.2387,1.1991,1.1649,1.1599,1.1589,1.1649,1.1264,1.1303,0.0,0.0,0.0,0.0,1.1576,1.0913,1.0262,0.9202,0.8998,0.937,0.9797,1.0458,1.1242,1.1758,1.2389,1.3088,1.3716,1.415,1.4396,1.4396,1.4396,1.4396,1.4396,1.4396,1.4466,1.4754,1.4617,1.4466,1.4754,1.4835,1.4835,1.488,1.5153,1.5446,1.5491,1.5736,1.5944,1.5988,1.6228,1.6457,1.65,1.65,1.6586,1.6854,1.7065,1.7094,1.6918,1.6854,1.6633,1.6152,1.5993,0.0,1.6076,1.6047,1.6358,1.7136,1.772,1.8508,1.9637,2.065,2.2077,2.4042,2.5695,2.6955,2.7813,2.9536,3.0446,3.054,3.1124,3.168,3.2218,3.2218,3.2218,3.2218,3.2218,3.2218,3.2218,3.2218,3.2314,3.2453,3.2925,3.3837,3.4897,3.4816,3.5168,3.5886,1.1208,1.1744,1.2255,1.205,1.2797,1.3624,1.4198,1.3781,1.3482,1.3568,1.3514,1.3188,1.2497,1.2629,1.2644,1.2227,1.2763,1.3071,1.3018,1.2939,1.2757,1.241,1.2779,1.2667,1.1943,1.1926,1.1926,1.1933,1.1311,1.1239,0.0,0.0,0.0,0.0,1.1891,1.1032,0.9855,0.9338,0.9465,1.0056,1.0308,1.0889,1.1619,1.1719,1.227,1.3064,1.3515,1.3975,1.4396,1.4396,1.4396,1.4396,1.4396,1.4396,1.4396,1.4466,1.4443,1.4396,1.4466,1.4489,1.4558,1.4823,1.4949,1.5085,1.5412,1.5558,1.5669,1.5944,1.6054,1.6163,1.6457,1.65,1.6586,1.6854,1.6918,1.6939,1.6897,1.6616,1.6455,1.6563,1.5999,1.5858,1.6494,1.6377,1.6518,1.7157,1.7444,1.8219,1.961,1.989,2.1274,2.4001,2.4896,2.6321,2.841,2.974,3.0649,3.1151,3.1734,3.211,3.2218,3.2218,3.2218,3.2218,3.2218,3.2218,3.2218,3.2218,3.2752,3.3555,3.3251,3.4082,3.5506,3.4965,3.5168,3.5886,1.217,1.2553,1.2945,1.3092,1.354,1.4029,1.4526,1.4312,1.4069,1.3878,1.3419,1.2812,1.2097,1.2294,1.2267,1.1732,1.2434,1.2814,1.2607,1.2783,1.2808,1.2627,1.2987,1.3022,1.2638,1.2388,1.2332,1.251,1.1818,1.1788,1.2369,1.2418,1.2574,1.2745,1.2095,1.1325,1.0499,1.0113,1.0229,1.0711,1.0786,1.1175,1.1719,1.2049,1.2433,1.2861,1.342,1.3858,1.4221,1.4361,1.4396,1.4396,1.4396,1.4396,1.4396,1.4396,1.4396,1.4396,1.4396,1.4396,1.4443,1.4593,1.464,1.4686,1.4903,1.5051,1.5232,1.54,1.5734,1.6098,1.6436,1.6607,1.6748,1.6876,1.7226,1.7338,1.6956,1.7063,1.6999,1.6544,1.6433,1.6414,1.6497,1.6551,1.6723,1.701,1.7515,1.8304,1.9432,1.9904,2.1196,2.3567,2.5126,2.6647,2.8125,3.0256,3.1314,3.13,3.1897,3.2218,3.2218,3.2218,3.2218,3.2218,3.2218,3.2218,3.2232,3.2544,3.3145,3.3908,3.3973,3.4692,3.571,3.575,3.5927,3.6307,1.3179,1.3322,1.3564,1.4008,1.4172,1.4288,1.4557,1.4542,1.4391,1.4148,1.3363,1.2511,1.1686,1.1873,1.1791,1.1167,1.1978,1.2457,1.2317,1.2603,1.2808,1.2905,1.3094,1.3194,1.3194,1.2799,1.2788,1.3146,1.2453,1.2416,1.2909,1.2691,1.2749,1.2977,1.207,1.1534,1.1292,1.0897,1.0947,1.1317,1.1242,1.1477,1.1868,1.2359,1.257,1.2691,1.329,1.3692,1.3962,1.4221,1.4361,1.4396,1.4396,1.4396,1.4396,1.4396,1.4443,1.4512,1.4512,1.4512,1.4512,1.4512,1.4443,1.4396,1.4396,1.4593,1.4812,1.488,1.549,1.6098,1.6436,1.6671,1.6833,1.6876,1.7467,1.773,1.7162,1.7726,1.779,1.6713,1.7072,1.7178,1.6651,1.6778,1.6927,1.7012,1.7692,1.8464,1.9274,2.0176,2.1467,2.3161,2.5546,2.7131,2.7881,3.0622,3.1816,3.149,3.1951,3.2218,3.2218,3.2218,3.2218,3.2218,3.2218,3.2218,3.2259,3.2857,3.3417,3.3962,3.4558,3.5154,3.5791,3.6388,3.6605,3.67,1.36,1.4042,1.4379,1.413,1.4344,1.4565,1.4597,1.4328,1.4148,1.4117,1.3743,1.31,1.2083,1.1706,1.1428,1.1133,1.1201,1.1563,1.2258,1.2348,1.2529,1.2881,1.3094,1.3194,1.3194,1.3037,1.3142,1.3539,1.3119,1.2809,1.2643,1.2609,1.2506,1.2348,1.1585,1.1434,1.1715,1.1317,1.1392,1.1749,1.166,1.1877,1.2249,1.2298,1.2452,1.2667,1.3088,1.342,1.3692,1.3939,1.4197,1.4396,1.4396,1.4396,1.4396,1.4396,1.4628,1.4835,1.4835,1.4835,1.4835,1.4835,1.4617,1.4396,1.4396,1.4419,1.4524,1.4835,1.549,1.6098,1.6436,1.6522,1.6629,1.6854,1.7371,1.7696,1.7622,1.8309,1.8497,1.7673,1.7817,1.7904,1.7587,1.7149,1.7029,1.733,1.7816,1.8464,1.9274,2.059,2.19,2.3174,2.5546,2.7366,2.8492,3.0418,3.1612,3.2137,3.2191,3.2218,3.2218,3.2218,3.2218,3.2218,3.2218,3.2218,3.2259,3.2857,3.3417,3.3962,3.4558,3.5154,3.5791,3.6388,3.6605,3.6768,1.4104,1.4415,1.4557,1.4423,1.4093,1.4005,1.4518,1.4122,1.3719,1.3529,1.3227,1.2678,1.1797,1.14,1.1075,1.0767,1.0972,1.1352,1.1902,1.2175,1.248,1.2881,1.274,1.2711,1.2837,1.2799,1.299,1.3491,1.3411,1.3398,1.342,1.2861,1.2491,1.2298,1.224,1.2314,1.2427,1.2033,1.2082,1.2427,1.2166,1.2298,1.2652,1.2652,1.2715,1.2803,1.2958,1.3166,1.3396,1.3668,1.3939,1.4197,1.4361,1.4396,1.4396,1.4396,1.4489,1.4593,1.4593,1.4593,1.4593,1.4593,1.4512,1.4396,1.4396,1.4396,1.4512,1.4823,1.549,1.6098,1.6436,1.65,1.6656,1.7118,1.7637,1.8004,1.8004,1.839,1.8487,1.7928,1.7812,1.784,1.8096,1.7496,1.7497,1.8514,1.8296,1.8398,1.9071,2.0573,2.1955,2.3174,2.5546,2.7393,2.8587,3.0391,3.1585,3.2218,3.2218,3.2218,3.2218,3.2218,3.2218,3.2218,3.2218,3.2218,3.2286,3.32,3.3742,3.403,3.5004,3.5723,3.632,3.6931,3.7392,3.7813,1.443,1.4391,1.4201,1.4201,1.3751,1.3618,1.4193,1.3823,1.3354,1.3124,1.263,1.2081,1.1571,1.1193,1.086,1.0528,1.0769,1.1099,1.1502,1.1803,1.2126,1.2529,1.2274,1.219,1.2335,1.2399,1.2618,1.2991,1.329,1.3491,1.3563,1.2856,1.2452,1.2298,1.2603,1.2783,1.2881,1.2603,1.2627,1.2881,1.2603,1.2652,1.2905,1.2905,1.2944,1.2983,1.2983,1.3118,1.3362,1.3621,1.3844,1.4044,1.4314,1.4466,1.4558,1.4558,1.4628,1.472,1.472,1.4651,1.4558,1.4558,1.4466,1.4396,1.4396,1.4396,1.4512,1.4823,1.5412,1.5957,1.6306,1.6595,1.6804,1.6953,1.7565,1.7976,1.7801,1.8113,1.8318,1.826,1.8117,1.8275,1.8835,1.8253,1.8283,1.9429,1.9195,1.914,1.9467,2.1035,2.2483,2.3689,2.6061,2.7922,2.9116,3.0744,3.1762,3.2218,3.2218,3.2218,3.2218,3.2218,3.2218,3.2218,3.2218,3.2314,3.2558,3.3487,3.4016,3.4339,3.533,3.6076,3.6673,3.7255,3.7865,3.8505,1.451,1.391,1.3323,1.3323,1.3482,1.3618,1.3592,1.3306,1.3092,1.3092,1.2162,1.1495,1.1487,1.1193,1.086,1.0528,1.0496,1.0667,1.1074,1.1124,1.1293,1.1703,1.1703,1.1703,1.1694,1.1907,1.2012,1.2012,1.2691,1.2861,1.2618,1.2403,1.2298,1.2298,1.2308,1.2529,1.2905,1.2881,1.2905,1.2905,1.2881,1.2905,1.2905,1.2905,1.3031,1.3194,1.3194,1.3372,1.3644,1.3892,1.3997,1.4044,1.4314,1.4617,1.488,1.488,1.5187,1.5491,1.5491,1.521,1.488,1.488,1.464,1.4396,1.4396,1.4396,1.4512,1.4823,1.5232,1.5625,1.5944,1.6764,1.7097,1.6164,1.6923,1.7423,1.6899,1.7487,1.8223,1.8829,1.9116,1.9501,2.0024,1.9607,1.9423,1.9756,2.0576,2.0919,2.0597,2.2228,2.373,2.4951,2.7311,2.9157,3.0378,3.1572,3.2205,3.2218,3.2218,3.2218,3.2218,3.2218,3.2218,3.2218,3.2218,3.2544,3.3129,3.3664,3.4246,3.4843,3.5439,3.6076,3.6673,3.7255,3.7865,3.8505,1.4264,1.2893,1.174,1.2657,1.2491,1.2487,1.3146,1.2957,1.2678,1.2393,1.1853,1.14,1.1177,1.087,1.0615,1.0504,1.0496,1.0667,1.1074,1.1099,1.1276,1.1678,1.1452,1.1293,1.1293,1.136,1.1592,1.1987,1.2344,1.2486,1.2403,1.2618,1.2554,1.2298,1.2578,1.2783,1.2905,1.2905,1.2905,1.2905,1.2905,1.2992,1.3094,1.2944,1.3128,1.3443,1.3266,1.3362,1.3644,1.3926,1.3997,1.4044,1.4314,1.4466,1.4558,1.4558,1.4651,1.4743,1.4743,1.4651,1.4558,1.4558,1.4489,1.4396,1.4396,1.4581,1.4777,1.488,1.521,1.5536,1.5647,1.589,1.6114,1.6192,1.6502,1.6788,1.6979,1.7108,1.7449,1.8187,1.84,1.8905,1.9973,1.9621,1.9668,2.0552,2.0926,2.1057,2.0959,2.3151,2.4801,2.5588,2.7556,2.917,3.0405,3.1192,3.1775,3.2218,3.2218,3.2218,3.2218,3.2218,3.2218,3.2232,3.264,3.2925,3.3169,3.4136,3.4626,3.4856,3.5439,3.6334,3.7228,3.7418,3.8122,3.9047,1.2877,1.1748,1.0965,1.2127,1.2034,1.1995,1.2578,1.2646,1.2415,1.1884,1.1622,1.136,1.1034,1.0703,1.0496,1.0496,1.0496,1.0624,1.0871,1.0871,1.0998,1.1251,1.0998,1.0871,1.0871,1.0871,1.1133,1.1667,1.2082,1.2382,1.2529,1.2783,1.2783,1.2529,1.2783,1.2905,1.2905,1.2905,1.2905,1.2905,1.2905,1.2992,1.3069,1.2944,1.3176,1.3586,1.3409,1.3586,1.3928,1.408,1.415,1.4174,1.4361,1.4396,1.4419,1.4558,1.4605,1.4605,1.4605,1.4512,1.4396,1.4396,1.4489,1.4617,1.4789,1.4869,1.496,1.513,1.536,1.5545,1.5545,1.5938,1.6137,1.5835,1.6057,1.6303,1.629,1.6162,1.657,1.7854,1.806,1.8728,2.0282,2.033,2.051,2.1115,2.2037,2.2466,2.225,2.4203,2.5724,2.6552,2.8329,2.9849,3.1056,3.1436,3.1816,3.2218,3.2218,3.2218,3.2218,3.2218,3.2218,3.2246,3.2843,3.3224,3.3471,3.4395,3.4924,3.5181,3.5818,3.6659,3.7526,3.7743,3.8477,3.9305,1.0719,1.0624,1.094,1.1755,1.2003,1.2081,1.2047,1.2375,1.2335,1.1611,1.1479,1.1336,1.0995,1.0695,1.0496,1.0496,1.0496,1.0496,1.0496,1.0496,1.0496,1.0496,1.0496,1.0496,1.0496,1.0496,1.0718,1.115,1.1927,1.2505,1.2905,1.2881,1.2881,1.2905,1.2905,1.2905,1.2905,1.2905,1.2905,1.2905,1.2929,1.292,1.2954,1.2954,1.3248,1.3644,1.3634,1.3952,1.4396,1.4396,1.4396,1.4396,1.4396,1.4396,1.4466,1.4777,1.4869,1.4858,1.488,1.4663,1.4407,1.4419,1.4663,1.5006,1.5424,1.521,1.5062,1.5513,1.5625,1.5612,1.5612,1.6547,1.68,1.52,1.5649,1.5916,1.5063,1.496,1.5718,1.7744,1.8098,1.8935,2.082,2.1542,2.18,2.1513,2.3635,2.472,2.4177,2.5426,2.666,2.78,2.955,3.1015,3.2205,3.2218,3.2218,3.2218,3.2218,3.2218,3.2218,3.2218,3.2218,3.2259,3.2884,3.343,3.3962,3.4599,3.5181,3.5778,3.6361,3.6985,3.7567,3.8163,3.879,3.9305,1.0719,1.1003,1.1435,1.1622,1.1817,1.2066,1.2418,1.2543,1.2335,1.1611,1.138,1.1109,1.0671,1.0544,1.0496,1.0496,1.0496,1.0496,1.0496,1.0496,1.0496,1.0496,1.0496,1.0496,1.0496,1.0496,1.0845,1.1553,1.2051,1.2505,1.2881,1.2578,1.2603,1.2905,1.2905,1.2905,1.2905,1.2905,1.2905,1.2905,1.3069,1.3252,1.343,1.343,1.3763,1.4186,1.3986,1.4127,1.4396,1.4396,1.4396,1.4396,1.4396,1.4396,1.443,1.4512,1.4512,1.457,1.4823,1.4663,1.4466,1.4709,1.4835,1.5006,1.5424,1.5464,1.5468,1.5593,1.5686,1.5752,1.5752,1.5717,1.5631,1.5456,1.5325,1.5257,1.5345,1.5672,1.6338,1.7544,1.861,1.9723,2.0965,2.1588,2.2071,2.2456,2.3622,2.4435,2.4774,2.723,2.8796,2.9048,3.0378,3.1436,3.2205,3.2218,3.2218,3.2218,3.2218,3.2218,3.2218,3.2218,3.2218,3.2273,3.3281,3.3772,3.3989,3.5032,3.5588,3.5778,3.6361,3.6985,3.7567,3.8163,3.879,3.9305,1.1185,1.1341,1.1622,1.1723,1.1817,1.1997,1.2236,1.2455,1.2335,1.1611,1.1304,1.1022,1.0544,1.0496,1.0565,1.0769,1.0624,1.0496,1.0496,1.0496,1.0496,1.0496,1.0496,1.0496,1.0496,1.0667,1.1175,1.1977,1.22,1.2505,1.2881,1.248,1.2505,1.2905,1.2905,1.2944,1.3031,1.2944,1.2944,1.3045,1.3146,1.329,1.3433,1.3539,1.3858,1.4197,1.4044,1.4174,1.4396,1.4396,1.4396,1.4396,1.4396,1.4396,1.4396,1.4396,1.4396,1.4466,1.4812,1.4777,1.4754,1.5266,1.5576,1.5762,1.5739,1.5833,1.5971,1.6201,1.6192,1.6184,1.6384,1.6179,1.5838,1.5443,1.5103,1.4971,1.521,1.5649,1.6491,1.7848,1.8879,2.0092,2.1676,2.249,2.308,2.3535,2.517,2.6185,2.624,2.8817,3.0086,2.9529,3.0955,3.1857,3.2218,3.2218,3.2218,3.2218,3.2218,3.2218,3.2218,3.2218,3.2218,3.2236,3.3393,3.3921,3.4016,3.5235,3.571,3.5805,3.6687,3.7187,3.7594,3.8505,3.902,3.9305,1.1872,1.2179,1.2444,1.2072,1.2003,1.1997,1.2019,1.2328,1.2375,1.1762,1.1428,1.1077,1.0623,1.0528,1.065,1.0972,1.0693,1.0522,1.0598,1.0496,1.0445,1.0496,1.0496,1.0496,1.0496,1.0947,1.1528,1.22,1.2274,1.2505,1.2881,1.248,1.2505,1.2905,1.2905,1.3007,1.3194,1.3031,1.3045,1.3218,1.329,1.329,1.329,1.361,1.3858,1.4057,1.4057,1.4221,1.4396,1.4396,1.4396,1.4396,1.4396,1.4396,1.4396,1.4396,1.4396,1.4466,1.4812,1.4949,1.5176,1.5931,1.639,1.6595,1.6274,1.6296,1.6491,1.6901,1.685,1.6814,1.7144,1.7032,1.6584,1.5539,1.5239,1.5131,1.5188,1.5784,1.6829,1.8432,1.9302,2.0563,2.256,2.3667,2.4472,2.4922,2.7153,2.8387,2.8125,3.0133,3.0812,2.9814,3.1363,3.2218,3.2218,3.2218,3.2218,3.2218,3.2218,3.2259,3.2354,3.2354,3.2395,3.2508,3.3569,3.4057,3.4204,3.5276,3.5764,3.5967,3.7052,3.7553,3.7756,3.8898,3.9305,3.9305,1.2467,1.4895,1.605,1.3008,1.2498,1.2474,1.2495,1.2543,1.2551,1.2439,1.1866,1.1304,1.0955,1.0679,1.0522,1.0598,1.0547,1.065,1.0972,1.0411,1.0205,1.0496,1.0496,1.0496,1.0496,1.1226,1.1678,1.1794,1.2126,1.2505,1.2881,1.248,1.2505,1.2905,1.2905,1.3007,1.3194,1.317,1.317,1.3242,1.3692,1.3739,1.3586,1.4093,1.4303,1.4337,1.4337,1.4361,1.4396,1.4396,1.4396,1.4396,1.4396,1.4396,1.4396,1.4396,1.4396,1.4466,1.4812,1.5164,1.5608,1.6457,1.639,1.6308,1.7015,1.6989,1.6842,1.6899,1.7304,1.7568,1.7202,1.6814,1.66,1.6621,1.6325,1.6209,1.6534,1.7775,1.8766,1.9066,2.0811,2.2277,2.2975,2.4238,2.5626,2.702,2.7709,2.8651,2.991,3.0812,3.1205,3.1015,3.1811,3.2218,3.2218,3.2218,3.2218,3.2218,3.2218,3.2477,3.2966,3.2966,3.32,3.3664,3.4355,3.4666,3.4707,3.5438,3.6008,3.6537,3.7214,3.7797,3.8355,3.9047,3.9305,3.9305,1.3325,1.4706,1.5272,1.3417,1.3094,1.2981,1.2652,1.259,1.259,1.259,1.2304,1.1937,1.1531,1.1061,1.0854,1.1063,1.0574,1.0565,1.1368,1.0888,1.0667,1.082,1.082,1.0922,1.115,1.1728,1.2126,1.2357,1.2323,1.2505,1.2881,1.248,1.2505,1.2905,1.3007,1.319,1.342,1.342,1.3491,1.3644,1.3892,1.3926,1.3868,1.4257,1.4396,1.4396,1.4396,1.4396,1.4396,1.4396,1.4396,1.4396,1.4396,1.4396,1.4396,1.4396,1.4535,1.4709,1.4858,1.5543,1.6237,1.643,1.6893,1.723,1.692,1.6956,1.7053,1.7053,1.7485,1.7951,1.829,1.766,1.7359,1.8178,1.7177,1.6739,1.8014,1.8816,1.9662,2.0739,2.2043,2.3387,2.4775,2.5681,2.6699,2.8036,2.8968,2.9787,3.0524,3.1343,3.1762,3.1762,3.2069,3.2218,3.2218,3.2531,3.2531,3.2218,3.2833,3.3105,3.3115,3.339,3.365,3.3935,3.4531,3.4788,3.4843,3.5425,3.5873,3.6212,3.7119,3.7662,3.8014,3.8966,3.9305,3.9305,1.3643,1.4046,1.4198,1.3713,1.3541,1.3299,1.2683,1.259,1.259,1.259,1.2407,1.2152,1.1834,1.126,1.1008,1.1318,1.0595,1.0565,1.1619,1.1418,1.12,1.1099,1.1099,1.1251,1.1544,1.2051,1.2446,1.2759,1.2529,1.2603,1.2881,1.2578,1.2603,1.2905,1.3108,1.3348,1.3597,1.3668,1.3821,1.3997,1.4067,1.4067,1.402,1.4291,1.4396,1.4396,1.4396,1.4396,1.4396,1.4396,1.4396,1.4396,1.4396,1.4396,1.4396,1.4396,1.457,1.48,1.488,1.5775,1.6665,1.6551,1.7545,1.8261,1.7126,1.7212,1.7455,1.7224,1.7618,1.8245,1.9061,1.843,1.818,1.9281,1.8067,1.7593,1.9277,1.9916,2.0773,2.2346,2.3353,2.4582,2.6336,2.7069,2.7816,2.8743,3.004,3.0817,3.089,3.173,3.2218,3.2218,3.2218,3.2218,3.2218,3.2803,3.287,3.2436,3.3406,3.3745,3.3522,3.3908,3.4192,3.4341,3.4802,3.4992,3.5046,3.5683,3.6008,3.6198,3.7268,3.777,3.8014,3.8966,3.9305,3.9305,1.2699,1.4103,1.5021,1.4121,1.37,1.3299,1.2683,1.259,1.259,1.259,1.1842,1.1364,1.1495,1.0942,1.0561,1.0587,1.0504,1.082,1.1653,1.1669,1.1502,1.1124,1.1099,1.1124,1.115,1.1902,1.2298,1.2348,1.2686,1.2881,1.2905,1.2856,1.2881,1.2905,1.3108,1.3348,1.3621,1.3868,1.3973,1.402,1.4267,1.4221,1.402,1.4291,1.4396,1.4396,1.4396,1.4396,1.4396,1.4396,1.4396,1.4396,1.4396,1.4396,1.4396,1.4396,1.443,1.4512,1.4823,1.5603,1.6515,1.7303,1.8228,1.8834,1.836,1.8386,1.8227,1.7304,1.787,1.8551,1.8634,1.8528,1.8633,1.9218,1.9195,1.9369,2.0104,2.1729,2.2914,2.3205,2.5016,2.6311,2.6474,2.7882,2.8949,2.942,3.0383,3.1145,3.1526,3.1959,3.2218,3.2218,3.2218,3.2218,3.2218,3.2803,3.3074,3.3047,3.3609,3.4179,3.4666,3.4707,3.5032,3.5588,3.5628,3.5642,3.5696,3.628,3.6877,3.7418,3.8055,3.8695,3.9183,3.9278,3.9305,3.9305,1.259,1.3174,1.38,1.4213,1.3872,1.3299,1.2683,1.259,1.2487,1.2192,1.1871,1.1595,1.1495,1.1101,1.0822,1.0822,1.0623,1.0845,1.1653,1.1703,1.1753,1.1852,1.1603,1.1603,1.1852,1.215,1.2431,1.2676,1.2832,1.2905,1.2905,1.2905,1.2905,1.2929,1.3286,1.3491,1.3634,1.4069,1.4244,1.4267,1.4361,1.4337,1.4267,1.4361,1.4396,1.4396,1.4396,1.4396,1.4396,1.4396,1.4396,1.4396,1.4396,1.4396,1.4396,1.4396,1.481,1.5378,1.5832,1.6369,1.6963,1.762,1.8478,1.8934,1.8254,1.8139,1.808,1.7718,1.8165,1.8987,2.0276,2.0141,2.0487,2.2402,2.1839,2.1596,2.2922,2.342,2.3929,2.4643,2.5782,2.6763,2.7419,2.836,2.9214,3.001,3.0631,3.1161,3.1593,3.1986,3.2218,3.2218,3.2218,3.2395,3.2762,3.3322,3.3607,3.362,3.4545,3.4924,3.4802,3.5181,3.5506,3.571,3.571,3.571,3.5737,3.5967,3.6402,3.7012,3.7594,3.8233,3.8803,3.9169,3.9305,3.9305,1.259,1.2593,1.2893,1.374,1.3782,1.3428,1.2713,1.259,1.2479,1.2144,1.1905,1.1706,1.1511,1.1098,1.0828,1.0828,1.0639,1.0794,1.1477,1.1753,1.2002,1.2283,1.2051,1.2026,1.2298,1.2431,1.2627,1.2905,1.2905,1.2905,1.2905,1.2905,1.2905,1.2929,1.3382,1.3597,1.3644,1.4163,1.4396,1.4396,1.4396,1.4396,1.4396,1.4396,1.4396,1.4396,1.4396,1.4396,1.4396,1.4396,1.4396,1.443,1.4535,1.4558,1.4581,1.4735,1.5255,1.6001,1.699,1.7531,1.7918,1.8258,1.9027,1.9419,1.853,1.8577,1.87,1.8262,1.8773,1.9725,2.1181,2.1296,2.1886,2.3964,2.3473,2.3306,2.4649,2.4645,2.4845,2.5762,2.6562,2.7268,2.8034,2.8775,2.9505,3.0343,3.0748,3.1248,3.1753,3.2059,3.2218,3.2218,3.2218,3.2504,3.3088,3.3647,3.4002,3.4192,3.5195,3.5506,3.5087,3.5533,3.571,3.571,3.571,3.571,3.5723,3.5913,3.6239,3.6687,3.7458,3.8027,3.8491,3.9088,3.9305,3.9305,1.259,1.259,1.259,1.259,1.3376,1.3679,1.2744,1.259,1.259,1.2582,1.1961,1.1487,1.1479,1.0902,1.0496,1.0496,1.0496,1.0667,1.1074,1.1852,1.2298,1.2298,1.2298,1.2298,1.2298,1.27,1.2905,1.2905,1.2905,1.2905,1.2905,1.2905,1.2905,1.2929,1.3382,1.3597,1.3644,1.4163,1.4396,1.4396,1.4396,1.4396,1.4396,1.4396,1.4396,1.4396,1.4396,1.4396,1.4396,1.4407,1.4407,1.4466,1.4811,1.4915,1.5017,1.5468,1.5717,1.6231,1.8182,1.9043,1.9373,1.9342,1.9998,2.0434,1.9452,2.004,2.0394,1.8914,1.9766,2.0833,2.0887,2.1679,2.2504,2.3133,2.3666,2.4234,2.4838,2.531,2.5824,2.6436,2.7444,2.8109,2.8109,2.9126,2.9972,3.0368,3.0785,3.136,3.2146,3.2218,3.2218,3.2218,3.2218,3.2504,3.3088,3.3647,3.4206,3.4802,3.5425,3.571,3.571,3.571,3.571,3.571,3.571,3.571,3.5764,3.6361,3.6605,3.6727,3.7935,3.8423,3.8491,3.9088,3.9305,3.9305,1.2781,1.259,1.259,1.259,1.2836,1.2928,1.2652,1.259,1.2407,1.1905,1.1651,1.1304,1.0854,1.0615,1.0496,1.0496,1.0496,1.0794,1.1477,1.2002,1.2431,1.271,1.2446,1.2421,1.27,1.2554,1.2627,1.2905,1.2905,1.2905,1.2905,1.2905,1.2992,1.3132,1.3443,1.3692,1.3892,1.4257,1.4396,1.4396,1.4396,1.4396,1.4396,1.4396,1.4396,1.4396,1.4396,1.4396,1.4451,1.4777,1.4886,1.5024,1.577,1.6213,1.6429,1.6285,1.6962,1.7985,1.899,1.9491,1.9941,2.0726,2.0813,2.0634,2.0367,2.0284,2.0222,2.0211,2.0292,2.0834,2.2245,2.279,2.3412,2.4696,2.5363,2.5941,2.6517,2.6371,2.6587,2.7507,2.7908,2.826,2.8612,2.8944,2.9586,3.071,3.1471,3.195,3.2182,3.2218,3.2218,3.2218,3.2218,3.2504,3.3088,3.4101,3.4882,3.5504,3.6099,3.6389,3.6389,3.5911,3.5951,3.6389,3.5911,3.6217,3.7007,3.6701,3.7085,3.7883,3.8269,3.8667,3.9061,3.9237,3.9305,3.9394,1.3721,1.3103,1.259,1.259,1.259,1.259,1.259,1.259,1.2439,1.2001,1.167,1.1364,1.0942,1.0655,1.0496,1.0496,1.0496,1.0845,1.1653,1.1927,1.2298,1.2881,1.2686,1.2652,1.2881,1.2652,1.2652,1.2905,1.2905,1.2905,1.2905,1.2905,1.3007,1.3208,1.3491,1.375,1.402,1.4291,1.4396,1.4396,1.4396,1.4396,1.4396,1.4396,1.4396,1.4396,1.4396,1.4527,1.4712,1.5006,1.5334,1.5775,1.6722,1.7175,1.7396,1.756,1.8116,1.8853,1.9804,2.0165,2.061,2.1893,2.1446,2.0811,2.128,2.1136,2.1007,2.141,2.1428,2.1675,2.269,2.3425,2.4185,2.5147,2.6144,2.6939,2.7231,2.7027,2.7153,2.7996,2.8109,2.8323,2.8838,2.9082,2.9715,3.0911,3.173,3.2218,3.2218,3.2218,3.2218,3.2218,3.2218,3.2395,3.2748,3.3951,3.471,3.5068,3.5662,3.5951,3.5926,3.5775,3.6071,3.6665,3.627,3.6691,3.7558,3.6896,3.7193,3.8047,3.8026,3.8423,3.8979,3.921,3.9305,3.938,1.4815,1.3782,1.259,1.259,1.259,1.259,1.259,1.259,1.2574,1.2503,1.1929,1.1463,1.1436,1.087,1.0496,1.0496,1.0496,1.082,1.1544,1.1594,1.1943,1.27,1.2749,1.2759,1.2774,1.2856,1.2905,1.2905,1.2905,1.2905,1.2905,1.2905,1.3007,1.3242,1.3491,1.3763,1.4044,1.4291,1.4396,1.4396,1.4396,1.4396,1.4396,1.4396,1.4396,1.4407,1.4451,1.4733,1.5127,1.5258,1.5881,1.6755,1.765,1.797,1.8146,1.8994,1.9021,1.9109,2.0409,2.0847,2.1218,2.2687,2.1929,2.1119,2.2146,2.2347,2.2338,2.2525,2.2842,2.2993,2.2683,2.3777,2.4755,2.4846,2.6243,2.7341,2.7344,2.7356,2.7582,2.8185,2.821,2.8398,2.8913,2.9516,3.0164,3.0861,3.1693,3.2169,3.2218,3.2218,3.2218,3.2218,3.2218,3.2246,3.2286,3.3375,3.3956,3.3998,3.4582,3.4934,3.5002,3.5465,3.6071,3.6705,3.6705,3.7042,3.7582,3.6982,3.7056,3.7518,3.7548,3.7905,3.8491,3.9088,3.9349,3.9513,1.3133,1.2889,1.259,1.259,1.259,1.259,1.259,1.259,1.2391,1.1797,1.159,1.1316,1.0775,1.0584,1.0496,1.0496,1.0496,1.059,1.0829,1.0829,1.1057,1.156,1.156,1.1694,1.1952,1.2578,1.2905,1.2905,1.2905,1.2905,1.2905,1.2905,1.3113,1.3515,1.3563,1.3881,1.4314,1.4384,1.4396,1.4396,1.4396,1.4396,1.4396,1.4396,1.4396,1.4451,1.481,1.5017,1.5279,1.6426,1.739,1.8232,1.8794,1.9224,1.9412,1.8902,1.9206,1.9738,1.9787,2.0247,2.1017,2.2268,2.2253,2.2133,2.2782,2.2594,2.2569,2.3479,2.3401,2.3413,2.415,2.4607,2.5002,2.5352,2.6478,2.7431,2.7871,2.7921,2.8298,2.9302,2.9026,2.8976,2.9553,3.0012,3.0241,3.0241,3.1172,3.1863,3.2169,3.2218,3.2218,3.2218,3.2218,3.2436,3.2898,3.3168,3.3761,3.4705,3.5277,3.5817,3.6274,3.5896,3.6071,3.6705,3.6705,3.7042,3.761,3.7417,3.7418,3.756,3.8041,3.8301,3.8491,3.9088,3.9631,4.0258,1.2638,1.2853,1.2981,1.2654,1.2781,1.2853,1.263,1.259,1.2455,1.2081,1.173,1.138,1.1022,1.0687,1.0419,1.0223,1.012,1.0164,1.0387,1.0701,1.0976,1.1183,1.1671,1.1913,1.1936,1.2733,1.2979,1.2603,1.2808,1.2944,1.3045,1.3045,1.332,1.3787,1.3787,1.4022,1.4396,1.4396,1.4396,1.4396,1.4396,1.4396,1.4396,1.4396,1.4549,1.4788,1.5279,1.5902,1.6645,1.7617,1.8111,1.8476,1.943,1.9565,1.9379,1.9363,1.9721,2.0077,1.989,2.0472,2.132,2.2183,2.2535,2.2819,2.3384,2.3326,2.3351,2.4217,2.4151,2.4122,2.4706,2.5044,2.5397,2.5898,2.6949,2.7871,2.8423,2.8461,2.8825,2.9691,2.9289,2.9151,2.9729,3.0152,3.0432,3.0482,3.1172,3.179,3.2182,3.2218,3.2218,3.2218,3.2218,3.2504,3.3088,3.3101,3.3687,3.4868,3.5184,3.5501,3.5778,3.5748,3.6071,3.6705,3.7003,3.7299,3.7625,3.7848,3.7966,3.7963,3.8268,3.8567,3.8898,3.9544,4.0378,4.1352,1.267,1.3052,1.3259,1.2694,1.2925,1.3052,1.2654,1.259,1.2574,1.2511,1.1977,1.1559,1.1495,1.0904,1.0376,1.0019,0.9762,0.9762,1.0154,1.0722,1.1045,1.1096,1.1957,1.2317,1.2095,1.2887,1.2999,1.2386,1.2841,1.3164,1.3339,1.3377,1.3652,1.4113,1.4113,1.4226,1.4407,1.4484,1.4473,1.4407,1.4495,1.4473,1.4407,1.4495,1.4755,1.5192,1.5822,1.6934,1.8185,1.8556,1.8495,1.8427,1.9667,1.947,1.8947,1.9697,1.9976,2.0039,1.998,2.0738,2.1721,2.2149,2.2684,2.3263,2.3802,2.3946,2.4161,2.4872,2.4971,2.4933,2.5083,2.5526,2.6027,2.6479,2.7494,2.8411,2.8825,2.8976,2.9252,2.9729,2.9365,2.9264,2.9741,3.0113,3.0482,3.0949,3.131,3.1716,3.2169,3.2218,3.2218,3.2218,3.2218,3.2544,3.3237,3.3251,3.381,3.4938,3.4938,3.4992,3.51,3.5533,3.6046,3.674,3.7317,3.7529,3.751,3.8306,3.8504,3.8266,3.8475,3.881,3.9271,4.0173,4.1302,4.2415,1.2606,1.267,1.2702,1.2614,1.2646,1.267,1.2606,1.259,1.2479,1.2131,1.1974,1.1829,1.1527,1.0946,1.0536,1.0444,0.9913,0.9749,1.008,1.0236,1.0434,1.0673,1.1102,1.1415,1.1583,1.2438,1.2833,1.2737,1.3428,1.3806,1.3897,1.4061,1.431,1.4619,1.4619,1.454,1.4429,1.4832,1.4766,1.444,1.4832,1.4755,1.4451,1.4843,1.505,1.5279,1.6628,1.7766,1.8611,1.8665,1.8903,1.9156,1.9369,1.9313,1.9154,1.8912,1.9145,1.9414,1.9017,2.0216,2.1616,2.1678,2.2414,2.318,2.3569,2.3654,2.4088,2.5678,2.5588,2.5458,2.6129,2.6699,2.7087,2.7162,2.8074,2.8813,2.8888,2.9365,2.9704,2.9779,2.9729,2.9704,2.9779,2.9869,3.0203,3.0949,3.1061,3.1397,3.2146,3.2218,3.2218,3.2218,3.2218,3.2711,3.3772,3.3786,3.4382,3.5601,3.5601,3.5859,3.6347,3.5913,3.6035,3.6648,3.7292,3.7299,3.6943,3.8654,3.8717,3.7823,3.8919,3.9036,3.8806,4.0615,4.1924,4.2856,1.259,1.2901,1.3044,1.2662,1.2909,1.3036,1.2654,1.259,1.2535,1.2375,1.2146,1.1927,1.1805,1.1246,1.0791,1.0577,1.0179,1.0009,1.015,1.0516,1.066,1.0587,1.1468,1.1878,1.1789,1.2882,1.3357,1.314,1.3895,1.4124,1.3785,1.4303,1.4528,1.4523,1.4804,1.4877,1.4799,1.5017,1.5137,1.5135,1.4832,1.4733,1.481,1.5028,1.5255,1.568,1.7158,1.8294,1.9058,1.8785,1.9294,1.9934,1.9451,1.9431,1.9499,1.9119,1.9366,1.9738,1.9577,2.0873,2.2266,2.2309,2.301,2.3918,2.4896,2.4852,2.4857,2.5792,2.6019,2.6162,2.6697,2.7205,2.7617,2.7731,2.8411,2.9001,2.9365,2.9628,2.9792,2.9792,2.9792,2.9908,3.0113,3.0152,3.0381,3.0949,3.1198,3.1495,3.1827,3.2096,3.2218,3.2218,3.2218,3.2752,3.3894,3.3908,3.4504,3.571,3.6049,3.6347,3.6592,3.632,3.6347,3.6619,3.7251,3.7023,3.6272,3.815,3.8392,3.7656,3.896,3.9702,4.0235,4.108,4.2119,4.318]}]]